GEFSCGP_prec_meanprecacc_096.txt.gz
Total_Precipitation_Accumulation
0.00 0.00 0.00 0.00 0.00 0.00 0.00 0.00 0.00 0.00 0.00 0.00 0.00 0.00 0.00 0.00 0.00 0.00 0.00 0.00 0.00 0.00 0.00 0.00 0.00 0.00 0.00 0.00 0.00 0.00 0.00 0.00 0.00 0.00 0.01 0.01 0.01 0.00 0.00 0.00 0.00 0.00 0.00 0.00
0.00 0.00 0.00 0.00 0.00 0.00 0.00 0.00 0.00 0.00 0.00 0.00 0.00 0.00 0.00 0.00 0.00 0.00 0.00 0.00 0.00 0.00 0.00 0.00 0.00 0.00 0.00 0.00 0.00 0.00 0.00 0.00 0.00 0.00 0.00 0.00 0.00 0.00 0.00 0.00 0.00 0.00 0.00 0.00
0.00 0.00 0.00 0.00 0.00 0.00 0.00 0.00 0.00 0.00 0.00 0.00 0.00 0.00 0.00 0.00 0.00 0.00 0.00 0.00 0.00 0.00 0.00 0.00 0.00 0.00 0.00 0.00 0.00 0.00 0.00 0.00 0.00 0.00 0.00 0.00 0.00 0.00 0.00 0.00 0.00 0.00 0.00 0.00
0.00 0.00 0.00 0.00 0.00 0.00 0.00 0.00 0.00 0.00 0.00 0.00 0.00 0.00 0.00 0.00 0.00 0.00 0.00 0.00 0.00 0.00 0.00 0.00 0.00 0.00 0.00 0.00 0.00 0.00 0.00 0.00 0.00 0.00 0.00 0.00 0.00 0.00 0.00 0.00 0.00 0.00 0.00 0.00
0.00 0.00 0.00 0.00 0.00 0.00 0.00 0.00 0.00 0.00 0.00 0.00 0.00 0.00 0.00 0.00 0.00 0.00 0.00 0.00 0.00 0.00 0.00 0.00 0.00 0.00 0.00 0.00 0.00 0.00 0.00 0.00 0.00 0.00 0.00 0.00 0.00 0.00 0.00 0.00 0.00 0.00 0.00 0.00
0.00 0.00 0.00 0.00 0.00 0.00 0.00 0.00 0.00 0.00 0.00 0.00 0.00 0.00 0.00 0.00 0.00 0.00 0.00 0.00 0.00 0.00 0.00 0.00 0.00 0.00 0.00 0.00 0.00 0.00 0.00 0.00 0.00 0.00 0.00 0.00 0.00 0.00 0.00 0.00 0.00 0.00 0.00 0.00
0.00 0.00 0.00 0.00 0.00 0.00 0.00 0.00 0.00 0.00 0.00 0.00 0.00 0.00 0.00 0.00 0.00 0.00 0.00 0.00 0.00 0.00 0.00 0.00 0.00 0.00 0.00 0.00 0.00 0.00 0.00 0.00 0.00 0.00 0.00 0.00 0.00 0.00 0.00 0.00 0.00 0.00 0.00 0.00
0.00 0.00 0.00 0.00 0.00 0.00 0.00 0.00 0.00 0.00 0.00 0.00 0.00 0.00 0.00 0.00 0.00 0.00 0.00 0.00 0.00 0.00 0.00 0.00 0.00 0.00 0.00 0.00 0.00 0.00 0.00 0.00 0.00 0.00 0.00 0.00 0.00 0.00 0.00 0.00 0.00 0.00 0.00 0.00
0.00 0.00 0.00 0.00 0.00 0.00 0.00 0.00 0.00 0.00 0.00 0.00 0.00 0.00 0.00 0.00 0.00 0.00 0.00 0.00 0.00 0.00 0.00 0.00 0.00 0.00 0.00 0.00 0.00 0.00 0.00 0.00 0.00 0.00 0.00 0.00 0.00 0.00 0.00 0.00 0.00 0.00 0.00 0.00
0.00 0.00 0.00 0.00 0.00 0.00 0.00 0.00 0.00 0.00 0.00 0.00 0.00 0.00 0.00 0.00 0.00 0.00 0.00 0.00 0.00 0.00 0.00 0.00 0.00 0.00 0.00 0.00 0.00 0.00 0.00 0.00 0.00 0.00 0.00 0.00 0.00 0.00 0.00 0.00 0.00 0.00 0.00 0.00
0.00 0.00 0.00 0.00 0.00 0.00 0.00 0.00 0.00 0.00 0.00 0.00 0.00 0.00 0.00 0.00 0.00 0.00 0.00 0.00 0.00 0.00 0.00 0.00 0.00 0.00 0.00 0.00 0.00 0.00 0.00 0.00 0.00 0.00 0.00 0.00 0.00 0.00 0.00 0.00 0.00 0.00 0.00 0.00
0.00 0.00 0.00 0.00 0.00 0.00 0.00 0.00 0.00 0.00 0.00 0.00 0.00 0.00 0.00 0.00 0.00 0.00 0.00 0.00 0.00 0.00 0.00 0.00 0.00 0.00 0.00 0.00 0.00 0.00 0.00 0.00 0.00 0.00 0.00 0.00 0.00 0.00 0.00 0.00 0.00 0.00 0.00 0.00
0.00 0.00 0.01 0.00 0.00 0.00 0.00 0.00 0.00 0.00 0.00 0.00 0.00 0.00 0.00 0.00 0.00 0.00 0.00 0.00 0.00 0.00 0.00 0.00 0.00 0.00 0.00 0.00 0.00 0.00 0.00 0.00 0.00 0.00 0.00 0.00 0.00 0.00 0.00 0.00 0.00 0.00 0.00 0.00
0.00 0.00 0.00 0.00 0.00 0.00 0.00 0.00 0.00 0.00 0.00 0.00 0.00 0.00 0.00 0.00 0.00 0.00 0.00 0.00 0.00 0.00 0.00 0.00 0.00 0.00 0.00 0.00 0.00 0.00 0.00 0.00 0.00 0.00 0.00 0.00 0.00 0.00 0.00 0.00 0.00 0.00 0.00 0.01
0.00 0.00 0.00 0.00 0.00 0.00 0.00 0.00 0.00 0.00 0.00 0.00 0.00 0.00 0.00 0.00 0.00 0.00 0.00 0.00 0.00 0.00 0.00 0.00 0.00 0.00 0.00 0.00 0.00 0.00 0.00 0.00 0.00 0.00 0.00 0.00 0.00 0.00 0.00 0.00 0.00 0.00 0.01 0.01
0.00 0.00 0.00 0.00 0.00 0.00 0.00 0.00 0.00 0.00 0.00 0.00 0.00 0.00 0.00 0.00 0.00 0.00 0.00 0.00 0.00 0.00 0.00 0.00 0.00 0.00 0.00 0.00 0.00 0.00 0.00 0.00 0.00 0.00 0.00 0.00 0.00 0.00 0.00 0.00 0.00 0.01 0.01 0.01
0.00 0.00 0.00 0.00 0.00 0.00 0.00 0.00 0.00 0.00 0.00 0.00 0.00 0.00 0.00 0.00 0.00 0.00 0.00 0.00 0.00 0.00 0.00 0.00 0.00 0.00 0.00 0.00 0.00 0.00 0.00 0.00 0.00 0.00 0.00 0.00 0.00 0.00 0.00 0.00 0.01 0.01 0.01 0.02
0.00 0.00 0.00 0.00 0.00 0.01 0.00 0.00 0.00 0.00 0.00 0.00 0.00 0.00 0.00 0.00 0.00 0.00 0.00 0.00 0.00 0.00 0.00 0.00 0.00 0.00 0.00 0.00 0.00 0.00 0.00 0.00 0.00 0.00 0.00 0.00 0.00 0.00 0.00 0.00 0.01 0.01 0.02 0.02
0.00 0.00 0.00 0.00 0.00 0.00 0.00 0.00 0.00 0.00 0.00 0.00 0.00 0.00 0.00 0.00 0.00 0.00 0.00 0.00 0.00 0.00 0.00 0.00 0.00 0.00 0.00 0.00 0.00 0.00 0.00 0.00 0.00 0.00 0.00 0.00 0.00 0.00 0.00 0.01 0.01 0.02 0.03 0.02
0.00 0.00 0.00 0.00 0.00 0.00 0.00 0.00 0.00 0.00 0.00 0.00 0.00 0.00 0.00 0.00 0.00 0.00 0.00 0.00 0.00 0.00 0.00 0.00 0.00 0.00 0.00 0.00 0.00 0.00 0.00 0.00 0.00 0.00 0.00 0.00 0.00 0.00 0.01 0.01 0.02 0.02 0.02 0.02
0.00 0.00 0.00 0.00 0.00 0.00 0.00 0.00 0.00 0.00 0.00 0.00 0.00 0.00 0.00 0.00 0.00 0.00 0.00 0.00 0.00 0.00 0.00 0.00 0.00 0.00 0.00 0.00 0.00 0.00 0.00 0.00 0.00 0.00 0.00 0.00 0.00 0.00 0.01 0.02 0.02 0.02 0.03 0.03
0.00 0.00 0.00 0.00 0.00 0.00 0.00 0.00 0.00 0.00 0.00 0.00 0.00 0.00 0.00 0.00 0.00 0.00 0.00 0.00 0.00 0.00 0.00 0.00 0.00 0.00 0.00 0.00 0.00 0.00 0.00 0.00 0.00 0.00 0.00 0.00 0.00 0.01 0.02 0.03 0.03 0.03 0.03 0.03
0.00 0.00 0.00 0.00 0.00 0.00 0.00 0.00 0.00 0.00 0.00 0.00 0.00 0.00 0.00 0.00 0.00 0.00 0.00 0.00 0.00 0.00 0.00 0.00 0.00 0.00 0.00 0.00 0.00 0.00 0.00 0.00 0.00 0.00 0.00 0.00 0.01 0.01 0.03 0.03 0.04 0.04 0.04 0.06
0.00 0.00 0.00 0.00 0.00 0.00 0.00 0.00 0.00 0.00 0.00 0.00 0.00 0.00 0.00 0.00 0.00 0.00 0.00 0.00 0.00 0.00 0.00 0.00 0.00 0.00 0.00 0.00 0.00 0.00 0.00 0.00 0.00 0.00 0.00 0.01 0.01 0.02 0.03 0.04 0.04 0.05 0.08 0.15
0.00 0.00 0.00 0.00 0.00 0.00 0.00 0.00 0.00 0.00 0.00 0.00 0.00 0.00 0.00 0.00 0.00 0.00 0.00 0.00 0.00 0.00 0.00 0.00 0.00 0.00 0.00 0.00 0.00 0.00 0.00 0.00 0.00 0.00 0.01 0.01 0.02 0.03 0.04 0.04 0.04 0.06 0.07 0.17
0.00 0.00 0.00 0.00 0.00 0.00 0.00 0.00 0.00 0.00 0.00 0.00 0.00 0.00 0.00 0.00 0.00 0.00 0.00 0.00 0.00 0.00 0.00 0.00 0.00 0.00 0.00 0.00 0.00 0.00 0.00 0.00 0.00 0.00 0.01 0.02 0.03 0.04 0.04 0.05 0.04 0.05 0.05 0.08

GEFSCGP_prec_meanprecacc_102.txt.gz
Total_Precipitation_Accumulation
0.00 0.00 0.00 0.00 0.00 0.00 0.00 0.00 0.00 0.00 0.00 0.00 0.00 0.00 0.00 0.00 0.00 0.00 0.00 0.00 0.00 0.00 0.00 0.00 0.00 0.00 0.00 0.00 0.00 0.00 0.00 0.00 0.00 0.01 0.01 0.01 0.01 0.01 0.01 0.01 0.00 0.00 0.00 0.00
0.00 0.00 0.00 0.00 0.00 0.00 0.00 0.00 0.00 0.00 0.00 0.00 0.00 0.00 0.00 0.00 0.00 0.00 0.00 0.00 0.00 0.00 0.00 0.00 0.00 0.00 0.00 0.00 0.00 0.00 0.00 0.00 0.00 0.00 0.00 0.01 0.01 0.01 0.00 0.00 0.00 0.00 0.00 0.00
0.00 0.00 0.00 0.00 0.00 0.00 0.00 0.00 0.00 0.00 0.00 0.00 0.00 0.00 0.00 0.00 0.00 0.00 0.00 0.00 0.00 0.00 0.00 0.00 0.00 0.00 0.00 0.00 0.00 0.00 0.00 0.00 0.00 0.00 0.00 0.00 0.00 0.00 0.00 0.00 0.00 0.00 0.00 0.00
0.00 0.00 0.00 0.00 0.00 0.00 0.00 0.00 0.00 0.00 0.00 0.00 0.00 0.00 0.00 0.00 0.00 0.00 0.00 0.00 0.00 0.00 0.00 0.00 0.00 0.00 0.00 0.00 0.00 0.00 0.00 0.00 0.00 0.00 0.00 0.00 0.00 0.00 0.00 0.00 0.00 0.00 0.00 0.00
0.00 0.00 0.00 0.00 0.00 0.00 0.00 0.00 0.00 0.00 0.00 0.00 0.00 0.00 0.00 0.00 0.00 0.00 0.00 0.00 0.00 0.00 0.00 0.00 0.00 0.00 0.00 0.00 0.00 0.00 0.00 0.00 0.00 0.00 0.00 0.00 0.00 0.00 0.00 0.00 0.00 0.00 0.00 0.00
0.00 0.00 0.00 0.00 0.00 0.00 0.00 0.00 0.00 0.00 0.00 0.00 0.00 0.00 0.00 0.00 0.00 0.00 0.00 0.00 0.00 0.00 0.00 0.00 0.00 0.00 0.00 0.00 0.00 0.00 0.00 0.00 0.00 0.00 0.00 0.00 0.00 0.00 0.00 0.00 0.00 0.00 0.00 0.00
0.00 0.00 0.00 0.00 0.00 0.00 0.00 0.00 0.00 0.00 0.00 0.00 0.00 0.00 0.00 0.00 0.00 0.00 0.00 0.00 0.00 0.00 0.00 0.00 0.00 0.00 0.00 0.00 0.00 0.00 0.00 0.00 0.00 0.00 0.00 0.00 0.00 0.00 0.00 0.00 0.00 0.00 0.00 0.00
0.00 0.00 0.00 0.00 0.00 0.00 0.00 0.00 0.00 0.00 0.00 0.00 0.00 0.00 0.00 0.00 0.00 0.00 0.00 0.00 0.00 0.00 0.00 0.00 0.00 0.00 0.00 0.00 0.00 0.00 0.00 0.00 0.00 0.00 0.00 0.00 0.00 0.00 0.00 0.00 0.00 0.00 0.00 0.00
0.00 0.00 0.00 0.00 0.00 0.00 0.00 0.00 0.00 0.00 0.00 0.00 0.00 0.00 0.00 0.00 0.00 0.00 0.00 0.00 0.00 0.00 0.00 0.00 0.00 0.00 0.00 0.00 0.00 0.00 0.00 0.00 0.00 0.00 0.00 0.00 0.00 0.00 0.00 0.00 0.00 0.00 0.00 0.00
0.00 0.00 0.00 0.00 0.00 0.00 0.00 0.00 0.00 0.00 0.00 0.00 0.00 0.00 0.00 0.00 0.00 0.00 0.00 0.00 0.00 0.00 0.00 0.00 0.00 0.00 0.00 0.00 0.00 0.00 0.00 0.00 0.00 0.00 0.00 0.00 0.00 0.00 0.00 0.00 0.00 0.00 0.00 0.00
0.00 0.01 0.00 0.00 0.00 0.00 0.00 0.00 0.00 0.00 0.00 0.00 0.00 0.00 0.00 0.00 0.00 0.00 0.00 0.00 0.00 0.00 0.00 0.00 0.00 0.00 0.00 0.00 0.00 0.00 0.00 0.00 0.00 0.00 0.00 0.00 0.00 0.00 0.00 0.00 0.00 0.00 0.00 0.00
0.01 0.01 0.02 0.01 0.00 0.00 0.00 0.00 0.00 0.00 0.00 0.00 0.00 0.00 0.00 0.00 0.00 0.00 0.00 0.00 0.00 0.00 0.00 0.00 0.00 0.00 0.00 0.00 0.00 0.00 0.00 0.00 0.00 0.00 0.00 0.00 0.00 0.00 0.00 0.00 0.00 0.00 0.00 0.00
0.01 0.03 0.05 0.03 0.01 0.00 0.00 0.00 0.00 0.00 0.00 0.00 0.00 0.00 0.00 0.00 0.00 0.00 0.00 0.00 0.00 0.00 0.00 0.00 0.00 0.00 0.00 0.00 0.00 0.00 0.00 0.00 0.00 0.00 0.00 0.00 0.00 0.00 0.00 0.00 0.00 0.00 0.00 0.00
0.01 0.03 0.03 0.02 0.01 0.00 0.00 0.00 0.00 0.00 0.00 0.00 0.00 0.00 0.00 0.00 0.00 0.00 0.00 0.00 0.00 0.00 0.00 0.00 0.00 0.00 0.00 0.00 0.00 0.00 0.00 0.00 0.00 0.00 0.00 0.00 0.00 0.00 0.00 0.00 0.00 0.00 0.00 0.01
0.01 0.02 0.01 0.00 0.00 0.00 0.00 0.00 0.00 0.00 0.00 0.00 0.00 0.00 0.00 0.00 0.00 0.00 0.00 0.00 0.00 0.00 0.00 0.00 0.00 0.00 0.00 0.00 0.00 0.00 0.00 0.00 0.00 0.00 0.00 0.00 0.00 0.00 0.00 0.00 0.00 0.00 0.01 0.01
0.02 0.02 0.00 0.00 0.00 0.00 0.00 0.00 0.00 0.00 0.00 0.00 0.00 0.00 0.00 0.00 0.00 0.00 0.00 0.00 0.00 0.00 0.00 0.00 0.00 0.00 0.00 0.00 0.00 0.00 0.00 0.00 0.00 0.00 0.00 0.00 0.00 0.00 0.00 0.00 0.00 0.01 0.01 0.01
0.03 0.02 0.01 0.01 0.00 0.01 0.01 0.00 0.00 0.00 0.00 0.00 0.00 0.00 0.00 0.00 0.00 0.00 0.00 0.00 0.00 0.00 0.00 0.00 0.00 0.00 0.00 0.00 0.00 0.00 0.00 0.00 0.00 0.00 0.00 0.00 0.00 0.00 0.00 0.00 0.01 0.01 0.01 0.02
0.04 0.03 0.03 0.01 0.01 0.03 0.01 0.00 0.00 0.00 0.00 0.00 0.00 0.00 0.00 0.00 0.00 0.00 0.00 0.00 0.00 0.00 0.00 0.00 0.00 0.00 0.00 0.00 0.00 0.00 0.00 0.00 0.00 0.00 0.00 0.00 0.00 0.00 0.00 0.00 0.01 0.01 0.02 0.02
0.02 0.03 0.05 0.03 0.02 0.01 0.00 0.00 0.00 0.00 0.00 0.00 0.00 0.00 0.00 0.00 0.00 0.00 0.00 0.00 0.00 0.00 0.00 0.00 0.00 0.00 0.00 0.00 0.00 0.00 0.00 0.00 0.00 0.00 0.00 0.00 0.00 0.00 0.00 0.01 0.01 0.02 0.03 0.02
0.02 0.03 0.05 0.04 0.02 0.00 0.00 0.00 0.00 0.00 0.00 0.00 0.00 0.00 0.00 0.00 0.00 0.00 0.00 0.00 0.00 0.00 0.00 0.00 0.00 0.00 0.00 0.00 0.00 0.00 0.00 0.00 0.00 0.00 0.00 0.00 0.00 0.00 0.01 0.01 0.02 0.02 0.02 0.02
0.02 0.04 0.05 0.03 0.01 0.00 0.00 0.00 0.00 0.00 0.00 0.00 0.00 0.00 0.00 0.00 0.00 0.00 0.00 0.00 0.00 0.00 0.00 0.00 0.00 0.00 0.00 0.00 0.00 0.00 0.00 0.00 0.00 0.00 0.00 0.00 0.00 0.00 0.01 0.02 0.02 0.02 0.03 0.03
0.01 0.02 0.02 0.02 0.01 0.00 0.00 0.00 0.00 0.00 0.00 0.00 0.00 0.00 0.00 0.00 0.00 0.00 0.00 0.00 0.00 0.00 0.00 0.00 0.00 0.00 0.00 0.00 0.00 0.00 0.00 0.00 0.00 0.00 0.00 0.00 0.00 0.01 0.02 0.03 0.03 0.03 0.03 0.03
0.01 0.00 0.00 0.00 0.00 0.00 0.00 0.00 0.00 0.00 0.00 0.00 0.00 0.00 0.00 0.00 0.00 0.00 0.00 0.00 0.00 0.00 0.00 0.00 0.00 0.00 0.00 0.00 0.00 0.00 0.00 0.00 0.00 0.00 0.00 0.00 0.01 0.01 0.03 0.03 0.04 0.04 0.04 0.06
0.01 0.01 0.00 0.00 0.00 0.00 0.00 0.00 0.00 0.00 0.00 0.00 0.00 0.00 0.00 0.00 0.00 0.00 0.00 0.00 0.00 0.00 0.00 0.00 0.00 0.00 0.00 0.00 0.00 0.00 0.00 0.00 0.00 0.00 0.00 0.01 0.01 0.02 0.03 0.04 0.04 0.05 0.08 0.15
0.01 0.01 0.01 0.01 0.00 0.00 0.00 0.00 0.00 0.00 0.00 0.00 0.00 0.00 0.00 0.00 0.00 0.00 0.00 0.00 0.00 0.00 0.00 0.00 0.00 0.00 0.00 0.00 0.00 0.00 0.00 0.00 0.00 0.00 0.01 0.01 0.02 0.03 0.04 0.04 0.04 0.06 0.07 0.17
0.01 0.01 0.01 0.00 0.00 0.00 0.00 0.00 0.00 0.00 0.00 0.00 0.00 0.00 0.00 0.00 0.00 0.00 0.00 0.00 0.00 0.00 0.00 0.00 0.00 0.00 0.00 0.00 0.00 0.00 0.00 0.00 0.00 0.00 0.01 0.02 0.03 0.04 0.04 0.05 0.04 0.05 0.05 0.08

GEFSCGP_prec_meanprecacc_108.txt.gz
Total_Precipitation_Accumulation
0.01 0.01 0.00 0.00 0.00 0.00 0.00 0.00 0.00 0.00 0.00 0.00 0.00 0.00 0.00 0.00 0.00 0.00 0.00 0.00 0.00 0.00 0.00 0.00 0.00 0.00 0.00 0.00 0.00 0.00 0.00 0.00 0.00 0.01 0.01 0.02 0.02 0.01 0.01 0.01 0.00 0.00 0.00 0.00
0.02 0.01 0.00 0.00 0.00 0.00 0.00 0.00 0.00 0.00 0.00 0.00 0.00 0.00 0.00 0.00 0.00 0.00 0.00 0.00 0.00 0.00 0.00 0.00 0.00 0.00 0.00 0.00 0.00 0.00 0.00 0.00 0.00 0.00 0.01 0.01 0.01 0.01 0.01 0.00 0.00 0.00 0.00 0.00
0.02 0.01 0.00 0.00 0.00 0.00 0.00 0.00 0.00 0.00 0.00 0.00 0.00 0.00 0.00 0.00 0.00 0.00 0.00 0.00 0.00 0.00 0.00 0.00 0.00 0.00 0.00 0.00 0.00 0.00 0.00 0.00 0.00 0.00 0.00 0.01 0.01 0.01 0.01 0.00 0.00 0.00 0.00 0.00
0.02 0.00 0.00 0.01 0.01 0.00 0.00 0.00 0.00 0.00 0.00 0.00 0.00 0.00 0.00 0.00 0.00 0.00 0.00 0.00 0.00 0.00 0.00 0.00 0.00 0.00 0.00 0.00 0.00 0.00 0.00 0.00 0.00 0.00 0.00 0.00 0.00 0.00 0.00 0.00 0.00 0.00 0.00 0.00
0.03 0.01 0.00 0.00 0.00 0.00 0.00 0.00 0.00 0.00 0.00 0.00 0.00 0.00 0.00 0.00 0.00 0.00 0.00 0.00 0.00 0.00 0.00 0.00 0.00 0.00 0.00 0.00 0.00 0.00 0.00 0.00 0.00 0.00 0.00 0.00 0.00 0.00 0.00 0.00 0.00 0.00 0.00 0.00
0.03 0.01 0.00 0.00 0.00 0.00 0.00 0.00 0.01 0.00 0.01 0.01 0.00 0.00 0.00 0.00 0.00 0.00 0.00 0.00 0.00 0.00 0.00 0.00 0.00 0.00 0.00 0.00 0.00 0.00 0.00 0.00 0.00 0.00 0.00 0.00 0.00 0.00 0.00 0.00 0.00 0.00 0.00 0.00
0.05 0.02 0.01 0.00 0.00 0.00 0.01 0.02 0.03 0.03 0.03 0.01 0.00 0.00 0.00 0.00 0.00 0.00 0.00 0.00 0.00 0.00 0.00 0.00 0.00 0.00 0.00 0.00 0.00 0.00 0.00 0.00 0.00 0.00 0.00 0.00 0.00 0.00 0.00 0.00 0.00 0.00 0.00 0.00
0.04 0.03 0.01 0.00 0.00 0.00 0.00 0.01 0.02 0.02 0.01 0.00 0.00 0.00 0.00 0.00 0.00 0.00 0.00 0.00 0.00 0.00 0.00 0.00 0.00 0.00 0.00 0.00 0.00 0.00 0.00 0.00 0.00 0.00 0.00 0.00 0.00 0.00 0.00 0.00 0.00 0.00 0.00 0.00
0.03 0.02 0.00 0.00 0.00 0.00 0.01 0.01 0.00 0.00 0.00 0.00 0.00 0.00 0.00 0.00 0.00 0.00 0.00 0.00 0.00 0.00 0.00 0.00 0.00 0.00 0.00 0.00 0.00 0.00 0.00 0.00 0.00 0.00 0.00 0.00 0.00 0.00 0.00 0.00 0.00 0.00 0.00 0.00
0.04 0.02 0.00 0.00 0.01 0.01 0.01 0.01 0.01 0.02 0.02 0.00 0.00 0.00 0.00 0.00 0.00 0.00 0.00 0.00 0.00 0.00 0.00 0.00 0.00 0.00 0.00 0.00 0.00 0.00 0.00 0.00 0.00 0.00 0.00 0.00 0.00 0.00 0.00 0.00 0.00 0.00 0.00 0.00
0.05 0.04 0.01 0.01 0.01 0.01 0.01 0.01 0.02 0.02 0.01 0.00 0.00 0.00 0.00 0.00 0.00 0.00 0.00 0.00 0.00 0.00 0.00 0.00 0.00 0.00 0.00 0.00 0.00 0.00 0.00 0.00 0.00 0.00 0.00 0.00 0.00 0.00 0.00 0.00 0.00 0.00 0.00 0.00
0.06 0.06 0.04 0.02 0.01 0.01 0.01 0.01 0.01 0.02 0.01 0.00 0.00 0.00 0.00 0.00 0.00 0.00 0.00 0.00 0.00 0.00 0.00 0.00 0.00 0.00 0.00 0.00 0.00 0.00 0.00 0.00 0.00 0.00 0.00 0.00 0.00 0.00 0.00 0.00 0.00 0.00 0.00 0.00
0.12 0.15 0.13 0.08 0.03 0.02 0.01 0.01 0.01 0.01 0.01 0.00 0.00 0.00 0.00 0.00 0.00 0.00 0.00 0.00 0.00 0.00 0.00 0.00 0.00 0.00 0.00 0.00 0.00 0.00 0.00 0.00 0.00 0.00 0.00 0.00 0.00 0.00 0.00 0.00 0.00 0.00 0.00 0.01
0.13 0.16 0.12 0.07 0.03 0.02 0.02 0.01 0.01 0.01 0.01 0.00 0.00 0.00 0.00 0.00 0.00 0.00 0.00 0.00 0.00 0.00 0.00 0.00 0.00 0.00 0.00 0.00 0.00 0.00 0.00 0.00 0.00 0.00 0.00 0.00 0.00 0.00 0.00 0.00 0.00 0.00 0.00 0.01
0.14 0.14 0.07 0.03 0.01 0.01 0.01 0.01 0.01 0.01 0.01 0.01 0.00 0.00 0.00 0.00 0.00 0.00 0.00 0.00 0.00 0.00 0.00 0.00 0.00 0.00 0.00 0.00 0.00 0.00 0.00 0.00 0.00 0.00 0.00 0.00 0.00 0.00 0.00 0.00 0.00 0.00 0.01 0.01
0.18 0.15 0.06 0.03 0.02 0.01 0.01 0.00 0.01 0.01 0.01 0.00 0.00 0.00 0.00 0.00 0.00 0.00 0.00 0.00 0.00 0.00 0.00 0.00 0.00 0.00 0.00 0.00 0.00 0.00 0.00 0.00 0.00 0.00 0.00 0.00 0.00 0.00 0.00 0.00 0.00 0.01 0.01 0.01
0.20 0.17 0.10 0.04 0.02 0.04 0.04 0.01 0.00 0.01 0.01 0.00 0.00 0.00 0.00 0.00 0.00 0.00 0.00 0.00 0.00 0.00 0.00 0.00 0.00 0.00 0.00 0.00 0.00 0.00 0.00 0.00 0.00 0.00 0.00 0.00 0.00 0.00 0.00 0.00 0.01 0.01 0.01 0.02
0.16 0.16 0.15 0.08 0.06 0.13 0.04 0.00 0.00 0.00 0.00 0.00 0.00 0.00 0.00 0.00 0.00 0.00 0.00 0.00 0.00 0.00 0.00 0.00 0.00 0.00 0.00 0.00 0.00 0.00 0.00 0.00 0.00 0.00 0.00 0.00 0.00 0.00 0.00 0.00 0.01 0.01 0.02 0.02
0.07 0.12 0.18 0.14 0.10 0.06 0.01 0.00 0.00 0.00 0.00 0.00 0.00 0.00 0.00 0.00 0.00 0.00 0.00 0.00 0.00 0.00 0.00 0.00 0.00 0.00 0.00 0.00 0.00 0.00 0.00 0.00 0.00 0.00 0.00 0.00 0.00 0.00 0.00 0.01 0.01 0.02 0.03 0.02
0.06 0.09 0.16 0.14 0.10 0.03 0.00 0.00 0.00 0.00 0.00 0.00 0.00 0.00 0.00 0.00 0.00 0.00 0.00 0.00 0.00 0.00 0.00 0.00 0.00 0.00 0.00 0.00 0.00 0.00 0.00 0.00 0.00 0.00 0.00 0.00 0.00 0.00 0.01 0.01 0.02 0.02 0.02 0.02
0.11 0.15 0.17 0.11 0.06 0.01 0.00 0.00 0.00 0.00 0.00 0.00 0.00 0.00 0.00 0.00 0.00 0.00 0.00 0.00 0.00 0.00 0.00 0.00 0.00 0.00 0.00 0.00 0.00 0.00 0.00 0.00 0.00 0.00 0.00 0.00 0.00 0.00 0.01 0.02 0.02 0.02 0.03 0.03
0.10 0.14 0.12 0.08 0.05 0.01 0.00 0.00 0.00 0.00 0.00 0.00 0.00 0.00 0.00 0.00 0.00 0.00 0.00 0.00 0.00 0.00 0.00 0.00 0.00 0.00 0.00 0.00 0.00 0.00 0.00 0.00 0.00 0.00 0.00 0.00 0.00 0.01 0.02 0.03 0.03 0.03 0.03 0.03
0.05 0.07 0.06 0.04 0.02 0.00 0.00 0.01 0.01 0.01 0.00 0.00 0.00 0.00 0.00 0.00 0.00 0.00 0.00 0.00 0.00 0.00 0.00 0.00 0.00 0.00 0.00 0.00 0.00 0.00 0.00 0.00 0.00 0.00 0.00 0.00 0.01 0.01 0.03 0.03 0.04 0.04 0.04 0.06
0.03 0.03 0.04 0.03 0.01 0.01 0.01 0.01 0.01 0.01 0.00 0.00 0.00 0.00 0.00 0.00 0.00 0.00 0.00 0.00 0.00 0.00 0.00 0.00 0.00 0.00 0.00 0.00 0.00 0.00 0.00 0.00 0.00 0.00 0.00 0.01 0.01 0.02 0.03 0.04 0.04 0.05 0.08 0.15
0.04 0.04 0.05 0.03 0.01 0.01 0.01 0.01 0.00 0.00 0.00 0.00 0.00 0.00 0.00 0.00 0.00 0.00 0.00 0.00 0.00 0.00 0.00 0.00 0.00 0.00 0.00 0.00 0.00 0.00 0.00 0.00 0.00 0.00 0.01 0.01 0.02 0.03 0.04 0.04 0.04 0.06 0.07 0.17
0.03 0.03 0.03 0.02 0.00 0.01 0.01 0.00 0.00 0.00 0.00 0.00 0.00 0.00 0.00 0.00 0.00 0.00 0.00 0.00 0.00 0.00 0.00 0.00 0.00 0.00 0.00 0.00 0.00 0.00 0.00 0.00 0.00 0.00 0.01 0.02 0.03 0.04 0.04 0.05 0.04 0.05 0.05 0.08

GEFSCGP_prec_meanprecacc_114.txt.gz
Total_Precipitation_Accumulation
0.09 0.09 0.06 0.02 0.01 0.00 0.00 0.00 0.00 0.00 0.00 0.00 0.00 0.00 0.00 0.00 0.00 0.00 0.00 0.00 0.00 0.00 0.00 0.00 0.00 0.00 0.00 0.00 0.00 0.00 0.00 0.00 0.00 0.01 0.01 0.02 0.02 0.01 0.01 0.01 0.01 0.01 0.00 0.00
0.13 0.09 0.03 0.01 0.00 0.00 0.00 0.00 0.00 0.00 0.00 0.00 0.00 0.00 0.00 0.00 0.00 0.00 0.00 0.00 0.00 0.00 0.00 0.00 0.00 0.00 0.00 0.00 0.00 0.00 0.00 0.00 0.00 0.00 0.01 0.01 0.01 0.01 0.01 0.00 0.00 0.00 0.00 0.00
0.11 0.05 0.01 0.01 0.02 0.01 0.01 0.00 0.00 0.00 0.00 0.00 0.00 0.00 0.00 0.00 0.00 0.00 0.00 0.00 0.00 0.00 0.00 0.00 0.00 0.00 0.00 0.00 0.00 0.00 0.00 0.00 0.00 0.00 0.00 0.01 0.01 0.01 0.01 0.01 0.00 0.00 0.00 0.00
0.08 0.03 0.02 0.02 0.02 0.02 0.01 0.00 0.00 0.00 0.00 0.00 0.00 0.00 0.00 0.00 0.00 0.00 0.00 0.00 0.00 0.00 0.00 0.00 0.00 0.00 0.00 0.00 0.00 0.00 0.00 0.00 0.00 0.00 0.00 0.01 0.01 0.00 0.00 0.00 0.00 0.00 0.00 0.00
0.12 0.04 0.03 0.03 0.02 0.01 0.00 0.00 0.00 0.01 0.01 0.01 0.00 0.00 0.00 0.00 0.00 0.00 0.00 0.00 0.00 0.00 0.00 0.00 0.00 0.00 0.00 0.00 0.00 0.00 0.00 0.00 0.00 0.00 0.00 0.00 0.00 0.00 0.00 0.00 0.00 0.01 0.00 0.00
0.11 0.05 0.03 0.02 0.01 0.01 0.01 0.01 0.02 0.02 0.04 0.05 0.01 0.00 0.00 0.00 0.00 0.00 0.00 0.00 0.00 0.00 0.00 0.00 0.00 0.00 0.00 0.00 0.00 0.00 0.00 0.00 0.00 0.00 0.00 0.00 0.01 0.01 0.00 0.01 0.01 0.01 0.01 0.01
0.17 0.10 0.05 0.02 0.02 0.03 0.04 0.07 0.11 0.11 0.11 0.06 0.01 0.00 0.00 0.00 0.00 0.00 0.00 0.00 0.00 0.00 0.00 0.00 0.00 0.00 0.00 0.00 0.00 0.00 0.00 0.00 0.00 0.00 0.00 0.00 0.01 0.01 0.01 0.01 0.01 0.01 0.01 0.01
0.18 0.13 0.07 0.04 0.03 0.03 0.04 0.06 0.08 0.07 0.04 0.01 0.00 0.00 0.00 0.00 0.00 0.00 0.00 0.00 0.00 0.00 0.00 0.00 0.00 0.00 0.00 0.00 0.00 0.00 0.00 0.00 0.00 0.00 0.00 0.00 0.00 0.01 0.01 0.01 0.01 0.01 0.01 0.01
0.15 0.09 0.04 0.03 0.02 0.02 0.02 0.03 0.02 0.02 0.01 0.01 0.00 0.00 0.00 0.00 0.00 0.00 0.00 0.00 0.00 0.00 0.00 0.00 0.00 0.00 0.00 0.00 0.00 0.00 0.00 0.00 0.00 0.00 0.00 0.00 0.00 0.00 0.00 0.00 0.01 0.01 0.01 0.01
0.18 0.11 0.04 0.03 0.04 0.04 0.03 0.03 0.05 0.06 0.05 0.02 0.01 0.00 0.00 0.00 0.00 0.00 0.00 0.00 0.00 0.00 0.00 0.00 0.00 0.00 0.00 0.00 0.00 0.00 0.00 0.00 0.00 0.00 0.00 0.00 0.00 0.00 0.00 0.01 0.01 0.01 0.01 0.01
0.20 0.17 0.09 0.06 0.09 0.08 0.05 0.05 0.07 0.08 0.04 0.01 0.00 0.00 0.00 0.00 0.00 0.00 0.00 0.00 0.00 0.00 0.00 0.00 0.00 0.00 0.00 0.00 0.00 0.00 0.00 0.00 0.00 0.00 0.00 0.00 0.00 0.00 0.00 0.00 0.00 0.01 0.01 0.01
0.25 0.22 0.15 0.08 0.05 0.04 0.05 0.04 0.05 0.07 0.05 0.01 0.00 0.00 0.00 0.00 0.00 0.00 0.00 0.00 0.00 0.00 0.00 0.00 0.00 0.00 0.00 0.00 0.00 0.00 0.00 0.00 0.00 0.00 0.00 0.00 0.00 0.00 0.00 0.00 0.00 0.00 0.01 0.01
0.36 0.39 0.31 0.21 0.12 0.08 0.09 0.08 0.05 0.04 0.03 0.02 0.01 0.00 0.00 0.00 0.00 0.00 0.00 0.00 0.00 0.00 0.00 0.00 0.00 0.00 0.00 0.00 0.00 0.00 0.00 0.00 0.00 0.00 0.00 0.00 0.00 0.00 0.00 0.00 0.00 0.00 0.01 0.01
0.34 0.40 0.31 0.21 0.13 0.09 0.09 0.07 0.07 0.06 0.05 0.02 0.01 0.00 0.00 0.00 0.00 0.00 0.00 0.00 0.00 0.00 0.00 0.00 0.00 0.00 0.00 0.00 0.00 0.00 0.00 0.00 0.00 0.00 0.00 0.00 0.00 0.00 0.00 0.00 0.00 0.00 0.01 0.01
0.31 0.32 0.17 0.08 0.04 0.04 0.04 0.03 0.03 0.05 0.04 0.02 0.00 0.00 0.00 0.00 0.00 0.00 0.00 0.00 0.00 0.00 0.00 0.00 0.00 0.00 0.00 0.00 0.00 0.00 0.00 0.00 0.00 0.00 0.00 0.00 0.00 0.00 0.00 0.00 0.00 0.00 0.01 0.01
0.35 0.30 0.14 0.06 0.03 0.03 0.03 0.02 0.01 0.02 0.02 0.01 0.00 0.00 0.00 0.00 0.00 0.00 0.00 0.00 0.00 0.00 0.00 0.00 0.00 0.00 0.00 0.00 0.00 0.00 0.00 0.00 0.00 0.00 0.00 0.00 0.00 0.00 0.00 0.00 0.00 0.01 0.01 0.01
0.36 0.32 0.21 0.10 0.04 0.08 0.07 0.02 0.01 0.01 0.01 0.00 0.00 0.00 0.00 0.00 0.00 0.00 0.00 0.00 0.00 0.00 0.00 0.00 0.00 0.00 0.00 0.00 0.00 0.00 0.00 0.00 0.00 0.00 0.00 0.00 0.00 0.00 0.00 0.00 0.01 0.01 0.01 0.02
0.27 0.28 0.29 0.17 0.14 0.25 0.08 0.00 0.00 0.00 0.00 0.00 0.00 0.00 0.00 0.00 0.00 0.00 0.00 0.00 0.00 0.00 0.00 0.00 0.00 0.00 0.00 0.00 0.00 0.00 0.00 0.00 0.00 0.00 0.00 0.00 0.00 0.00 0.00 0.00 0.01 0.01 0.02 0.02
0.12 0.21 0.31 0.27 0.23 0.14 0.02 0.00 0.00 0.00 0.00 0.00 0.00 0.00 0.00 0.00 0.00 0.00 0.00 0.00 0.00 0.00 0.00 0.00 0.00 0.00 0.00 0.00 0.00 0.00 0.00 0.00 0.00 0.00 0.00 0.00 0.00 0.00 0.00 0.01 0.01 0.02 0.03 0.02
0.10 0.18 0.31 0.28 0.23 0.09 0.02 0.01 0.01 0.00 0.01 0.00 0.00 0.00 0.00 0.00 0.00 0.00 0.00 0.00 0.00 0.00 0.00 0.00 0.00 0.00 0.00 0.00 0.00 0.00 0.00 0.00 0.00 0.00 0.00 0.00 0.00 0.00 0.01 0.01 0.02 0.02 0.02 0.02
0.21 0.30 0.34 0.24 0.14 0.04 0.01 0.01 0.01 0.03 0.02 0.01 0.00 0.00 0.00 0.00 0.00 0.00 0.00 0.00 0.00 0.00 0.00 0.00 0.00 0.00 0.00 0.00 0.00 0.00 0.00 0.00 0.00 0.00 0.00 0.00 0.00 0.00 0.01 0.02 0.02 0.02 0.03 0.03
0.19 0.25 0.23 0.17 0.11 0.03 0.01 0.01 0.03 0.04 0.02 0.01 0.00 0.00 0.00 0.00 0.00 0.00 0.00 0.00 0.00 0.00 0.00 0.00 0.00 0.00 0.00 0.00 0.00 0.00 0.00 0.00 0.00 0.00 0.00 0.00 0.00 0.01 0.02 0.03 0.03 0.03 0.03 0.03
0.13 0.15 0.14 0.11 0.05 0.02 0.02 0.03 0.03 0.03 0.02 0.01 0.01 0.00 0.00 0.00 0.00 0.00 0.00 0.00 0.00 0.00 0.00 0.00 0.00 0.00 0.00 0.00 0.00 0.00 0.00 0.00 0.00 0.00 0.00 0.00 0.01 0.01 0.03 0.03 0.04 0.04 0.04 0.06
0.09 0.09 0.11 0.08 0.03 0.02 0.02 0.02 0.03 0.02 0.01 0.01 0.01 0.00 0.00 0.00 0.00 0.00 0.00 0.00 0.00 0.00 0.00 0.00 0.00 0.00 0.00 0.00 0.00 0.00 0.00 0.00 0.00 0.00 0.00 0.01 0.01 0.02 0.03 0.04 0.04 0.05 0.08 0.15
0.08 0.09 0.10 0.06 0.01 0.01 0.01 0.01 0.02 0.01 0.01 0.01 0.01 0.00 0.00 0.00 0.00 0.00 0.00 0.00 0.00 0.00 0.00 0.00 0.00 0.00 0.00 0.00 0.00 0.00 0.00 0.00 0.00 0.00 0.01 0.01 0.02 0.03 0.04 0.04 0.04 0.06 0.07 0.17
0.04 0.04 0.05 0.03 0.01 0.01 0.01 0.01 0.01 0.01 0.01 0.01 0.01 0.01 0.00 0.00 0.00 0.00 0.00 0.00 0.00 0.00 0.00 0.00 0.00 0.00 0.00 0.00 0.00 0.00 0.00 0.00 0.00 0.00 0.01 0.02 0.03 0.04 0.04 0.05 0.04 0.05 0.05 0.08

GEFSCGP_prec_meanprecacc_120.txt.gz
Total_Precipitation_Accumulation
0.22 0.25 0.21 0.12 0.07 0.04 0.01 0.01 0.00 0.00 0.00 0.00 0.00 0.00 0.00 0.00 0.00 0.00 0.00 0.00 0.00 0.00 0.00 0.00 0.00 0.00 0.00 0.00 0.00 0.00 0.00 0.00 0.01 0.01 0.02 0.02 0.02 0.01 0.01 0.01 0.01 0.01 0.01 0.00
0.29 0.22 0.10 0.06 0.04 0.03 0.02 0.02 0.01 0.00 0.00 0.00 0.00 0.00 0.00 0.00 0.00 0.00 0.00 0.00 0.00 0.00 0.00 0.00 0.00 0.00 0.00 0.00 0.00 0.00 0.00 0.00 0.00 0.00 0.01 0.01 0.01 0.01 0.01 0.01 0.00 0.00 0.00 0.00
0.26 0.14 0.05 0.06 0.09 0.08 0.05 0.02 0.01 0.01 0.01 0.00 0.00 0.00 0.00 0.00 0.00 0.00 0.00 0.00 0.00 0.00 0.00 0.00 0.00 0.00 0.00 0.00 0.00 0.00 0.00 0.00 0.00 0.00 0.01 0.01 0.01 0.01 0.01 0.01 0.01 0.01 0.01 0.01
0.21 0.10 0.08 0.10 0.11 0.11 0.08 0.03 0.01 0.01 0.01 0.01 0.01 0.01 0.00 0.00 0.00 0.00 0.00 0.00 0.00 0.00 0.00 0.00 0.00 0.00 0.00 0.00 0.00 0.00 0.00 0.00 0.00 0.00 0.01 0.01 0.01 0.01 0.00 0.00 0.01 0.01 0.01 0.01
0.26 0.11 0.09 0.12 0.08 0.07 0.07 0.04 0.02 0.02 0.02 0.02 0.01 0.01 0.00 0.00 0.00 0.00 0.00 0.00 0.00 0.00 0.00 0.00 0.00 0.00 0.00 0.00 0.00 0.00 0.00 0.00 0.00 0.00 0.00 0.01 0.01 0.01 0.00 0.00 0.01 0.01 0.01 0.01
0.22 0.13 0.10 0.07 0.05 0.06 0.07 0.07 0.09 0.08 0.11 0.12 0.02 0.01 0.00 0.00 0.00 0.00 0.00 0.00 0.00 0.00 0.00 0.00 0.00 0.00 0.00 0.00 0.00 0.00 0.00 0.00 0.00 0.00 0.00 0.01 0.01 0.01 0.01 0.01 0.01 0.01 0.01 0.01
0.31 0.20 0.15 0.09 0.10 0.14 0.18 0.23 0.33 0.33 0.29 0.15 0.02 0.00 0.00 0.00 0.00 0.00 0.00 0.00 0.00 0.00 0.00 0.00 0.00 0.00 0.00 0.00 0.00 0.00 0.00 0.00 0.00 0.00 0.00 0.01 0.01 0.01 0.01 0.01 0.01 0.01 0.01 0.01
0.33 0.24 0.16 0.12 0.12 0.16 0.18 0.21 0.25 0.21 0.12 0.03 0.00 0.01 0.00 0.00 0.00 0.00 0.00 0.00 0.00 0.00 0.00 0.00 0.00 0.00 0.00 0.00 0.00 0.00 0.00 0.00 0.00 0.00 0.00 0.00 0.01 0.01 0.01 0.01 0.01 0.01 0.01 0.01
0.31 0.17 0.08 0.08 0.07 0.07 0.10 0.13 0.09 0.08 0.05 0.03 0.01 0.00 0.00 0.00 0.00 0.00 0.00 0.00 0.00 0.00 0.00 0.00 0.00 0.00 0.00 0.00 0.00 0.00 0.00 0.00 0.00 0.00 0.00 0.00 0.00 0.01 0.01 0.01 0.01 0.01 0.01 0.01
0.36 0.24 0.10 0.08 0.11 0.12 0.10 0.11 0.15 0.18 0.13 0.05 0.02 0.00 0.00 0.00 0.00 0.00 0.00 0.00 0.00 0.00 0.00 0.00 0.00 0.00 0.00 0.00 0.00 0.00 0.00 0.00 0.00 0.00 0.00 0.00 0.00 0.00 0.01 0.01 0.01 0.01 0.01 0.01
0.34 0.32 0.19 0.16 0.21 0.20 0.14 0.16 0.22 0.21 0.12 0.04 0.01 0.00 0.00 0.00 0.00 0.00 0.00 0.00 0.00 0.00 0.00 0.00 0.00 0.00 0.00 0.00 0.00 0.00 0.00 0.00 0.00 0.00 0.00 0.00 0.00 0.00 0.00 0.01 0.01 0.01 0.01 0.01
0.35 0.35 0.26 0.17 0.14 0.14 0.16 0.15 0.14 0.15 0.12 0.03 0.01 0.00 0.00 0.00 0.00 0.00 0.00 0.00 0.00 0.00 0.00 0.00 0.00 0.00 0.00 0.00 0.00 0.00 0.00 0.00 0.00 0.00 0.00 0.00 0.00 0.00 0.00 0.00 0.01 0.01 0.01 0.01
0.48 0.53 0.45 0.33 0.25 0.23 0.27 0.24 0.17 0.11 0.08 0.04 0.02 0.00 0.00 0.00 0.00 0.00 0.00 0.00 0.00 0.00 0.00 0.00 0.00 0.00 0.00 0.00 0.00 0.00 0.00 0.00 0.00 0.00 0.00 0.00 0.00 0.00 0.00 0.00 0.00 0.00 0.01 0.01
0.48 0.54 0.43 0.34 0.26 0.24 0.24 0.20 0.20 0.18 0.14 0.07 0.02 0.00 0.00 0.00 0.00 0.00 0.00 0.00 0.00 0.00 0.00 0.00 0.00 0.00 0.00 0.00 0.00 0.00 0.00 0.00 0.00 0.00 0.00 0.00 0.00 0.00 0.00 0.00 0.00 0.00 0.01 0.01
0.45 0.44 0.25 0.13 0.07 0.08 0.09 0.08 0.09 0.13 0.11 0.05 0.01 0.00 0.00 0.00 0.00 0.00 0.00 0.00 0.00 0.00 0.00 0.00 0.00 0.00 0.00 0.00 0.00 0.00 0.00 0.00 0.00 0.00 0.00 0.00 0.00 0.00 0.00 0.00 0.00 0.00 0.01 0.01
0.51 0.42 0.20 0.09 0.05 0.05 0.06 0.04 0.04 0.05 0.04 0.02 0.01 0.00 0.00 0.00 0.00 0.00 0.00 0.00 0.00 0.00 0.00 0.00 0.00 0.00 0.00 0.00 0.00 0.00 0.00 0.00 0.00 0.00 0.00 0.00 0.00 0.00 0.00 0.00 0.00 0.01 0.01 0.01
0.52 0.46 0.30 0.15 0.07 0.12 0.11 0.03 0.02 0.02 0.01 0.01 0.00 0.00 0.00 0.00 0.00 0.00 0.00 0.00 0.00 0.00 0.00 0.00 0.00 0.00 0.00 0.00 0.00 0.00 0.00 0.00 0.00 0.00 0.00 0.00 0.00 0.00 0.00 0.00 0.01 0.01 0.01 0.02
0.35 0.39 0.40 0.24 0.19 0.33 0.11 0.01 0.01 0.01 0.01 0.01 0.01 0.01 0.00 0.00 0.00 0.00 0.00 0.00 0.00 0.00 0.00 0.00 0.00 0.00 0.00 0.00 0.00 0.00 0.00 0.00 0.00 0.00 0.00 0.00 0.00 0.00 0.00 0.01 0.01 0.01 0.02 0.02
0.15 0.28 0.44 0.38 0.31 0.19 0.04 0.01 0.01 0.02 0.02 0.02 0.01 0.01 0.01 0.00 0.00 0.00 0.00 0.00 0.00 0.00 0.00 0.00 0.00 0.00 0.00 0.00 0.00 0.00 0.00 0.00 0.00 0.00 0.00 0.00 0.00 0.00 0.00 0.01 0.01 0.02 0.03 0.03
0.13 0.24 0.44 0.39 0.31 0.12 0.03 0.02 0.01 0.02 0.04 0.03 0.02 0.01 0.01 0.01 0.00 0.00 0.00 0.00 0.00 0.00 0.00 0.00 0.00 0.00 0.00 0.00 0.00 0.00 0.00 0.00 0.00 0.00 0.00 0.00 0.00 0.00 0.01 0.01 0.02 0.02 0.02 0.03
0.29 0.42 0.47 0.33 0.20 0.06 0.02 0.02 0.03 0.06 0.07 0.03 0.02 0.01 0.01 0.01 0.00 0.00 0.00 0.00 0.00 0.00 0.00 0.00 0.00 0.00 0.00 0.00 0.00 0.00 0.00 0.00 0.00 0.00 0.00 0.00 0.00 0.00 0.01 0.02 0.03 0.03 0.03 0.03
0.26 0.34 0.31 0.23 0.17 0.05 0.02 0.04 0.08 0.09 0.04 0.03 0.01 0.01 0.01 0.01 0.00 0.00 0.00 0.00 0.00 0.00 0.00 0.00 0.00 0.00 0.00 0.00 0.00 0.00 0.00 0.00 0.00 0.00 0.00 0.00 0.00 0.01 0.02 0.03 0.03 0.03 0.03 0.03
0.19 0.21 0.20 0.16 0.08 0.03 0.03 0.05 0.06 0.05 0.03 0.02 0.01 0.01 0.00 0.00 0.00 0.00 0.00 0.00 0.00 0.00 0.00 0.00 0.00 0.00 0.00 0.00 0.00 0.00 0.00 0.00 0.00 0.00 0.00 0.00 0.01 0.01 0.03 0.04 0.04 0.04 0.05 0.06
0.13 0.13 0.16 0.11 0.04 0.02 0.02 0.03 0.04 0.03 0.02 0.02 0.01 0.01 0.01 0.00 0.00 0.00 0.00 0.00 0.00 0.00 0.00 0.00 0.00 0.00 0.00 0.00 0.00 0.00 0.00 0.00 0.00 0.00 0.00 0.01 0.01 0.02 0.03 0.04 0.04 0.05 0.08 0.15
0.10 0.12 0.13 0.10 0.03 0.02 0.02 0.02 0.03 0.03 0.02 0.02 0.02 0.01 0.01 0.00 0.00 0.00 0.00 0.00 0.00 0.00 0.00 0.00 0.00 0.00 0.00 0.00 0.00 0.00 0.00 0.00 0.00 0.00 0.01 0.01 0.02 0.03 0.04 0.04 0.04 0.06 0.07 0.17
0.06 0.06 0.07 0.06 0.04 0.03 0.03 0.02 0.02 0.02 0.02 0.02 0.02 0.01 0.01 0.00 0.00 0.00 0.00 0.00 0.00 0.00 0.00 0.00 0.00 0.00 0.00 0.00 0.00 0.00 0.00 0.00 0.00 0.00 0.01 0.02 0.03 0.04 0.05 0.05 0.04 0.05 0.05 0.08

GEFSCGP_prec_meanprecacc_126.txt.gz
Total_Precipitation_Accumulation
0.31 0.38 0.35 0.23 0.15 0.09 0.05 0.03 0.02 0.01 0.00 0.00 0.00 0.00 0.00 0.00 0.00 0.00 0.00 0.00 0.00 0.00 0.00 0.00 0.00 0.00 0.00 0.00 0.00 0.00 0.00 0.00 0.01 0.01 0.02 0.02 0.02 0.01 0.01 0.01 0.01 0.01 0.01 0.00
0.40 0.31 0.17 0.11 0.09 0.08 0.08 0.07 0.05 0.03 0.01 0.01 0.01 0.00 0.00 0.00 0.00 0.00 0.00 0.00 0.00 0.00 0.00 0.00 0.00 0.00 0.00 0.00 0.00 0.00 0.00 0.00 0.00 0.01 0.01 0.01 0.01 0.01 0.01 0.01 0.01 0.00 0.01 0.00
0.35 0.20 0.08 0.11 0.15 0.16 0.13 0.08 0.05 0.04 0.03 0.03 0.02 0.01 0.00 0.00 0.00 0.00 0.00 0.00 0.00 0.00 0.00 0.00 0.00 0.00 0.00 0.00 0.00 0.00 0.00 0.00 0.00 0.00 0.01 0.01 0.01 0.01 0.01 0.01 0.01 0.01 0.01 0.01
0.29 0.14 0.13 0.17 0.17 0.18 0.17 0.08 0.05 0.05 0.07 0.07 0.04 0.04 0.01 0.00 0.00 0.00 0.00 0.00 0.00 0.00 0.00 0.00 0.00 0.00 0.00 0.00 0.00 0.00 0.00 0.00 0.00 0.00 0.01 0.01 0.01 0.01 0.01 0.00 0.01 0.01 0.01 0.01
0.35 0.16 0.14 0.19 0.14 0.13 0.12 0.08 0.08 0.09 0.10 0.09 0.06 0.06 0.02 0.00 0.00 0.00 0.00 0.00 0.00 0.00 0.00 0.00 0.00 0.00 0.00 0.00 0.00 0.00 0.00 0.00 0.00 0.00 0.00 0.01 0.01 0.01 0.00 0.01 0.01 0.01 0.01 0.01
0.29 0.18 0.15 0.12 0.09 0.10 0.13 0.15 0.19 0.20 0.26 0.26 0.07 0.04 0.02 0.00 0.00 0.00 0.00 0.00 0.00 0.00 0.00 0.00 0.00 0.00 0.00 0.00 0.00 0.00 0.00 0.00 0.00 0.00 0.01 0.01 0.01 0.01 0.01 0.01 0.01 0.01 0.01 0.01
0.40 0.27 0.21 0.15 0.16 0.23 0.30 0.40 0.57 0.58 0.54 0.29 0.04 0.02 0.01 0.00 0.00 0.00 0.00 0.00 0.00 0.00 0.00 0.00 0.00 0.00 0.00 0.00 0.00 0.00 0.00 0.00 0.00 0.00 0.00 0.01 0.01 0.01 0.01 0.01 0.02 0.02 0.02 0.01
0.43 0.31 0.22 0.19 0.21 0.27 0.31 0.36 0.43 0.36 0.21 0.06 0.01 0.02 0.01 0.00 0.00 0.00 0.00 0.00 0.00 0.00 0.00 0.00 0.00 0.00 0.00 0.00 0.00 0.00 0.00 0.00 0.00 0.00 0.00 0.00 0.01 0.01 0.01 0.01 0.01 0.01 0.02 0.02
0.41 0.22 0.11 0.13 0.13 0.13 0.18 0.22 0.19 0.19 0.12 0.06 0.03 0.01 0.00 0.00 0.00 0.00 0.00 0.00 0.00 0.00 0.00 0.00 0.00 0.00 0.00 0.00 0.00 0.00 0.00 0.00 0.00 0.00 0.00 0.00 0.01 0.01 0.01 0.01 0.01 0.01 0.01 0.01
0.48 0.32 0.13 0.13 0.20 0.20 0.18 0.18 0.25 0.33 0.25 0.12 0.05 0.01 0.00 0.00 0.00 0.00 0.00 0.00 0.00 0.00 0.00 0.00 0.00 0.00 0.00 0.00 0.00 0.00 0.00 0.00 0.00 0.00 0.00 0.00 0.00 0.01 0.01 0.01 0.01 0.01 0.01 0.01
0.44 0.42 0.27 0.25 0.33 0.32 0.25 0.29 0.36 0.36 0.20 0.10 0.05 0.01 0.00 0.00 0.00 0.00 0.00 0.00 0.00 0.00 0.00 0.00 0.00 0.00 0.00 0.00 0.00 0.00 0.00 0.00 0.00 0.00 0.00 0.00 0.00 0.00 0.01 0.01 0.01 0.01 0.01 0.01
0.45 0.47 0.37 0.25 0.22 0.22 0.26 0.26 0.27 0.29 0.22 0.07 0.04 0.02 0.00 0.00 0.00 0.00 0.00 0.00 0.00 0.00 0.00 0.00 0.00 0.00 0.00 0.00 0.00 0.00 0.00 0.00 0.00 0.00 0.00 0.00 0.00 0.00 0.00 0.01 0.01 0.01 0.01 0.01
0.60 0.68 0.58 0.45 0.37 0.35 0.41 0.36 0.28 0.21 0.15 0.09 0.04 0.01 0.00 0.00 0.00 0.00 0.00 0.00 0.00 0.00 0.00 0.00 0.00 0.00 0.00 0.00 0.00 0.00 0.00 0.00 0.00 0.00 0.00 0.00 0.00 0.00 0.00 0.00 0.00 0.01 0.01 0.01
0.59 0.66 0.55 0.48 0.37 0.33 0.33 0.27 0.27 0.28 0.24 0.11 0.03 0.01 0.01 0.01 0.00 0.00 0.00 0.00 0.00 0.00 0.00 0.00 0.00 0.00 0.00 0.00 0.00 0.00 0.00 0.00 0.00 0.00 0.00 0.00 0.00 0.00 0.00 0.00 0.00 0.00 0.01 0.01
0.53 0.52 0.30 0.18 0.13 0.11 0.12 0.11 0.13 0.19 0.17 0.08 0.02 0.01 0.01 0.01 0.01 0.01 0.01 0.00 0.00 0.00 0.00 0.00 0.00 0.00 0.00 0.00 0.00 0.00 0.00 0.00 0.00 0.00 0.00 0.00 0.00 0.00 0.00 0.00 0.00 0.01 0.01 0.01
0.60 0.50 0.24 0.13 0.09 0.09 0.08 0.06 0.06 0.07 0.06 0.04 0.02 0.01 0.01 0.01 0.01 0.01 0.01 0.01 0.00 0.00 0.00 0.00 0.00 0.00 0.00 0.00 0.00 0.00 0.00 0.00 0.00 0.00 0.00 0.00 0.00 0.00 0.00 0.01 0.01 0.01 0.01 0.01
0.57 0.53 0.37 0.20 0.10 0.16 0.15 0.05 0.04 0.04 0.03 0.03 0.02 0.01 0.01 0.01 0.01 0.02 0.01 0.01 0.00 0.00 0.00 0.00 0.00 0.00 0.00 0.00 0.00 0.00 0.00 0.00 0.00 0.00 0.00 0.00 0.00 0.00 0.00 0.01 0.01 0.01 0.02 0.02
0.37 0.43 0.48 0.30 0.24 0.38 0.14 0.03 0.02 0.03 0.03 0.03 0.03 0.02 0.01 0.00 0.00 0.01 0.02 0.01 0.00 0.00 0.00 0.00 0.00 0.00 0.00 0.00 0.00 0.00 0.00 0.00 0.00 0.00 0.00 0.00 0.00 0.00 0.01 0.01 0.01 0.02 0.02 0.02
0.16 0.32 0.51 0.45 0.36 0.21 0.05 0.03 0.03 0.05 0.06 0.05 0.04 0.03 0.01 0.00 0.00 0.01 0.01 0.01 0.01 0.01 0.00 0.00 0.00 0.00 0.00 0.00 0.00 0.00 0.00 0.00 0.00 0.00 0.00 0.00 0.00 0.00 0.01 0.01 0.01 0.02 0.03 0.03
0.14 0.27 0.50 0.46 0.36 0.15 0.06 0.03 0.03 0.06 0.10 0.06 0.04 0.04 0.02 0.01 0.01 0.01 0.00 0.00 0.00 0.01 0.01 0.00 0.00 0.00 0.00 0.00 0.00 0.00 0.00 0.00 0.00 0.00 0.00 0.00 0.00 0.00 0.01 0.01 0.02 0.02 0.02 0.03
0.34 0.47 0.53 0.38 0.25 0.08 0.04 0.04 0.06 0.12 0.13 0.06 0.04 0.04 0.03 0.02 0.01 0.01 0.00 0.00 0.00 0.00 0.01 0.01 0.00 0.00 0.00 0.00 0.00 0.00 0.00 0.00 0.00 0.00 0.00 0.00 0.00 0.01 0.01 0.02 0.03 0.03 0.03 0.03
0.33 0.40 0.36 0.27 0.21 0.08 0.05 0.07 0.13 0.14 0.07 0.04 0.03 0.03 0.03 0.02 0.01 0.00 0.00 0.00 0.00 0.00 0.01 0.01 0.00 0.00 0.00 0.00 0.00 0.00 0.00 0.00 0.00 0.00 0.00 0.00 0.00 0.01 0.02 0.03 0.03 0.03 0.03 0.03
0.23 0.26 0.26 0.21 0.12 0.06 0.06 0.09 0.10 0.07 0.04 0.03 0.02 0.02 0.02 0.02 0.01 0.00 0.00 0.00 0.00 0.00 0.00 0.00 0.01 0.01 0.00 0.00 0.00 0.00 0.00 0.00 0.00 0.00 0.00 0.00 0.01 0.02 0.03 0.04 0.04 0.04 0.05 0.06
0.14 0.15 0.19 0.15 0.07 0.04 0.05 0.07 0.08 0.05 0.03 0.03 0.02 0.02 0.02 0.02 0.01 0.00 0.00 0.00 0.00 0.00 0.00 0.00 0.01 0.01 0.01 0.00 0.00 0.00 0.00 0.00 0.00 0.00 0.01 0.01 0.02 0.03 0.03 0.04 0.04 0.05 0.08 0.15
0.11 0.13 0.15 0.12 0.05 0.04 0.04 0.04 0.05 0.04 0.03 0.03 0.02 0.02 0.02 0.01 0.01 0.01 0.00 0.00 0.00 0.00 0.00 0.00 0.00 0.01 0.01 0.00 0.00 0.00 0.00 0.00 0.01 0.01 0.01 0.01 0.02 0.03 0.04 0.05 0.04 0.06 0.07 0.17
0.06 0.07 0.08 0.07 0.04 0.04 0.04 0.03 0.03 0.03 0.03 0.03 0.03 0.02 0.02 0.01 0.01 0.01 0.00 0.00 0.00 0.00 0.01 0.00 0.00 0.01 0.01 0.01 0.00 0.00 0.00 0.00 0.01 0.01 0.01 0.02 0.03 0.04 0.05 0.05 0.05 0.05 0.06 0.08

GEFSCGP_prec_meanprecacc_132.txt.gz
Total_Precipitation_Accumulation
0.39 0.47 0.47 0.34 0.26 0.17 0.09 0.07 0.05 0.03 0.03 0.03 0.03 0.02 0.00 0.00 0.00 0.00 0.00 0.00 0.00 0.00 0.00 0.00 0.00 0.00 0.01 0.01 0.01 0.01 0.01 0.01 0.01 0.02 0.02 0.02 0.02 0.02 0.01 0.01 0.01 0.01 0.01 0.00
0.50 0.38 0.23 0.17 0.18 0.19 0.16 0.13 0.09 0.05 0.05 0.06 0.05 0.02 0.01 0.00 0.00 0.00 0.00 0.00 0.00 0.00 0.00 0.00 0.00 0.00 0.00 0.00 0.01 0.01 0.01 0.01 0.01 0.01 0.01 0.01 0.01 0.01 0.01 0.01 0.01 0.00 0.01 0.00
0.43 0.23 0.12 0.18 0.25 0.31 0.26 0.16 0.09 0.07 0.07 0.09 0.08 0.05 0.01 0.00 0.00 0.00 0.00 0.00 0.00 0.00 0.00 0.00 0.00 0.00 0.00 0.00 0.00 0.00 0.00 0.00 0.01 0.01 0.01 0.01 0.02 0.02 0.01 0.01 0.01 0.01 0.01 0.01
0.35 0.18 0.17 0.24 0.27 0.29 0.28 0.14 0.09 0.10 0.14 0.16 0.12 0.10 0.02 0.00 0.00 0.00 0.00 0.00 0.00 0.00 0.00 0.00 0.00 0.00 0.00 0.00 0.00 0.00 0.01 0.00 0.01 0.01 0.01 0.01 0.01 0.01 0.01 0.00 0.01 0.01 0.01 0.01
0.40 0.20 0.19 0.26 0.21 0.20 0.21 0.15 0.15 0.16 0.18 0.19 0.13 0.13 0.04 0.00 0.00 0.00 0.00 0.00 0.00 0.00 0.00 0.00 0.00 0.00 0.00 0.00 0.00 0.00 0.01 0.01 0.01 0.01 0.01 0.01 0.01 0.01 0.00 0.01 0.01 0.01 0.01 0.01
0.33 0.22 0.20 0.17 0.14 0.16 0.19 0.22 0.28 0.30 0.40 0.41 0.13 0.09 0.04 0.00 0.00 0.00 0.00 0.00 0.00 0.00 0.00 0.00 0.00 0.00 0.00 0.00 0.00 0.00 0.01 0.01 0.01 0.01 0.01 0.01 0.01 0.01 0.01 0.01 0.01 0.01 0.01 0.01
0.43 0.31 0.25 0.18 0.21 0.29 0.38 0.53 0.77 0.78 0.71 0.38 0.06 0.05 0.03 0.00 0.00 0.00 0.00 0.00 0.00 0.00 0.00 0.00 0.00 0.00 0.00 0.00 0.00 0.00 0.00 0.01 0.00 0.01 0.01 0.01 0.01 0.01 0.01 0.01 0.02 0.02 0.02 0.01
0.48 0.35 0.27 0.23 0.26 0.33 0.37 0.46 0.56 0.49 0.29 0.09 0.02 0.03 0.01 0.00 0.00 0.00 0.00 0.00 0.00 0.00 0.00 0.00 0.00 0.00 0.00 0.00 0.00 0.00 0.01 0.01 0.00 0.01 0.00 0.01 0.01 0.01 0.01 0.01 0.01 0.02 0.02 0.02
0.46 0.26 0.14 0.15 0.15 0.16 0.24 0.28 0.25 0.29 0.18 0.09 0.05 0.02 0.00 0.00 0.00 0.00 0.00 0.00 0.00 0.00 0.00 0.00 0.00 0.00 0.00 0.00 0.00 0.00 0.01 0.01 0.01 0.01 0.00 0.01 0.01 0.01 0.01 0.01 0.01 0.01 0.01 0.01
0.55 0.37 0.16 0.16 0.23 0.24 0.23 0.25 0.33 0.44 0.34 0.16 0.06 0.02 0.01 0.01 0.00 0.00 0.00 0.00 0.00 0.00 0.00 0.00 0.00 0.00 0.00 0.00 0.00 0.00 0.00 0.01 0.01 0.01 0.01 0.01 0.01 0.01 0.01 0.01 0.01 0.01 0.01 0.01
0.50 0.50 0.31 0.29 0.40 0.38 0.30 0.37 0.46 0.46 0.28 0.15 0.07 0.02 0.01 0.02 0.01 0.00 0.00 0.00 0.00 0.00 0.00 0.00 0.00 0.00 0.00 0.00 0.00 0.00 0.00 0.00 0.01 0.01 0.01 0.01 0.01 0.01 0.01 0.01 0.01 0.01 0.01 0.01
0.50 0.54 0.43 0.29 0.26 0.27 0.30 0.32 0.35 0.38 0.28 0.11 0.06 0.02 0.01 0.01 0.01 0.01 0.00 0.00 0.00 0.00 0.00 0.00 0.00 0.00 0.00 0.00 0.00 0.00 0.00 0.00 0.01 0.01 0.01 0.01 0.01 0.01 0.01 0.01 0.01 0.01 0.01 0.02
0.69 0.77 0.65 0.52 0.44 0.41 0.47 0.40 0.33 0.27 0.21 0.13 0.07 0.03 0.01 0.01 0.01 0.00 0.00 0.00 0.00 0.00 0.00 0.00 0.00 0.00 0.00 0.00 0.00 0.00 0.00 0.00 0.00 0.01 0.01 0.01 0.01 0.01 0.01 0.01 0.01 0.01 0.01 0.02
0.70 0.76 0.62 0.54 0.45 0.42 0.42 0.31 0.30 0.34 0.32 0.16 0.05 0.02 0.02 0.02 0.02 0.01 0.01 0.01 0.00 0.00 0.00 0.00 0.00 0.00 0.00 0.00 0.00 0.00 0.00 0.00 0.00 0.00 0.01 0.01 0.01 0.01 0.01 0.00 0.00 0.01 0.01 0.01
0.61 0.58 0.33 0.21 0.15 0.15 0.17 0.16 0.16 0.23 0.22 0.12 0.04 0.03 0.03 0.04 0.03 0.03 0.03 0.02 0.01 0.00 0.00 0.00 0.00 0.00 0.00 0.00 0.00 0.00 0.00 0.00 0.00 0.00 0.01 0.01 0.01 0.00 0.00 0.01 0.01 0.01 0.01 0.01
0.64 0.54 0.26 0.15 0.12 0.11 0.11 0.09 0.09 0.10 0.08 0.07 0.04 0.03 0.03 0.04 0.03 0.04 0.04 0.04 0.02 0.02 0.01 0.00 0.00 0.00 0.00 0.00 0.00 0.00 0.00 0.00 0.00 0.00 0.00 0.01 0.01 0.01 0.01 0.01 0.01 0.01 0.01 0.02
0.61 0.57 0.40 0.22 0.12 0.19 0.18 0.07 0.06 0.06 0.05 0.06 0.05 0.04 0.03 0.04 0.03 0.04 0.05 0.04 0.03 0.02 0.02 0.01 0.00 0.00 0.00 0.00 0.00 0.00 0.00 0.00 0.00 0.00 0.00 0.00 0.01 0.01 0.01 0.01 0.01 0.01 0.02 0.02
0.40 0.48 0.52 0.33 0.27 0.43 0.16 0.03 0.03 0.04 0.05 0.05 0.05 0.04 0.04 0.04 0.04 0.04 0.06 0.05 0.03 0.02 0.02 0.01 0.01 0.00 0.00 0.00 0.00 0.00 0.00 0.00 0.00 0.00 0.00 0.00 0.00 0.01 0.01 0.01 0.02 0.02 0.02 0.03
0.18 0.36 0.57 0.50 0.40 0.24 0.09 0.06 0.05 0.07 0.09 0.06 0.06 0.05 0.04 0.03 0.03 0.04 0.04 0.04 0.03 0.02 0.02 0.01 0.01 0.01 0.00 0.00 0.00 0.00 0.00 0.00 0.00 0.00 0.00 0.00 0.00 0.01 0.01 0.01 0.02 0.02 0.03 0.03
0.16 0.30 0.56 0.51 0.41 0.19 0.11 0.07 0.04 0.08 0.15 0.08 0.07 0.07 0.06 0.04 0.04 0.04 0.02 0.02 0.02 0.02 0.02 0.01 0.01 0.01 0.01 0.00 0.00 0.00 0.00 0.00 0.00 0.00 0.00 0.00 0.00 0.00 0.01 0.01 0.02 0.03 0.03 0.03
0.37 0.51 0.57 0.42 0.30 0.11 0.09 0.08 0.08 0.16 0.20 0.10 0.07 0.07 0.07 0.06 0.05 0.03 0.02 0.01 0.01 0.02 0.02 0.01 0.01 0.01 0.01 0.01 0.00 0.00 0.00 0.00 0.00 0.00 0.00 0.00 0.00 0.01 0.01 0.02 0.03 0.03 0.03 0.03
0.36 0.44 0.39 0.30 0.26 0.12 0.09 0.12 0.20 0.21 0.12 0.07 0.06 0.06 0.05 0.05 0.03 0.03 0.02 0.02 0.01 0.01 0.01 0.01 0.01 0.01 0.01 0.01 0.01 0.00 0.00 0.01 0.00 0.00 0.00 0.01 0.01 0.01 0.02 0.03 0.04 0.03 0.04 0.04
0.24 0.29 0.28 0.23 0.14 0.09 0.09 0.13 0.16 0.11 0.07 0.05 0.05 0.05 0.04 0.04 0.04 0.03 0.02 0.01 0.01 0.01 0.01 0.01 0.01 0.01 0.01 0.01 0.01 0.00 0.01 0.01 0.01 0.01 0.01 0.01 0.01 0.02 0.03 0.04 0.04 0.04 0.05 0.07
0.15 0.16 0.20 0.16 0.08 0.07 0.07 0.09 0.10 0.07 0.05 0.04 0.03 0.03 0.04 0.04 0.04 0.03 0.03 0.01 0.01 0.01 0.01 0.01 0.01 0.01 0.01 0.01 0.00 0.01 0.01 0.01 0.01 0.01 0.01 0.01 0.02 0.03 0.04 0.04 0.05 0.06 0.08 0.15
0.11 0.14 0.16 0.13 0.06 0.06 0.06 0.05 0.06 0.05 0.04 0.03 0.03 0.02 0.03 0.03 0.03 0.03 0.03 0.02 0.01 0.01 0.01 0.01 0.01 0.01 0.02 0.01 0.01 0.01 0.01 0.01 0.01 0.01 0.01 0.02 0.03 0.04 0.05 0.05 0.05 0.06 0.07 0.17
0.06 0.07 0.09 0.08 0.05 0.06 0.06 0.04 0.03 0.03 0.04 0.04 0.03 0.02 0.02 0.02 0.03 0.03 0.02 0.02 0.01 0.01 0.01 0.01 0.01 0.01 0.01 0.01 0.01 0.01 0.01 0.01 0.02 0.01 0.02 0.03 0.04 0.05 0.05 0.05 0.05 0.05 0.06 0.09

GEFSCGP_prec_meanprecacc_138.txt.gz
Total_Precipitation_Accumulation
0.45 0.55 0.55 0.42 0.36 0.28 0.20 0.15 0.10 0.06 0.06 0.08 0.09 0.06 0.03 0.01 0.01 0.01 0.01 0.00 0.01 0.00 0.00 0.01 0.01 0.02 0.03 0.07 0.09 0.09 0.07 0.05 0.05 0.04 0.04 0.04 0.03 0.02 0.01 0.01 0.01 0.01 0.01 0.00
0.56 0.45 0.28 0.22 0.25 0.31 0.29 0.24 0.15 0.09 0.08 0.10 0.09 0.05 0.03 0.02 0.01 0.01 0.01 0.00 0.00 0.01 0.00 0.01 0.02 0.02 0.03 0.04 0.05 0.08 0.08 0.05 0.04 0.03 0.02 0.02 0.02 0.02 0.01 0.01 0.01 0.00 0.01 0.00
0.48 0.28 0.17 0.25 0.32 0.39 0.36 0.27 0.16 0.11 0.11 0.13 0.13 0.08 0.02 0.01 0.01 0.01 0.00 0.00 0.00 0.00 0.00 0.01 0.01 0.01 0.01 0.02 0.04 0.05 0.06 0.06 0.04 0.04 0.03 0.03 0.03 0.03 0.02 0.01 0.01 0.01 0.01 0.01
0.39 0.21 0.21 0.31 0.35 0.36 0.35 0.20 0.15 0.15 0.20 0.23 0.17 0.16 0.03 0.01 0.01 0.00 0.00 0.00 0.00 0.00 0.00 0.00 0.01 0.01 0.01 0.01 0.02 0.04 0.06 0.06 0.06 0.05 0.03 0.02 0.02 0.01 0.01 0.01 0.01 0.01 0.01 0.01
0.43 0.23 0.23 0.31 0.26 0.25 0.26 0.18 0.20 0.23 0.28 0.28 0.19 0.18 0.05 0.01 0.00 0.00 0.00 0.00 0.00 0.00 0.00 0.00 0.01 0.01 0.00 0.01 0.01 0.03 0.06 0.06 0.07 0.07 0.04 0.03 0.01 0.01 0.01 0.01 0.01 0.01 0.01 0.01
0.35 0.24 0.23 0.20 0.17 0.19 0.23 0.27 0.33 0.37 0.50 0.52 0.16 0.12 0.05 0.00 0.00 0.00 0.00 0.00 0.00 0.00 0.00 0.01 0.01 0.01 0.01 0.01 0.01 0.02 0.05 0.06 0.06 0.08 0.07 0.04 0.03 0.02 0.01 0.01 0.01 0.01 0.01 0.01
0.45 0.32 0.27 0.21 0.26 0.33 0.42 0.60 0.87 0.88 0.83 0.45 0.07 0.06 0.04 0.00 0.00 0.00 0.00 0.00 0.00 0.00 0.00 0.00 0.01 0.01 0.01 0.01 0.01 0.01 0.03 0.05 0.05 0.06 0.07 0.06 0.04 0.03 0.02 0.02 0.02 0.02 0.02 0.01
0.50 0.37 0.27 0.24 0.30 0.40 0.42 0.52 0.65 0.57 0.35 0.11 0.03 0.04 0.02 0.00 0.00 0.00 0.00 0.00 0.00 0.00 0.00 0.00 0.01 0.01 0.01 0.01 0.01 0.01 0.02 0.04 0.04 0.04 0.04 0.06 0.05 0.03 0.03 0.02 0.03 0.02 0.02 0.02
0.50 0.28 0.15 0.16 0.16 0.21 0.30 0.34 0.30 0.36 0.22 0.12 0.06 0.02 0.01 0.00 0.00 0.00 0.00 0.00 0.00 0.00 0.00 0.00 0.00 0.00 0.01 0.01 0.01 0.01 0.02 0.04 0.04 0.03 0.03 0.05 0.05 0.04 0.03 0.02 0.02 0.02 0.02 0.02
0.60 0.40 0.17 0.17 0.24 0.26 0.27 0.32 0.41 0.53 0.41 0.19 0.07 0.02 0.02 0.02 0.01 0.01 0.00 0.00 0.00 0.00 0.00 0.00 0.00 0.00 0.00 0.00 0.01 0.01 0.01 0.03 0.04 0.04 0.03 0.04 0.05 0.04 0.03 0.03 0.02 0.02 0.02 0.02
0.54 0.53 0.33 0.31 0.42 0.40 0.32 0.41 0.53 0.53 0.34 0.20 0.09 0.03 0.04 0.04 0.03 0.02 0.01 0.00 0.00 0.00 0.00 0.00 0.00 0.00 0.00 0.00 0.01 0.01 0.01 0.02 0.03 0.03 0.03 0.04 0.04 0.05 0.04 0.03 0.02 0.02 0.02 0.02
0.53 0.58 0.45 0.31 0.28 0.28 0.33 0.35 0.40 0.45 0.34 0.15 0.09 0.04 0.02 0.02 0.02 0.02 0.01 0.01 0.01 0.00 0.00 0.00 0.00 0.00 0.00 0.00 0.00 0.00 0.01 0.02 0.02 0.02 0.02 0.03 0.04 0.05 0.04 0.03 0.02 0.02 0.02 0.02
0.75 0.85 0.69 0.53 0.45 0.42 0.48 0.42 0.36 0.32 0.27 0.17 0.11 0.04 0.01 0.01 0.01 0.01 0.01 0.01 0.01 0.01 0.00 0.00 0.00 0.00 0.00 0.00 0.00 0.00 0.01 0.01 0.02 0.01 0.02 0.03 0.04 0.04 0.03 0.03 0.02 0.02 0.03 0.03
0.77 0.84 0.66 0.57 0.47 0.44 0.44 0.32 0.31 0.39 0.38 0.19 0.07 0.04 0.03 0.03 0.02 0.02 0.02 0.02 0.01 0.01 0.01 0.00 0.00 0.00 0.00 0.00 0.00 0.00 0.00 0.01 0.01 0.01 0.01 0.02 0.03 0.02 0.02 0.02 0.03 0.02 0.03 0.03
0.65 0.62 0.34 0.21 0.16 0.16 0.18 0.17 0.17 0.26 0.25 0.15 0.06 0.06 0.06 0.06 0.05 0.05 0.06 0.04 0.02 0.02 0.01 0.01 0.00 0.00 0.00 0.00 0.00 0.01 0.00 0.01 0.01 0.01 0.01 0.01 0.02 0.02 0.02 0.02 0.02 0.03 0.03 0.02
0.67 0.57 0.27 0.16 0.12 0.12 0.12 0.10 0.11 0.12 0.10 0.08 0.05 0.05 0.05 0.06 0.06 0.06 0.07 0.06 0.04 0.04 0.02 0.01 0.01 0.01 0.00 0.00 0.00 0.01 0.01 0.01 0.01 0.01 0.01 0.01 0.02 0.02 0.02 0.02 0.02 0.02 0.03 0.03
0.63 0.60 0.43 0.23 0.13 0.21 0.21 0.10 0.09 0.08 0.07 0.08 0.08 0.05 0.05 0.06 0.06 0.07 0.09 0.06 0.05 0.04 0.03 0.02 0.01 0.01 0.01 0.01 0.00 0.01 0.01 0.01 0.00 0.00 0.01 0.01 0.01 0.02 0.02 0.03 0.03 0.03 0.03 0.03
0.42 0.51 0.57 0.36 0.29 0.45 0.18 0.06 0.06 0.07 0.07 0.08 0.07 0.06 0.05 0.06 0.06 0.07 0.09 0.07 0.04 0.03 0.03 0.03 0.02 0.01 0.01 0.01 0.01 0.01 0.01 0.01 0.01 0.00 0.01 0.01 0.01 0.02 0.03 0.03 0.03 0.03 0.03 0.04
0.19 0.40 0.63 0.54 0.44 0.26 0.10 0.08 0.08 0.09 0.12 0.09 0.07 0.06 0.05 0.04 0.05 0.06 0.05 0.05 0.04 0.04 0.03 0.03 0.02 0.02 0.01 0.01 0.02 0.02 0.02 0.02 0.01 0.00 0.00 0.00 0.01 0.02 0.03 0.03 0.03 0.04 0.04 0.04
0.18 0.35 0.64 0.57 0.45 0.21 0.13 0.09 0.07 0.09 0.19 0.10 0.08 0.08 0.07 0.06 0.06 0.06 0.04 0.03 0.03 0.03 0.03 0.02 0.02 0.02 0.02 0.02 0.02 0.02 0.02 0.02 0.01 0.00 0.01 0.01 0.01 0.01 0.01 0.02 0.03 0.04 0.04 0.04
0.39 0.57 0.64 0.47 0.34 0.13 0.12 0.12 0.11 0.19 0.23 0.12 0.08 0.08 0.08 0.08 0.08 0.06 0.04 0.03 0.03 0.03 0.03 0.03 0.03 0.03 0.02 0.02 0.02 0.02 0.02 0.02 0.01 0.01 0.01 0.01 0.01 0.01 0.01 0.03 0.04 0.04 0.04 0.05
0.38 0.48 0.43 0.35 0.32 0.16 0.14 0.17 0.24 0.24 0.13 0.09 0.07 0.07 0.06 0.06 0.05 0.05 0.04 0.03 0.03 0.02 0.02 0.03 0.03 0.03 0.02 0.02 0.02 0.02 0.03 0.02 0.02 0.01 0.01 0.01 0.01 0.01 0.02 0.04 0.05 0.05 0.05 0.05
0.25 0.31 0.30 0.26 0.17 0.12 0.13 0.19 0.20 0.13 0.08 0.05 0.05 0.05 0.05 0.05 0.05 0.05 0.04 0.03 0.03 0.03 0.03 0.03 0.03 0.04 0.03 0.02 0.02 0.02 0.03 0.03 0.03 0.02 0.02 0.02 0.02 0.03 0.04 0.04 0.05 0.05 0.06 0.08
0.15 0.16 0.21 0.17 0.09 0.08 0.10 0.13 0.13 0.09 0.05 0.04 0.04 0.04 0.04 0.04 0.05 0.05 0.05 0.04 0.03 0.03 0.03 0.03 0.03 0.04 0.04 0.03 0.02 0.02 0.02 0.03 0.03 0.03 0.02 0.02 0.03 0.04 0.05 0.05 0.05 0.06 0.09 0.16
0.12 0.14 0.17 0.14 0.07 0.08 0.08 0.08 0.08 0.06 0.04 0.04 0.03 0.02 0.03 0.03 0.04 0.05 0.05 0.04 0.03 0.04 0.04 0.03 0.03 0.04 0.04 0.03 0.02 0.02 0.03 0.03 0.03 0.03 0.03 0.04 0.04 0.06 0.07 0.07 0.06 0.07 0.09 0.18
0.06 0.08 0.10 0.09 0.05 0.06 0.07 0.06 0.05 0.04 0.04 0.04 0.03 0.02 0.02 0.03 0.04 0.04 0.04 0.03 0.03 0.04 0.04 0.03 0.03 0.04 0.04 0.03 0.03 0.03 0.03 0.03 0.04 0.04 0.04 0.05 0.06 0.06 0.07 0.07 0.07 0.08 0.08 0.10

GEFSCGP_prec_meanprecacc_144.txt.gz
Total_Precipitation_Accumulation
0.48 0.59 0.62 0.47 0.41 0.35 0.27 0.23 0.17 0.10 0.09 0.11 0.11 0.08 0.04 0.02 0.02 0.02 0.02 0.01 0.01 0.01 0.01 0.02 0.03 0.03 0.05 0.09 0.15 0.17 0.18 0.20 0.21 0.20 0.17 0.13 0.09 0.05 0.03 0.02 0.02 0.02 0.01 0.01
0.60 0.48 0.32 0.27 0.29 0.36 0.35 0.32 0.22 0.12 0.10 0.13 0.11 0.06 0.03 0.03 0.02 0.02 0.01 0.01 0.01 0.01 0.01 0.02 0.03 0.04 0.05 0.06 0.09 0.15 0.18 0.18 0.21 0.20 0.17 0.12 0.08 0.05 0.03 0.02 0.02 0.02 0.01 0.01
0.50 0.30 0.20 0.31 0.37 0.46 0.42 0.32 0.21 0.14 0.13 0.16 0.15 0.10 0.02 0.01 0.02 0.01 0.01 0.01 0.00 0.00 0.01 0.01 0.02 0.03 0.04 0.05 0.07 0.10 0.14 0.18 0.18 0.20 0.20 0.18 0.14 0.10 0.06 0.03 0.02 0.02 0.02 0.01
0.40 0.22 0.23 0.35 0.39 0.41 0.40 0.22 0.17 0.18 0.26 0.28 0.20 0.19 0.04 0.01 0.01 0.01 0.01 0.01 0.01 0.01 0.01 0.01 0.02 0.02 0.03 0.03 0.04 0.08 0.12 0.16 0.20 0.20 0.20 0.18 0.15 0.10 0.05 0.03 0.02 0.02 0.02 0.02
0.45 0.24 0.25 0.35 0.29 0.28 0.29 0.20 0.21 0.25 0.33 0.34 0.22 0.21 0.06 0.01 0.01 0.01 0.01 0.00 0.01 0.01 0.01 0.01 0.01 0.02 0.02 0.03 0.05 0.07 0.12 0.15 0.21 0.21 0.18 0.18 0.14 0.10 0.06 0.04 0.04 0.03 0.02 0.02
0.36 0.25 0.25 0.23 0.20 0.21 0.25 0.29 0.35 0.39 0.55 0.56 0.19 0.14 0.07 0.03 0.02 0.01 0.00 0.01 0.01 0.02 0.02 0.02 0.02 0.02 0.03 0.04 0.06 0.07 0.10 0.13 0.18 0.24 0.21 0.20 0.15 0.11 0.09 0.05 0.04 0.04 0.03 0.02
0.46 0.34 0.29 0.23 0.28 0.35 0.44 0.63 0.92 0.93 0.87 0.48 0.08 0.08 0.07 0.03 0.01 0.01 0.01 0.01 0.01 0.02 0.02 0.02 0.04 0.05 0.05 0.05 0.05 0.06 0.08 0.11 0.13 0.20 0.25 0.21 0.17 0.11 0.08 0.06 0.04 0.04 0.03 0.03
0.52 0.39 0.29 0.26 0.33 0.43 0.44 0.55 0.70 0.63 0.38 0.13 0.04 0.06 0.05 0.03 0.01 0.00 0.01 0.01 0.01 0.01 0.02 0.02 0.02 0.04 0.06 0.06 0.05 0.05 0.06 0.10 0.09 0.12 0.21 0.26 0.20 0.13 0.08 0.05 0.05 0.04 0.03 0.03
0.52 0.29 0.16 0.17 0.18 0.23 0.33 0.36 0.33 0.40 0.25 0.14 0.08 0.04 0.04 0.03 0.02 0.01 0.01 0.00 0.01 0.01 0.02 0.02 0.01 0.02 0.03 0.06 0.06 0.05 0.06 0.09 0.10 0.07 0.12 0.26 0.30 0.16 0.09 0.06 0.04 0.04 0.04 0.03
0.62 0.42 0.18 0.17 0.25 0.27 0.29 0.34 0.43 0.57 0.44 0.21 0.08 0.05 0.07 0.06 0.04 0.02 0.01 0.01 0.01 0.01 0.02 0.01 0.01 0.01 0.02 0.04 0.05 0.06 0.05 0.08 0.11 0.08 0.08 0.16 0.33 0.29 0.12 0.07 0.05 0.04 0.03 0.03
0.55 0.56 0.33 0.31 0.43 0.42 0.34 0.43 0.57 0.58 0.38 0.23 0.12 0.08 0.09 0.08 0.05 0.03 0.02 0.01 0.01 0.01 0.01 0.01 0.00 0.00 0.01 0.03 0.04 0.05 0.05 0.07 0.10 0.09 0.08 0.09 0.19 0.33 0.24 0.11 0.06 0.04 0.03 0.03
0.54 0.61 0.47 0.31 0.29 0.30 0.34 0.37 0.42 0.50 0.37 0.18 0.12 0.07 0.04 0.04 0.04 0.03 0.02 0.02 0.01 0.01 0.01 0.01 0.01 0.00 0.01 0.01 0.02 0.03 0.04 0.05 0.07 0.08 0.08 0.09 0.12 0.21 0.29 0.18 0.09 0.05 0.04 0.04
0.79 0.91 0.72 0.54 0.46 0.42 0.49 0.43 0.37 0.35 0.30 0.20 0.13 0.06 0.03 0.02 0.02 0.01 0.02 0.02 0.02 0.01 0.01 0.01 0.01 0.00 0.00 0.01 0.01 0.01 0.02 0.03 0.05 0.08 0.08 0.10 0.11 0.13 0.19 0.22 0.14 0.09 0.06 0.05
0.85 0.93 0.69 0.58 0.48 0.44 0.44 0.33 0.32 0.41 0.42 0.21 0.08 0.05 0.04 0.03 0.03 0.03 0.03 0.03 0.02 0.02 0.01 0.01 0.01 0.00 0.00 0.00 0.01 0.01 0.01 0.02 0.04 0.07 0.08 0.08 0.09 0.09 0.10 0.15 0.16 0.12 0.07 0.05
0.70 0.68 0.35 0.22 0.16 0.17 0.19 0.17 0.18 0.28 0.28 0.17 0.07 0.06 0.07 0.06 0.06 0.06 0.07 0.06 0.04 0.03 0.02 0.01 0.01 0.01 0.00 0.00 0.01 0.02 0.01 0.01 0.03 0.07 0.08 0.06 0.07 0.07 0.08 0.10 0.13 0.12 0.10 0.06
0.70 0.61 0.29 0.17 0.12 0.12 0.13 0.11 0.12 0.13 0.11 0.09 0.06 0.05 0.06 0.07 0.07 0.07 0.08 0.08 0.06 0.06 0.03 0.02 0.01 0.01 0.01 0.00 0.01 0.02 0.01 0.01 0.02 0.06 0.07 0.05 0.06 0.07 0.07 0.08 0.08 0.09 0.11 0.10
0.68 0.64 0.47 0.24 0.13 0.22 0.23 0.13 0.11 0.10 0.08 0.09 0.10 0.07 0.06 0.07 0.07 0.09 0.11 0.09 0.07 0.07 0.05 0.03 0.02 0.01 0.01 0.01 0.01 0.01 0.01 0.01 0.02 0.05 0.07 0.04 0.04 0.06 0.06 0.08 0.08 0.08 0.08 0.09
0.46 0.56 0.63 0.39 0.30 0.47 0.20 0.07 0.07 0.08 0.09 0.10 0.09 0.08 0.07 0.07 0.08 0.09 0.12 0.11 0.08 0.07 0.06 0.04 0.02 0.01 0.01 0.01 0.02 0.02 0.02 0.02 0.03 0.05 0.06 0.04 0.04 0.06 0.07 0.08 0.09 0.08 0.07 0.07
0.21 0.45 0.70 0.59 0.46 0.27 0.11 0.10 0.10 0.13 0.15 0.10 0.08 0.08 0.06 0.06 0.06 0.07 0.06 0.08 0.08 0.07 0.05 0.04 0.04 0.03 0.02 0.01 0.03 0.03 0.03 0.03 0.04 0.05 0.04 0.03 0.03 0.05 0.07 0.08 0.09 0.09 0.08 0.07
0.19 0.38 0.71 0.63 0.49 0.23 0.14 0.11 0.09 0.11 0.23 0.12 0.09 0.10 0.09 0.07 0.09 0.07 0.05 0.06 0.06 0.05 0.05 0.05 0.05 0.04 0.03 0.03 0.03 0.03 0.03 0.04 0.04 0.04 0.03 0.02 0.03 0.03 0.05 0.06 0.08 0.10 0.10 0.08
0.40 0.60 0.69 0.51 0.38 0.15 0.13 0.13 0.12 0.21 0.27 0.13 0.10 0.11 0.10 0.10 0.10 0.09 0.08 0.07 0.06 0.04 0.05 0.06 0.06 0.05 0.03 0.03 0.02 0.03 0.04 0.04 0.03 0.03 0.03 0.03 0.03 0.03 0.04 0.06 0.09 0.09 0.10 0.10
0.38 0.49 0.45 0.37 0.37 0.18 0.15 0.19 0.26 0.27 0.15 0.10 0.08 0.08 0.08 0.07 0.06 0.07 0.08 0.08 0.06 0.05 0.05 0.04 0.05 0.05 0.04 0.03 0.03 0.03 0.04 0.05 0.04 0.04 0.04 0.04 0.04 0.04 0.05 0.07 0.09 0.09 0.10 0.11
0.25 0.31 0.31 0.27 0.19 0.13 0.14 0.20 0.21 0.15 0.09 0.06 0.06 0.06 0.06 0.06 0.06 0.07 0.08 0.08 0.08 0.08 0.07 0.06 0.05 0.05 0.04 0.04 0.04 0.04 0.05 0.05 0.05 0.06 0.06 0.05 0.05 0.06 0.07 0.07 0.08 0.10 0.11 0.13
0.15 0.17 0.21 0.18 0.09 0.09 0.11 0.13 0.14 0.09 0.06 0.05 0.04 0.04 0.05 0.05 0.06 0.07 0.08 0.08 0.08 0.10 0.09 0.07 0.06 0.06 0.06 0.05 0.05 0.05 0.05 0.05 0.06 0.06 0.07 0.07 0.07 0.09 0.09 0.08 0.08 0.10 0.14 0.20
0.12 0.15 0.18 0.15 0.08 0.08 0.08 0.08 0.08 0.06 0.05 0.04 0.04 0.03 0.03 0.04 0.05 0.06 0.08 0.08 0.08 0.11 0.11 0.08 0.07 0.07 0.07 0.06 0.06 0.06 0.06 0.06 0.06 0.07 0.08 0.10 0.09 0.10 0.11 0.11 0.09 0.10 0.12 0.22
0.07 0.08 0.11 0.10 0.06 0.07 0.07 0.06 0.05 0.05 0.04 0.04 0.04 0.03 0.02 0.03 0.04 0.05 0.06 0.07 0.08 0.10 0.11 0.09 0.08 0.07 0.07 0.07 0.07 0.07 0.06 0.06 0.06 0.07 0.08 0.11 0.12 0.12 0.12 0.12 0.12 0.13 0.12 0.14

GEFSCGP_prec_meanprecacc_150.txt.gz
Total_Precipitation_Accumulation
0.53 0.64 0.67 0.52 0.45 0.39 0.32 0.29 0.23 0.16 0.14 0.14 0.14 0.11 0.05 0.03 0.04 0.05 0.04 0.05 0.05 0.03 0.04 0.07 0.07 0.07 0.10 0.14 0.22 0.26 0.29 0.35 0.34 0.35 0.36 0.32 0.31 0.29 0.24 0.17 0.13 0.10 0.07 0.04
0.64 0.52 0.35 0.30 0.31 0.38 0.39 0.37 0.27 0.17 0.14 0.17 0.14 0.09 0.04 0.03 0.04 0.04 0.04 0.03 0.04 0.04 0.04 0.08 0.09 0.09 0.11 0.12 0.15 0.21 0.25 0.30 0.32 0.33 0.35 0.34 0.29 0.27 0.25 0.19 0.14 0.12 0.09 0.05
0.53 0.33 0.23 0.35 0.39 0.48 0.46 0.38 0.26 0.19 0.17 0.19 0.19 0.14 0.05 0.02 0.03 0.03 0.03 0.03 0.04 0.04 0.05 0.07 0.09 0.08 0.10 0.12 0.13 0.14 0.19 0.25 0.28 0.31 0.37 0.43 0.42 0.35 0.29 0.23 0.17 0.13 0.11 0.06
0.42 0.24 0.26 0.39 0.43 0.44 0.44 0.25 0.21 0.22 0.29 0.31 0.24 0.23 0.05 0.02 0.02 0.02 0.03 0.03 0.04 0.04 0.06 0.07 0.09 0.10 0.09 0.11 0.11 0.13 0.16 0.22 0.28 0.31 0.34 0.41 0.47 0.38 0.27 0.23 0.18 0.16 0.11 0.08
0.46 0.26 0.27 0.38 0.33 0.32 0.32 0.22 0.24 0.28 0.35 0.36 0.24 0.24 0.08 0.03 0.02 0.02 0.01 0.02 0.02 0.03 0.05 0.07 0.10 0.11 0.10 0.14 0.15 0.14 0.17 0.20 0.28 0.31 0.31 0.34 0.38 0.40 0.32 0.26 0.22 0.20 0.15 0.10
0.38 0.26 0.27 0.26 0.22 0.24 0.28 0.32 0.39 0.41 0.57 0.60 0.21 0.17 0.12 0.07 0.04 0.02 0.01 0.01 0.03 0.03 0.05 0.07 0.11 0.14 0.13 0.18 0.21 0.17 0.18 0.20 0.26 0.33 0.33 0.35 0.35 0.38 0.40 0.33 0.27 0.24 0.19 0.13
0.48 0.35 0.30 0.25 0.30 0.38 0.47 0.66 0.96 0.96 0.90 0.50 0.10 0.12 0.14 0.08 0.04 0.03 0.02 0.02 0.03 0.04 0.05 0.07 0.11 0.15 0.15 0.18 0.21 0.17 0.16 0.19 0.22 0.30 0.35 0.34 0.33 0.32 0.35 0.37 0.32 0.26 0.22 0.15
0.54 0.41 0.31 0.28 0.36 0.47 0.47 0.57 0.74 0.67 0.40 0.14 0.06 0.10 0.11 0.08 0.03 0.02 0.03 0.02 0.02 0.03 0.05 0.08 0.10 0.12 0.13 0.16 0.18 0.15 0.14 0.17 0.17 0.22 0.32 0.38 0.35 0.31 0.30 0.32 0.34 0.30 0.24 0.16
0.54 0.31 0.17 0.18 0.19 0.24 0.34 0.37 0.34 0.43 0.27 0.15 0.10 0.07 0.07 0.05 0.02 0.02 0.03 0.03 0.02 0.03 0.04 0.06 0.08 0.08 0.08 0.13 0.15 0.13 0.14 0.18 0.19 0.16 0.22 0.37 0.43 0.34 0.27 0.26 0.28 0.30 0.26 0.20
0.63 0.43 0.18 0.18 0.26 0.28 0.29 0.34 0.45 0.60 0.47 0.23 0.10 0.08 0.13 0.09 0.06 0.04 0.03 0.03 0.03 0.03 0.04 0.04 0.06 0.06 0.06 0.10 0.13 0.11 0.12 0.18 0.21 0.18 0.17 0.24 0.44 0.45 0.31 0.25 0.24 0.25 0.24 0.21
0.55 0.57 0.34 0.31 0.43 0.42 0.34 0.44 0.58 0.61 0.41 0.27 0.15 0.11 0.15 0.13 0.08 0.05 0.04 0.03 0.02 0.02 0.03 0.03 0.04 0.04 0.05 0.08 0.12 0.10 0.08 0.14 0.22 0.18 0.14 0.16 0.30 0.49 0.44 0.30 0.24 0.22 0.23 0.21
0.54 0.63 0.47 0.31 0.29 0.30 0.34 0.38 0.44 0.53 0.40 0.20 0.14 0.09 0.06 0.06 0.06 0.05 0.04 0.03 0.02 0.02 0.02 0.03 0.03 0.04 0.03 0.05 0.09 0.09 0.07 0.11 0.19 0.19 0.15 0.15 0.19 0.35 0.49 0.40 0.29 0.23 0.21 0.20
0.81 0.95 0.75 0.54 0.46 0.43 0.50 0.43 0.38 0.37 0.34 0.22 0.15 0.08 0.04 0.03 0.03 0.02 0.03 0.03 0.03 0.02 0.03 0.03 0.03 0.04 0.03 0.04 0.07 0.07 0.05 0.07 0.15 0.21 0.20 0.17 0.18 0.23 0.34 0.45 0.37 0.29 0.22 0.18
0.89 0.98 0.72 0.59 0.48 0.45 0.45 0.33 0.32 0.43 0.46 0.23 0.09 0.06 0.04 0.04 0.04 0.03 0.04 0.04 0.03 0.03 0.03 0.04 0.03 0.03 0.04 0.03 0.06 0.06 0.05 0.05 0.09 0.17 0.22 0.19 0.18 0.18 0.21 0.31 0.41 0.36 0.27 0.20
0.74 0.72 0.37 0.22 0.17 0.17 0.20 0.18 0.18 0.29 0.29 0.19 0.07 0.06 0.07 0.07 0.06 0.07 0.08 0.07 0.05 0.04 0.04 0.03 0.03 0.03 0.04 0.03 0.05 0.06 0.05 0.05 0.06 0.12 0.17 0.18 0.18 0.17 0.19 0.23 0.30 0.38 0.35 0.24
0.73 0.64 0.31 0.17 0.13 0.13 0.14 0.11 0.13 0.14 0.12 0.10 0.06 0.06 0.06 0.07 0.07 0.08 0.09 0.09 0.08 0.07 0.05 0.03 0.03 0.03 0.04 0.03 0.03 0.05 0.04 0.04 0.05 0.08 0.12 0.14 0.17 0.18 0.19 0.21 0.21 0.26 0.32 0.30
0.70 0.67 0.50 0.26 0.13 0.23 0.24 0.14 0.12 0.11 0.09 0.11 0.12 0.08 0.06 0.07 0.07 0.10 0.12 0.10 0.08 0.08 0.07 0.04 0.03 0.03 0.04 0.03 0.02 0.03 0.04 0.04 0.05 0.07 0.11 0.12 0.13 0.16 0.18 0.18 0.20 0.22 0.23 0.26
0.47 0.59 0.68 0.41 0.31 0.48 0.20 0.08 0.08 0.09 0.10 0.11 0.10 0.08 0.07 0.08 0.08 0.10 0.14 0.13 0.11 0.09 0.08 0.05 0.04 0.04 0.03 0.03 0.03 0.03 0.04 0.05 0.06 0.07 0.11 0.11 0.10 0.14 0.16 0.18 0.19 0.22 0.21 0.19
0.21 0.47 0.75 0.63 0.49 0.28 0.12 0.10 0.11 0.13 0.16 0.11 0.09 0.08 0.07 0.06 0.07 0.08 0.07 0.09 0.10 0.10 0.08 0.06 0.05 0.04 0.03 0.03 0.04 0.05 0.04 0.06 0.06 0.07 0.10 0.09 0.08 0.10 0.14 0.17 0.18 0.21 0.20 0.18
0.19 0.40 0.76 0.67 0.53 0.24 0.14 0.11 0.09 0.12 0.24 0.12 0.10 0.11 0.09 0.09 0.12 0.09 0.06 0.07 0.08 0.08 0.08 0.07 0.06 0.05 0.05 0.04 0.04 0.05 0.05 0.06 0.06 0.08 0.11 0.08 0.06 0.07 0.09 0.13 0.17 0.20 0.21 0.18
0.41 0.62 0.73 0.54 0.42 0.16 0.13 0.13 0.12 0.23 0.28 0.14 0.11 0.11 0.11 0.12 0.14 0.11 0.10 0.10 0.08 0.07 0.08 0.08 0.08 0.06 0.05 0.04 0.04 0.05 0.05 0.06 0.06 0.09 0.10 0.07 0.06 0.06 0.07 0.10 0.16 0.19 0.20 0.20
0.39 0.51 0.47 0.40 0.40 0.20 0.15 0.19 0.27 0.28 0.15 0.10 0.09 0.09 0.09 0.08 0.08 0.09 0.10 0.10 0.09 0.09 0.08 0.06 0.08 0.07 0.05 0.04 0.04 0.05 0.06 0.07 0.09 0.11 0.09 0.07 0.07 0.07 0.08 0.11 0.15 0.19 0.20 0.21
0.26 0.32 0.32 0.29 0.20 0.14 0.14 0.21 0.22 0.16 0.10 0.07 0.07 0.07 0.07 0.07 0.08 0.09 0.11 0.11 0.11 0.12 0.10 0.08 0.07 0.07 0.05 0.05 0.05 0.06 0.07 0.08 0.11 0.11 0.09 0.08 0.09 0.10 0.10 0.12 0.16 0.18 0.22 0.23
0.15 0.17 0.22 0.18 0.10 0.09 0.11 0.13 0.14 0.10 0.07 0.05 0.05 0.05 0.06 0.07 0.08 0.10 0.10 0.11 0.11 0.13 0.12 0.09 0.08 0.07 0.07 0.06 0.07 0.08 0.09 0.10 0.11 0.10 0.10 0.09 0.11 0.13 0.13 0.14 0.16 0.17 0.23 0.31
0.12 0.15 0.19 0.16 0.08 0.08 0.08 0.08 0.08 0.06 0.05 0.04 0.04 0.04 0.05 0.06 0.08 0.10 0.11 0.11 0.12 0.15 0.14 0.11 0.09 0.08 0.09 0.09 0.10 0.13 0.12 0.10 0.10 0.10 0.11 0.13 0.14 0.16 0.18 0.17 0.16 0.17 0.18 0.31
0.07 0.08 0.12 0.11 0.06 0.07 0.07 0.06 0.05 0.05 0.04 0.04 0.04 0.04 0.04 0.06 0.09 0.09 0.10 0.10 0.11 0.13 0.14 0.12 0.10 0.10 0.11 0.12 0.15 0.15 0.11 0.10 0.09 0.10 0.12 0.16 0.18 0.19 0.19 0.18 0.18 0.21 0.19 0.23

GEFSCGP_prec_meanprecacc_156.txt.gz
Total_Precipitation_Accumulation
0.55 0.67 0.70 0.55 0.49 0.45 0.38 0.36 0.28 0.18 0.16 0.16 0.17 0.15 0.09 0.05 0.06 0.05 0.05 0.06 0.05 0.04 0.05 0.08 0.10 0.13 0.15 0.20 0.28 0.35 0.42 0.52 0.51 0.52 0.49 0.43 0.42 0.41 0.39 0.36 0.35 0.35 0.32 0.27
0.67 0.55 0.37 0.32 0.32 0.41 0.43 0.42 0.32 0.19 0.17 0.21 0.19 0.14 0.08 0.05 0.04 0.05 0.04 0.04 0.04 0.05 0.05 0.10 0.14 0.17 0.18 0.19 0.22 0.30 0.39 0.49 0.53 0.50 0.49 0.43 0.39 0.39 0.39 0.37 0.36 0.36 0.36 0.31
0.57 0.36 0.26 0.36 0.40 0.50 0.49 0.40 0.29 0.23 0.21 0.24 0.24 0.19 0.08 0.04 0.03 0.04 0.04 0.04 0.05 0.05 0.07 0.10 0.13 0.17 0.19 0.21 0.22 0.24 0.32 0.43 0.52 0.51 0.54 0.57 0.52 0.49 0.46 0.41 0.37 0.37 0.38 0.34
0.45 0.27 0.29 0.42 0.44 0.46 0.46 0.26 0.23 0.26 0.34 0.35 0.29 0.31 0.11 0.04 0.04 0.04 0.04 0.04 0.04 0.05 0.07 0.10 0.14 0.17 0.18 0.21 0.23 0.24 0.30 0.37 0.50 0.52 0.53 0.55 0.57 0.50 0.42 0.40 0.38 0.37 0.38 0.39
0.48 0.28 0.29 0.41 0.35 0.33 0.34 0.24 0.26 0.31 0.39 0.40 0.29 0.31 0.14 0.07 0.07 0.05 0.04 0.03 0.03 0.04 0.06 0.10 0.14 0.18 0.20 0.25 0.30 0.28 0.33 0.36 0.46 0.50 0.49 0.49 0.48 0.50 0.46 0.45 0.43 0.43 0.41 0.40
0.39 0.27 0.28 0.28 0.24 0.25 0.30 0.34 0.41 0.46 0.61 0.64 0.24 0.21 0.16 0.13 0.13 0.09 0.04 0.03 0.04 0.05 0.07 0.09 0.15 0.21 0.24 0.29 0.38 0.35 0.36 0.39 0.43 0.50 0.49 0.48 0.46 0.48 0.53 0.52 0.49 0.48 0.46 0.43
0.49 0.36 0.31 0.27 0.33 0.40 0.49 0.69 1.00 1.01 0.94 0.53 0.11 0.15 0.19 0.13 0.14 0.11 0.07 0.06 0.06 0.06 0.07 0.11 0.17 0.25 0.25 0.27 0.36 0.37 0.36 0.37 0.38 0.46 0.51 0.46 0.43 0.42 0.47 0.53 0.52 0.50 0.51 0.45
0.55 0.43 0.33 0.29 0.37 0.48 0.48 0.60 0.78 0.70 0.41 0.15 0.07 0.12 0.14 0.11 0.08 0.07 0.08 0.08 0.07 0.05 0.07 0.11 0.15 0.22 0.25 0.26 0.33 0.36 0.36 0.36 0.33 0.38 0.47 0.51 0.45 0.41 0.40 0.45 0.52 0.52 0.50 0.45
0.55 0.32 0.18 0.19 0.20 0.25 0.35 0.39 0.35 0.44 0.28 0.16 0.10 0.08 0.09 0.07 0.04 0.06 0.08 0.08 0.08 0.08 0.09 0.11 0.14 0.17 0.18 0.23 0.27 0.30 0.36 0.37 0.34 0.32 0.38 0.51 0.55 0.45 0.39 0.37 0.44 0.49 0.49 0.47
0.63 0.43 0.18 0.18 0.27 0.29 0.30 0.35 0.45 0.61 0.48 0.23 0.10 0.09 0.15 0.11 0.07 0.06 0.07 0.08 0.07 0.07 0.09 0.10 0.12 0.15 0.16 0.19 0.24 0.26 0.34 0.40 0.41 0.34 0.33 0.39 0.57 0.56 0.43 0.38 0.39 0.42 0.44 0.46
0.55 0.58 0.34 0.31 0.44 0.43 0.35 0.44 0.59 0.61 0.42 0.29 0.16 0.13 0.18 0.14 0.09 0.07 0.06 0.05 0.05 0.05 0.06 0.07 0.09 0.13 0.16 0.18 0.22 0.23 0.27 0.36 0.42 0.35 0.33 0.34 0.43 0.62 0.58 0.44 0.37 0.36 0.40 0.42
0.55 0.64 0.48 0.31 0.29 0.30 0.34 0.38 0.44 0.55 0.41 0.21 0.16 0.10 0.07 0.07 0.06 0.05 0.05 0.04 0.04 0.05 0.06 0.06 0.09 0.13 0.15 0.18 0.21 0.21 0.21 0.26 0.34 0.32 0.30 0.31 0.34 0.48 0.66 0.57 0.44 0.37 0.36 0.38
0.82 0.97 0.77 0.55 0.46 0.43 0.50 0.43 0.38 0.38 0.37 0.24 0.17 0.08 0.04 0.03 0.03 0.02 0.03 0.04 0.04 0.05 0.07 0.07 0.09 0.11 0.12 0.15 0.19 0.19 0.15 0.17 0.24 0.30 0.32 0.29 0.31 0.35 0.47 0.62 0.56 0.45 0.38 0.36
0.92 1.01 0.74 0.60 0.48 0.45 0.45 0.33 0.33 0.45 0.50 0.24 0.09 0.06 0.04 0.04 0.04 0.03 0.04 0.04 0.04 0.05 0.07 0.09 0.09 0.08 0.10 0.11 0.17 0.18 0.16 0.15 0.16 0.26 0.32 0.30 0.28 0.30 0.32 0.45 0.60 0.55 0.44 0.36
0.77 0.75 0.38 0.22 0.17 0.17 0.20 0.18 0.19 0.30 0.30 0.20 0.08 0.07 0.07 0.07 0.06 0.07 0.08 0.07 0.06 0.05 0.06 0.09 0.08 0.06 0.08 0.11 0.16 0.18 0.15 0.13 0.13 0.19 0.26 0.27 0.28 0.28 0.31 0.35 0.45 0.55 0.53 0.41
0.75 0.67 0.32 0.18 0.13 0.13 0.14 0.11 0.13 0.14 0.12 0.10 0.07 0.06 0.06 0.07 0.07 0.08 0.10 0.09 0.09 0.08 0.07 0.08 0.08 0.06 0.08 0.10 0.14 0.18 0.15 0.13 0.11 0.15 0.18 0.21 0.26 0.29 0.32 0.33 0.34 0.40 0.48 0.47
0.72 0.69 0.53 0.27 0.13 0.23 0.24 0.14 0.13 0.11 0.09 0.11 0.12 0.08 0.06 0.07 0.07 0.10 0.13 0.12 0.11 0.10 0.08 0.08 0.08 0.08 0.08 0.10 0.13 0.16 0.13 0.11 0.10 0.12 0.15 0.17 0.19 0.26 0.30 0.32 0.32 0.34 0.36 0.40
0.49 0.61 0.72 0.44 0.32 0.49 0.20 0.08 0.08 0.09 0.10 0.11 0.10 0.08 0.07 0.08 0.08 0.10 0.14 0.15 0.13 0.11 0.09 0.08 0.07 0.08 0.07 0.10 0.12 0.14 0.11 0.09 0.10 0.11 0.15 0.16 0.15 0.20 0.27 0.32 0.31 0.32 0.31 0.31
0.22 0.49 0.79 0.67 0.50 0.28 0.12 0.10 0.11 0.13 0.16 0.11 0.09 0.08 0.07 0.07 0.07 0.08 0.07 0.10 0.12 0.11 0.10 0.08 0.07 0.07 0.08 0.10 0.11 0.14 0.12 0.09 0.10 0.12 0.15 0.15 0.13 0.14 0.22 0.29 0.32 0.33 0.31 0.28
0.20 0.42 0.80 0.71 0.56 0.25 0.14 0.11 0.09 0.12 0.24 0.12 0.10 0.11 0.10 0.09 0.13 0.10 0.06 0.09 0.11 0.10 0.09 0.08 0.08 0.07 0.09 0.11 0.10 0.12 0.12 0.10 0.10 0.13 0.16 0.14 0.11 0.11 0.13 0.21 0.30 0.34 0.33 0.29
0.42 0.65 0.77 0.57 0.45 0.17 0.13 0.13 0.13 0.23 0.28 0.14 0.11 0.12 0.12 0.13 0.15 0.12 0.11 0.12 0.12 0.09 0.08 0.09 0.09 0.08 0.10 0.11 0.09 0.11 0.12 0.10 0.10 0.15 0.17 0.11 0.09 0.10 0.10 0.15 0.26 0.32 0.34 0.32
0.39 0.51 0.48 0.41 0.44 0.21 0.15 0.19 0.27 0.28 0.16 0.10 0.09 0.09 0.09 0.09 0.08 0.09 0.11 0.14 0.14 0.10 0.08 0.06 0.09 0.09 0.09 0.10 0.09 0.11 0.13 0.12 0.14 0.17 0.14 0.11 0.10 0.09 0.11 0.14 0.23 0.32 0.32 0.33
0.26 0.32 0.32 0.29 0.20 0.14 0.14 0.21 0.22 0.16 0.10 0.07 0.07 0.07 0.07 0.07 0.08 0.10 0.12 0.14 0.16 0.13 0.10 0.08 0.08 0.08 0.09 0.10 0.10 0.13 0.16 0.16 0.18 0.16 0.15 0.12 0.11 0.11 0.12 0.15 0.22 0.29 0.34 0.33
0.15 0.17 0.22 0.18 0.10 0.09 0.11 0.14 0.14 0.10 0.07 0.05 0.05 0.06 0.07 0.07 0.09 0.11 0.12 0.12 0.15 0.15 0.12 0.10 0.09 0.09 0.11 0.11 0.11 0.16 0.19 0.18 0.17 0.15 0.15 0.13 0.14 0.16 0.16 0.17 0.21 0.25 0.33 0.40
0.13 0.15 0.19 0.16 0.08 0.08 0.08 0.08 0.08 0.06 0.05 0.04 0.04 0.04 0.05 0.07 0.09 0.11 0.12 0.12 0.14 0.17 0.16 0.12 0.11 0.10 0.12 0.14 0.16 0.20 0.19 0.17 0.16 0.15 0.16 0.19 0.19 0.21 0.23 0.22 0.21 0.23 0.24 0.37
0.07 0.08 0.12 0.11 0.06 0.07 0.07 0.06 0.05 0.05 0.04 0.04 0.04 0.04 0.04 0.06 0.10 0.10 0.11 0.12 0.13 0.16 0.17 0.14 0.13 0.13 0.15 0.18 0.23 0.24 0.18 0.15 0.14 0.16 0.18 0.22 0.24 0.25 0.25 0.23 0.23 0.26 0.26 0.31

GEFSCGP_prec_meanprecacc_162.txt.gz
Total_Precipitation_Accumulation
0.56 0.69 0.72 0.57 0.51 0.47 0.40 0.39 0.30 0.20 0.18 0.18 0.19 0.17 0.11 0.07 0.07 0.07 0.07 0.07 0.07 0.07 0.08 0.12 0.14 0.18 0.20 0.23 0.31 0.42 0.51 0.61 0.61 0.62 0.59 0.53 0.52 0.51 0.47 0.43 0.42 0.42 0.37 0.32
0.68 0.56 0.38 0.33 0.33 0.42 0.45 0.45 0.35 0.22 0.21 0.24 0.22 0.17 0.10 0.06 0.06 0.06 0.06 0.06 0.06 0.07 0.08 0.13 0.16 0.20 0.21 0.21 0.25 0.36 0.48 0.58 0.62 0.57 0.57 0.52 0.49 0.49 0.49 0.46 0.44 0.45 0.43 0.36
0.57 0.36 0.26 0.37 0.41 0.51 0.50 0.42 0.32 0.26 0.25 0.28 0.29 0.24 0.12 0.06 0.05 0.06 0.06 0.06 0.07 0.08 0.09 0.12 0.15 0.19 0.21 0.24 0.24 0.28 0.40 0.54 0.60 0.58 0.61 0.66 0.64 0.63 0.58 0.52 0.47 0.46 0.46 0.41
0.46 0.27 0.29 0.42 0.45 0.47 0.48 0.28 0.25 0.28 0.36 0.38 0.32 0.36 0.15 0.07 0.06 0.06 0.06 0.07 0.07 0.07 0.08 0.12 0.17 0.20 0.21 0.24 0.26 0.27 0.35 0.48 0.61 0.60 0.60 0.64 0.67 0.62 0.54 0.49 0.46 0.47 0.49 0.50
0.49 0.28 0.30 0.41 0.35 0.34 0.36 0.26 0.27 0.33 0.41 0.43 0.31 0.35 0.18 0.09 0.09 0.06 0.05 0.05 0.06 0.06 0.08 0.12 0.17 0.22 0.24 0.29 0.33 0.31 0.37 0.45 0.60 0.60 0.55 0.57 0.56 0.58 0.56 0.56 0.53 0.52 0.53 0.54
0.40 0.28 0.29 0.29 0.25 0.26 0.32 0.37 0.43 0.48 0.64 0.66 0.26 0.24 0.20 0.16 0.16 0.11 0.06 0.06 0.07 0.08 0.10 0.12 0.18 0.26 0.28 0.32 0.41 0.39 0.41 0.45 0.54 0.64 0.58 0.56 0.55 0.56 0.61 0.63 0.61 0.59 0.58 0.56
0.50 0.38 0.33 0.29 0.35 0.41 0.51 0.73 1.03 1.04 0.97 0.55 0.13 0.16 0.21 0.15 0.16 0.13 0.10 0.09 0.09 0.09 0.11 0.13 0.20 0.29 0.30 0.30 0.39 0.41 0.40 0.45 0.48 0.60 0.64 0.56 0.53 0.52 0.55 0.62 0.62 0.61 0.63 0.60
0.57 0.47 0.36 0.31 0.39 0.49 0.49 0.62 0.80 0.72 0.43 0.17 0.08 0.13 0.16 0.11 0.09 0.08 0.10 0.10 0.10 0.09 0.10 0.13 0.18 0.25 0.31 0.32 0.37 0.43 0.42 0.44 0.45 0.51 0.62 0.64 0.57 0.53 0.51 0.55 0.62 0.61 0.60 0.57
0.56 0.35 0.22 0.22 0.22 0.27 0.36 0.41 0.36 0.46 0.29 0.17 0.11 0.09 0.09 0.07 0.04 0.06 0.09 0.10 0.11 0.13 0.14 0.16 0.17 0.20 0.23 0.30 0.34 0.38 0.45 0.47 0.45 0.44 0.53 0.68 0.73 0.61 0.52 0.49 0.55 0.58 0.57 0.57
0.64 0.44 0.20 0.22 0.31 0.31 0.33 0.37 0.46 0.62 0.50 0.25 0.11 0.09 0.16 0.11 0.08 0.06 0.08 0.09 0.09 0.12 0.17 0.19 0.19 0.20 0.21 0.24 0.29 0.31 0.41 0.49 0.50 0.44 0.47 0.58 0.80 0.77 0.61 0.53 0.51 0.53 0.53 0.54
0.56 0.58 0.35 0.33 0.46 0.44 0.36 0.46 0.59 0.62 0.43 0.29 0.16 0.14 0.18 0.14 0.09 0.07 0.07 0.06 0.07 0.09 0.12 0.15 0.17 0.21 0.23 0.23 0.27 0.29 0.33 0.43 0.51 0.46 0.47 0.52 0.63 0.82 0.76 0.61 0.53 0.50 0.52 0.52
0.55 0.65 0.49 0.31 0.29 0.30 0.34 0.38 0.44 0.55 0.42 0.22 0.17 0.11 0.07 0.07 0.07 0.06 0.05 0.05 0.05 0.08 0.09 0.11 0.14 0.18 0.20 0.22 0.25 0.27 0.28 0.35 0.45 0.46 0.47 0.50 0.52 0.66 0.83 0.72 0.60 0.53 0.51 0.54
0.83 0.99 0.79 0.55 0.46 0.43 0.50 0.43 0.38 0.38 0.38 0.25 0.18 0.09 0.04 0.03 0.03 0.03 0.03 0.04 0.05 0.07 0.10 0.10 0.13 0.16 0.17 0.21 0.26 0.27 0.25 0.28 0.37 0.45 0.47 0.45 0.46 0.51 0.63 0.75 0.68 0.58 0.51 0.51
0.93 1.02 0.75 0.60 0.48 0.45 0.45 0.34 0.33 0.46 0.52 0.26 0.09 0.06 0.04 0.04 0.04 0.03 0.04 0.04 0.05 0.06 0.10 0.12 0.13 0.13 0.15 0.19 0.26 0.26 0.26 0.28 0.29 0.38 0.45 0.41 0.38 0.40 0.45 0.57 0.71 0.67 0.58 0.52
0.78 0.77 0.38 0.22 0.17 0.17 0.20 0.18 0.19 0.30 0.31 0.21 0.08 0.07 0.07 0.07 0.06 0.07 0.08 0.08 0.07 0.06 0.07 0.12 0.13 0.12 0.15 0.20 0.28 0.28 0.25 0.25 0.23 0.29 0.35 0.38 0.37 0.39 0.41 0.44 0.55 0.68 0.66 0.56
0.77 0.69 0.33 0.18 0.13 0.13 0.14 0.11 0.13 0.14 0.12 0.10 0.07 0.06 0.06 0.08 0.07 0.08 0.10 0.10 0.10 0.09 0.09 0.10 0.13 0.11 0.14 0.19 0.26 0.30 0.25 0.24 0.21 0.25 0.28 0.31 0.36 0.41 0.45 0.46 0.49 0.54 0.61 0.59
0.74 0.71 0.55 0.29 0.13 0.23 0.25 0.14 0.13 0.11 0.09 0.11 0.12 0.08 0.06 0.07 0.07 0.10 0.13 0.14 0.13 0.11 0.10 0.10 0.12 0.13 0.13 0.15 0.22 0.27 0.23 0.22 0.19 0.21 0.26 0.27 0.29 0.37 0.42 0.46 0.50 0.49 0.50 0.54
0.50 0.63 0.76 0.46 0.33 0.50 0.21 0.08 0.08 0.09 0.10 0.11 0.10 0.08 0.07 0.08 0.08 0.10 0.14 0.17 0.15 0.12 0.11 0.10 0.11 0.13 0.12 0.14 0.18 0.22 0.20 0.18 0.18 0.20 0.25 0.27 0.25 0.28 0.36 0.43 0.45 0.47 0.46 0.44
0.22 0.51 0.84 0.71 0.52 0.28 0.12 0.10 0.11 0.13 0.16 0.11 0.09 0.08 0.07 0.07 0.07 0.08 0.07 0.10 0.14 0.13 0.11 0.09 0.10 0.10 0.11 0.14 0.17 0.21 0.19 0.16 0.18 0.22 0.25 0.24 0.21 0.22 0.28 0.37 0.44 0.46 0.47 0.40
0.21 0.44 0.84 0.75 0.58 0.25 0.14 0.11 0.09 0.12 0.24 0.12 0.10 0.11 0.10 0.10 0.15 0.11 0.07 0.10 0.15 0.10 0.09 0.09 0.09 0.09 0.11 0.14 0.15 0.19 0.20 0.15 0.16 0.20 0.25 0.22 0.18 0.16 0.18 0.26 0.38 0.43 0.45 0.42
0.43 0.67 0.81 0.60 0.48 0.17 0.13 0.13 0.13 0.23 0.29 0.14 0.11 0.12 0.12 0.13 0.17 0.14 0.11 0.15 0.15 0.09 0.08 0.09 0.10 0.09 0.11 0.13 0.13 0.17 0.20 0.16 0.16 0.22 0.24 0.18 0.14 0.14 0.15 0.20 0.33 0.41 0.46 0.48
0.39 0.52 0.49 0.43 0.47 0.22 0.15 0.19 0.27 0.28 0.16 0.10 0.09 0.09 0.09 0.09 0.08 0.09 0.12 0.16 0.16 0.11 0.08 0.07 0.09 0.09 0.11 0.13 0.13 0.18 0.21 0.19 0.20 0.23 0.19 0.16 0.14 0.14 0.16 0.20 0.30 0.41 0.46 0.49
0.26 0.32 0.32 0.29 0.21 0.14 0.14 0.21 0.22 0.16 0.10 0.07 0.07 0.07 0.07 0.08 0.09 0.11 0.13 0.16 0.17 0.13 0.11 0.09 0.09 0.10 0.12 0.14 0.14 0.19 0.22 0.21 0.23 0.22 0.19 0.16 0.16 0.17 0.17 0.23 0.32 0.40 0.46 0.46
0.15 0.17 0.22 0.19 0.10 0.09 0.11 0.14 0.14 0.10 0.07 0.05 0.05 0.06 0.07 0.08 0.09 0.12 0.13 0.14 0.16 0.16 0.14 0.12 0.11 0.12 0.16 0.16 0.15 0.19 0.23 0.22 0.20 0.19 0.20 0.19 0.20 0.23 0.24 0.26 0.31 0.36 0.43 0.49
0.13 0.15 0.19 0.16 0.08 0.08 0.08 0.08 0.08 0.06 0.05 0.04 0.04 0.04 0.06 0.08 0.10 0.12 0.14 0.14 0.15 0.19 0.17 0.14 0.13 0.14 0.18 0.19 0.20 0.23 0.22 0.20 0.19 0.18 0.21 0.26 0.27 0.29 0.33 0.32 0.31 0.33 0.34 0.46
0.07 0.08 0.12 0.11 0.06 0.08 0.07 0.06 0.05 0.05 0.04 0.04 0.04 0.04 0.04 0.07 0.11 0.11 0.12 0.13 0.15 0.18 0.20 0.16 0.15 0.17 0.21 0.23 0.28 0.28 0.21 0.17 0.19 0.22 0.24 0.28 0.32 0.32 0.33 0.31 0.31 0.34 0.33 0.38

GEFSCGP_prec_meanprecacc_168.txt.gz
Total_Precipitation_Accumulation
0.56 0.69 0.73 0.58 0.52 0.48 0.41 0.40 0.32 0.21 0.19 0.19 0.20 0.19 0.11 0.07 0.08 0.08 0.07 0.08 0.08 0.07 0.08 0.13 0.19 0.26 0.29 0.30 0.35 0.46 0.57 0.68 0.70 0.74 0.73 0.68 0.69 0.68 0.63 0.55 0.51 0.58 0.53 0.43
0.69 0.56 0.38 0.33 0.34 0.43 0.46 0.46 0.35 0.23 0.21 0.26 0.23 0.18 0.11 0.07 0.07 0.08 0.08 0.07 0.07 0.08 0.09 0.14 0.19 0.24 0.27 0.29 0.32 0.42 0.54 0.64 0.69 0.68 0.71 0.65 0.65 0.65 0.65 0.60 0.54 0.54 0.60 0.54
0.58 0.36 0.26 0.37 0.41 0.51 0.51 0.43 0.32 0.27 0.27 0.31 0.32 0.27 0.14 0.08 0.08 0.10 0.11 0.11 0.10 0.09 0.11 0.15 0.18 0.21 0.24 0.27 0.29 0.33 0.46 0.59 0.66 0.66 0.74 0.79 0.81 0.81 0.75 0.69 0.59 0.54 0.56 0.56
0.46 0.27 0.29 0.42 0.45 0.47 0.48 0.28 0.25 0.29 0.39 0.41 0.36 0.41 0.20 0.11 0.10 0.10 0.12 0.14 0.13 0.11 0.12 0.16 0.20 0.23 0.24 0.27 0.29 0.32 0.39 0.53 0.66 0.66 0.70 0.75 0.81 0.78 0.70 0.64 0.60 0.57 0.57 0.58
0.50 0.29 0.30 0.42 0.36 0.34 0.36 0.26 0.27 0.34 0.43 0.46 0.35 0.42 0.25 0.14 0.13 0.10 0.09 0.09 0.10 0.10 0.13 0.17 0.21 0.26 0.29 0.33 0.38 0.36 0.42 0.49 0.65 0.67 0.63 0.66 0.67 0.70 0.67 0.70 0.68 0.66 0.64 0.63
0.41 0.29 0.30 0.29 0.25 0.27 0.33 0.38 0.44 0.49 0.66 0.69 0.29 0.30 0.27 0.22 0.21 0.14 0.10 0.10 0.10 0.10 0.13 0.17 0.23 0.31 0.35 0.38 0.47 0.45 0.47 0.50 0.60 0.70 0.65 0.63 0.62 0.65 0.70 0.72 0.76 0.76 0.73 0.69
0.51 0.39 0.34 0.29 0.35 0.42 0.52 0.75 1.05 1.06 0.99 0.57 0.14 0.18 0.25 0.19 0.20 0.17 0.14 0.15 0.13 0.13 0.14 0.17 0.24 0.34 0.35 0.37 0.49 0.50 0.49 0.52 0.54 0.66 0.70 0.63 0.60 0.59 0.62 0.68 0.70 0.74 0.78 0.74
0.58 0.48 0.37 0.33 0.40 0.50 0.50 0.64 0.83 0.74 0.45 0.18 0.09 0.15 0.18 0.13 0.11 0.11 0.13 0.13 0.14 0.13 0.14 0.18 0.22 0.29 0.34 0.34 0.43 0.51 0.51 0.53 0.52 0.58 0.69 0.71 0.65 0.62 0.58 0.62 0.67 0.68 0.70 0.69
0.57 0.36 0.23 0.24 0.23 0.28 0.37 0.42 0.39 0.49 0.32 0.18 0.12 0.10 0.10 0.08 0.05 0.07 0.11 0.12 0.15 0.17 0.19 0.21 0.22 0.24 0.26 0.32 0.37 0.44 0.54 0.57 0.56 0.54 0.62 0.76 0.81 0.71 0.61 0.55 0.60 0.63 0.63 0.64
0.64 0.45 0.22 0.25 0.35 0.34 0.34 0.39 0.50 0.66 0.52 0.27 0.13 0.12 0.17 0.12 0.09 0.08 0.10 0.12 0.12 0.16 0.22 0.25 0.25 0.26 0.25 0.27 0.33 0.38 0.48 0.57 0.60 0.54 0.56 0.68 0.89 0.87 0.72 0.62 0.57 0.58 0.59 0.61
0.56 0.59 0.35 0.34 0.48 0.47 0.38 0.48 0.62 0.65 0.44 0.31 0.17 0.15 0.19 0.15 0.10 0.08 0.08 0.08 0.10 0.12 0.16 0.20 0.23 0.26 0.27 0.26 0.32 0.36 0.40 0.50 0.57 0.52 0.54 0.61 0.74 0.93 0.88 0.74 0.62 0.58 0.59 0.61
0.55 0.65 0.49 0.31 0.30 0.31 0.36 0.40 0.47 0.58 0.43 0.23 0.18 0.12 0.08 0.07 0.07 0.06 0.06 0.06 0.07 0.10 0.12 0.14 0.18 0.23 0.25 0.27 0.30 0.32 0.36 0.44 0.52 0.51 0.52 0.56 0.59 0.77 0.96 0.89 0.74 0.63 0.60 0.62
0.83 0.99 0.79 0.55 0.46 0.43 0.50 0.44 0.39 0.41 0.40 0.26 0.19 0.10 0.05 0.03 0.03 0.03 0.04 0.05 0.07 0.09 0.12 0.13 0.17 0.19 0.22 0.27 0.32 0.31 0.31 0.38 0.45 0.51 0.53 0.51 0.53 0.60 0.72 0.88 0.82 0.70 0.62 0.59
0.94 1.03 0.75 0.60 0.48 0.45 0.45 0.34 0.34 0.47 0.53 0.26 0.10 0.07 0.04 0.04 0.04 0.04 0.04 0.05 0.06 0.07 0.12 0.15 0.16 0.16 0.19 0.24 0.33 0.31 0.30 0.36 0.37 0.44 0.51 0.47 0.44 0.48 0.54 0.68 0.83 0.79 0.68 0.61
0.81 0.79 0.39 0.23 0.17 0.17 0.20 0.19 0.19 0.31 0.31 0.22 0.09 0.07 0.07 0.07 0.07 0.07 0.09 0.09 0.08 0.07 0.09 0.14 0.16 0.14 0.19 0.25 0.34 0.34 0.28 0.29 0.29 0.34 0.42 0.43 0.44 0.47 0.50 0.53 0.65 0.77 0.74 0.62
0.80 0.72 0.34 0.19 0.13 0.13 0.14 0.12 0.13 0.14 0.12 0.10 0.07 0.06 0.07 0.08 0.08 0.08 0.11 0.11 0.11 0.10 0.10 0.12 0.15 0.14 0.17 0.23 0.32 0.37 0.30 0.28 0.25 0.29 0.34 0.37 0.43 0.50 0.53 0.52 0.58 0.64 0.70 0.68
0.77 0.74 0.58 0.30 0.13 0.24 0.25 0.14 0.13 0.12 0.10 0.12 0.13 0.09 0.07 0.08 0.07 0.10 0.14 0.14 0.14 0.13 0.12 0.12 0.14 0.15 0.17 0.20 0.28 0.34 0.32 0.29 0.26 0.27 0.32 0.34 0.35 0.45 0.50 0.53 0.59 0.60 0.62 0.68
0.52 0.66 0.79 0.49 0.34 0.51 0.21 0.08 0.08 0.10 0.11 0.12 0.11 0.08 0.07 0.08 0.08 0.10 0.15 0.17 0.16 0.14 0.13 0.12 0.14 0.15 0.15 0.19 0.23 0.28 0.29 0.28 0.27 0.28 0.33 0.35 0.33 0.37 0.44 0.53 0.55 0.56 0.58 0.57
0.23 0.53 0.89 0.77 0.55 0.29 0.12 0.10 0.11 0.13 0.16 0.11 0.09 0.08 0.07 0.07 0.07 0.08 0.07 0.10 0.15 0.14 0.12 0.12 0.13 0.13 0.15 0.19 0.21 0.27 0.29 0.26 0.27 0.32 0.35 0.34 0.31 0.32 0.38 0.45 0.50 0.53 0.54 0.49
0.22 0.46 0.90 0.83 0.63 0.26 0.14 0.11 0.09 0.12 0.24 0.12 0.10 0.11 0.10 0.10 0.16 0.12 0.07 0.11 0.16 0.11 0.11 0.11 0.12 0.11 0.16 0.20 0.20 0.25 0.26 0.21 0.24 0.29 0.34 0.31 0.27 0.25 0.25 0.32 0.45 0.50 0.52 0.49
0.45 0.71 0.87 0.66 0.52 0.18 0.13 0.13 0.13 0.23 0.29 0.14 0.11 0.12 0.12 0.14 0.18 0.14 0.11 0.15 0.16 0.10 0.10 0.11 0.12 0.12 0.17 0.20 0.18 0.23 0.25 0.21 0.22 0.29 0.32 0.26 0.23 0.23 0.23 0.28 0.40 0.49 0.54 0.56
0.39 0.53 0.51 0.46 0.52 0.24 0.15 0.19 0.27 0.28 0.16 0.10 0.09 0.09 0.09 0.09 0.08 0.09 0.12 0.17 0.17 0.11 0.10 0.08 0.11 0.12 0.16 0.19 0.18 0.24 0.27 0.24 0.25 0.28 0.25 0.22 0.21 0.22 0.23 0.28 0.37 0.49 0.55 0.58
0.26 0.32 0.33 0.30 0.21 0.14 0.14 0.21 0.22 0.16 0.10 0.07 0.07 0.07 0.07 0.08 0.09 0.11 0.14 0.16 0.18 0.14 0.12 0.10 0.10 0.12 0.16 0.18 0.19 0.25 0.29 0.26 0.27 0.26 0.23 0.21 0.21 0.21 0.23 0.29 0.39 0.49 0.54 0.54
0.16 0.17 0.22 0.19 0.10 0.09 0.11 0.14 0.14 0.10 0.07 0.05 0.05 0.06 0.07 0.08 0.10 0.12 0.14 0.15 0.16 0.16 0.15 0.13 0.12 0.14 0.19 0.20 0.20 0.25 0.29 0.26 0.24 0.22 0.24 0.23 0.25 0.28 0.30 0.33 0.39 0.45 0.53 0.58
0.13 0.15 0.19 0.17 0.08 0.09 0.09 0.09 0.09 0.07 0.05 0.04 0.04 0.04 0.06 0.08 0.10 0.12 0.14 0.15 0.16 0.20 0.18 0.16 0.15 0.16 0.22 0.24 0.25 0.28 0.25 0.23 0.23 0.22 0.26 0.30 0.31 0.34 0.37 0.37 0.38 0.41 0.42 0.54
0.07 0.08 0.12 0.12 0.07 0.08 0.08 0.06 0.05 0.05 0.04 0.04 0.04 0.04 0.04 0.07 0.11 0.12 0.13 0.14 0.16 0.19 0.20 0.18 0.17 0.19 0.24 0.27 0.32 0.31 0.23 0.20 0.22 0.26 0.28 0.33 0.36 0.37 0.37 0.35 0.37 0.43 0.44 0.47

GEFSCGP_prec_meanprecacc_174.txt.gz
Total_Precipitation_Accumulation
0.56 0.69 0.73 0.58 0.52 0.48 0.42 0.40 0.32 0.21 0.19 0.19 0.21 0.19 0.11 0.07 0.08 0.08 0.07 0.08 0.08 0.07 0.08 0.13 0.19 0.27 0.31 0.31 0.38 0.49 0.60 0.73 0.76 0.80 0.80 0.77 0.82 0.81 0.74 0.66 0.67 0.75 0.68 0.57
0.69 0.56 0.38 0.33 0.34 0.43 0.46 0.46 0.35 0.23 0.22 0.26 0.24 0.19 0.11 0.07 0.07 0.08 0.08 0.07 0.07 0.08 0.09 0.14 0.19 0.25 0.29 0.33 0.37 0.47 0.60 0.70 0.73 0.73 0.77 0.75 0.76 0.75 0.74 0.69 0.67 0.72 0.78 0.71
0.58 0.36 0.26 0.37 0.41 0.51 0.51 0.43 0.32 0.27 0.27 0.31 0.34 0.28 0.14 0.08 0.08 0.10 0.11 0.11 0.10 0.09 0.11 0.15 0.19 0.22 0.25 0.30 0.33 0.39 0.54 0.70 0.74 0.71 0.79 0.86 0.90 0.92 0.86 0.78 0.70 0.72 0.76 0.76
0.46 0.27 0.29 0.42 0.45 0.47 0.49 0.28 0.25 0.29 0.40 0.42 0.38 0.44 0.21 0.12 0.10 0.11 0.13 0.14 0.14 0.12 0.13 0.17 0.21 0.25 0.27 0.32 0.35 0.36 0.44 0.60 0.76 0.76 0.77 0.82 0.88 0.86 0.81 0.76 0.71 0.71 0.76 0.79
0.50 0.29 0.30 0.42 0.36 0.34 0.37 0.26 0.28 0.34 0.44 0.47 0.37 0.46 0.28 0.16 0.14 0.11 0.10 0.11 0.12 0.12 0.15 0.19 0.23 0.28 0.32 0.37 0.44 0.43 0.47 0.54 0.72 0.74 0.70 0.73 0.75 0.77 0.75 0.80 0.78 0.77 0.79 0.82
0.41 0.29 0.30 0.29 0.25 0.27 0.33 0.38 0.44 0.50 0.67 0.71 0.30 0.33 0.32 0.25 0.22 0.16 0.13 0.14 0.13 0.13 0.17 0.20 0.26 0.33 0.37 0.43 0.53 0.52 0.54 0.55 0.65 0.77 0.71 0.70 0.70 0.73 0.77 0.81 0.87 0.87 0.86 0.84
0.51 0.39 0.34 0.29 0.35 0.42 0.52 0.76 1.06 1.07 1.00 0.57 0.14 0.20 0.29 0.24 0.22 0.18 0.15 0.17 0.17 0.16 0.18 0.21 0.27 0.37 0.39 0.42 0.55 0.57 0.56 0.59 0.59 0.71 0.76 0.69 0.67 0.68 0.70 0.75 0.79 0.85 0.90 0.86
0.58 0.49 0.38 0.33 0.41 0.50 0.51 0.65 0.84 0.76 0.46 0.18 0.09 0.16 0.20 0.17 0.14 0.12 0.14 0.16 0.18 0.16 0.17 0.21 0.25 0.32 0.37 0.38 0.48 0.57 0.59 0.61 0.58 0.65 0.76 0.77 0.72 0.70 0.66 0.68 0.75 0.77 0.81 0.80
0.57 0.36 0.24 0.25 0.24 0.28 0.38 0.43 0.40 0.51 0.33 0.20 0.13 0.11 0.13 0.11 0.08 0.10 0.12 0.14 0.18 0.20 0.21 0.23 0.25 0.28 0.30 0.36 0.41 0.48 0.59 0.65 0.63 0.62 0.71 0.85 0.90 0.79 0.69 0.62 0.67 0.70 0.70 0.71
0.64 0.45 0.22 0.25 0.36 0.34 0.35 0.40 0.52 0.70 0.54 0.28 0.14 0.13 0.21 0.16 0.12 0.11 0.12 0.13 0.14 0.19 0.25 0.28 0.28 0.30 0.31 0.33 0.38 0.42 0.53 0.64 0.67 0.63 0.68 0.81 1.00 0.99 0.83 0.72 0.65 0.65 0.65 0.67
0.56 0.59 0.35 0.34 0.49 0.47 0.39 0.49 0.64 0.68 0.47 0.33 0.20 0.17 0.21 0.18 0.13 0.10 0.10 0.10 0.12 0.15 0.20 0.24 0.27 0.33 0.35 0.33 0.37 0.41 0.46 0.56 0.63 0.61 0.65 0.72 0.86 1.05 1.02 0.87 0.72 0.65 0.65 0.66
0.55 0.65 0.49 0.31 0.30 0.31 0.36 0.41 0.50 0.62 0.46 0.25 0.20 0.13 0.09 0.09 0.08 0.08 0.08 0.08 0.10 0.14 0.16 0.19 0.23 0.31 0.34 0.33 0.35 0.37 0.41 0.49 0.57 0.59 0.61 0.66 0.71 0.87 1.07 1.00 0.83 0.70 0.66 0.67
0.83 1.00 0.79 0.55 0.46 0.43 0.50 0.45 0.41 0.43 0.43 0.28 0.20 0.11 0.05 0.04 0.04 0.04 0.05 0.07 0.10 0.12 0.16 0.18 0.23 0.27 0.29 0.33 0.36 0.35 0.36 0.43 0.51 0.57 0.60 0.58 0.62 0.70 0.82 0.97 0.91 0.78 0.70 0.65
0.95 1.04 0.76 0.61 0.48 0.45 0.46 0.35 0.35 0.48 0.56 0.29 0.12 0.08 0.05 0.06 0.05 0.05 0.05 0.07 0.09 0.10 0.15 0.19 0.21 0.22 0.24 0.29 0.37 0.35 0.36 0.42 0.42 0.49 0.55 0.52 0.51 0.57 0.62 0.76 0.93 0.88 0.77 0.71
0.82 0.81 0.39 0.23 0.17 0.17 0.20 0.19 0.20 0.32 0.32 0.24 0.11 0.09 0.09 0.09 0.08 0.09 0.11 0.11 0.11 0.10 0.13 0.19 0.21 0.19 0.24 0.30 0.38 0.39 0.34 0.35 0.34 0.38 0.45 0.48 0.49 0.55 0.59 0.61 0.75 0.86 0.82 0.70
0.81 0.73 0.35 0.19 0.13 0.13 0.14 0.12 0.13 0.15 0.14 0.12 0.08 0.08 0.09 0.10 0.09 0.10 0.12 0.13 0.13 0.13 0.14 0.17 0.21 0.19 0.21 0.27 0.35 0.41 0.34 0.34 0.30 0.33 0.38 0.42 0.49 0.59 0.62 0.59 0.65 0.72 0.80 0.76
0.79 0.75 0.59 0.31 0.13 0.25 0.26 0.14 0.14 0.13 0.11 0.14 0.15 0.12 0.09 0.09 0.09 0.12 0.15 0.16 0.16 0.16 0.16 0.17 0.20 0.20 0.21 0.25 0.31 0.38 0.36 0.34 0.30 0.31 0.37 0.40 0.42 0.55 0.60 0.60 0.67 0.68 0.70 0.74
0.55 0.68 0.82 0.51 0.36 0.53 0.21 0.08 0.09 0.11 0.12 0.14 0.14 0.11 0.09 0.09 0.09 0.11 0.16 0.18 0.18 0.17 0.17 0.16 0.18 0.20 0.19 0.23 0.26 0.31 0.33 0.33 0.31 0.32 0.39 0.41 0.40 0.45 0.55 0.63 0.64 0.63 0.64 0.63
0.25 0.56 0.94 0.80 0.57 0.30 0.12 0.10 0.11 0.14 0.16 0.11 0.10 0.09 0.08 0.07 0.08 0.09 0.08 0.12 0.17 0.17 0.15 0.15 0.15 0.16 0.19 0.23 0.24 0.30 0.32 0.29 0.32 0.38 0.42 0.41 0.37 0.38 0.46 0.54 0.60 0.61 0.61 0.55
0.24 0.50 0.98 0.89 0.66 0.27 0.14 0.11 0.09 0.12 0.24 0.12 0.10 0.11 0.10 0.10 0.16 0.12 0.08 0.11 0.17 0.13 0.13 0.13 0.13 0.14 0.19 0.23 0.24 0.28 0.29 0.25 0.28 0.34 0.41 0.38 0.33 0.30 0.31 0.41 0.54 0.58 0.59 0.54
0.47 0.76 0.95 0.72 0.56 0.19 0.13 0.13 0.13 0.23 0.29 0.14 0.11 0.12 0.12 0.14 0.18 0.14 0.12 0.16 0.17 0.11 0.11 0.12 0.14 0.15 0.20 0.22 0.21 0.25 0.29 0.25 0.26 0.33 0.38 0.33 0.30 0.30 0.30 0.35 0.47 0.54 0.60 0.62
0.40 0.56 0.54 0.49 0.56 0.25 0.15 0.19 0.27 0.28 0.16 0.10 0.09 0.09 0.09 0.09 0.08 0.09 0.12 0.17 0.18 0.12 0.10 0.09 0.12 0.15 0.18 0.21 0.20 0.26 0.31 0.28 0.29 0.32 0.29 0.29 0.28 0.29 0.30 0.34 0.42 0.54 0.60 0.64
0.27 0.33 0.33 0.31 0.22 0.14 0.14 0.21 0.22 0.16 0.10 0.07 0.07 0.07 0.07 0.08 0.09 0.11 0.14 0.16 0.18 0.15 0.13 0.11 0.12 0.14 0.19 0.21 0.21 0.27 0.32 0.30 0.30 0.29 0.27 0.26 0.27 0.28 0.29 0.36 0.46 0.55 0.60 0.61
0.18 0.19 0.24 0.20 0.10 0.09 0.11 0.14 0.14 0.10 0.07 0.05 0.05 0.06 0.07 0.08 0.10 0.12 0.14 0.15 0.17 0.17 0.16 0.14 0.13 0.16 0.22 0.23 0.22 0.27 0.30 0.28 0.26 0.25 0.27 0.26 0.29 0.33 0.35 0.38 0.45 0.51 0.59 0.65
0.16 0.18 0.22 0.19 0.09 0.09 0.09 0.09 0.09 0.07 0.05 0.05 0.04 0.04 0.06 0.08 0.10 0.12 0.14 0.15 0.16 0.20 0.19 0.17 0.17 0.18 0.24 0.26 0.27 0.29 0.27 0.24 0.24 0.23 0.28 0.33 0.34 0.38 0.42 0.42 0.43 0.47 0.49 0.60
0.09 0.11 0.15 0.14 0.08 0.10 0.10 0.08 0.07 0.06 0.05 0.05 0.04 0.04 0.04 0.07 0.11 0.12 0.13 0.14 0.16 0.20 0.21 0.19 0.19 0.20 0.25 0.28 0.34 0.33 0.25 0.21 0.23 0.27 0.30 0.35 0.39 0.40 0.41 0.40 0.41 0.48 0.49 0.53

GEFSCGP_prec_meanprecacc_180.txt.gz
Total_Precipitation_Accumulation
0.56 0.69 0.73 0.58 0.52 0.48 0.42 0.40 0.32 0.21 0.19 0.19 0.21 0.19 0.11 0.07 0.08 0.08 0.07 0.08 0.08 0.07 0.08 0.13 0.19 0.27 0.31 0.32 0.38 0.50 0.61 0.75 0.80 0.86 0.85 0.82 0.86 0.85 0.78 0.72 0.73 0.80 0.74 0.64
0.69 0.56 0.38 0.33 0.34 0.43 0.46 0.46 0.35 0.23 0.22 0.26 0.24 0.19 0.11 0.07 0.07 0.08 0.08 0.07 0.07 0.08 0.09 0.14 0.19 0.25 0.29 0.33 0.37 0.48 0.62 0.73 0.77 0.77 0.83 0.81 0.83 0.82 0.82 0.77 0.76 0.81 0.85 0.77
0.58 0.36 0.26 0.37 0.41 0.51 0.51 0.43 0.32 0.27 0.27 0.31 0.34 0.28 0.14 0.08 0.08 0.10 0.11 0.11 0.10 0.10 0.11 0.15 0.19 0.22 0.25 0.30 0.34 0.40 0.56 0.73 0.79 0.76 0.86 0.92 0.98 1.01 0.96 0.89 0.82 0.83 0.86 0.82
0.46 0.27 0.29 0.42 0.45 0.47 0.49 0.28 0.25 0.29 0.40 0.42 0.38 0.44 0.21 0.12 0.10 0.11 0.13 0.14 0.14 0.12 0.13 0.17 0.21 0.25 0.27 0.32 0.36 0.38 0.47 0.62 0.81 0.84 0.86 0.91 0.95 0.95 0.96 0.90 0.82 0.82 0.87 0.89
0.50 0.29 0.30 0.42 0.36 0.34 0.37 0.26 0.28 0.34 0.44 0.47 0.37 0.47 0.28 0.16 0.14 0.11 0.10 0.11 0.12 0.12 0.15 0.19 0.23 0.29 0.32 0.39 0.46 0.45 0.49 0.57 0.76 0.79 0.77 0.84 0.87 0.87 0.92 0.97 0.88 0.86 0.90 0.93
0.41 0.29 0.31 0.29 0.25 0.27 0.33 0.38 0.45 0.50 0.67 0.71 0.30 0.33 0.32 0.26 0.23 0.16 0.13 0.14 0.13 0.14 0.17 0.21 0.27 0.34 0.39 0.44 0.55 0.54 0.57 0.57 0.68 0.81 0.75 0.75 0.79 0.82 0.87 0.92 0.96 0.95 0.96 0.95
0.51 0.39 0.34 0.29 0.35 0.42 0.52 0.76 1.07 1.07 1.00 0.57 0.14 0.20 0.30 0.25 0.23 0.18 0.15 0.18 0.17 0.17 0.19 0.23 0.30 0.38 0.40 0.43 0.56 0.59 0.59 0.62 0.62 0.76 0.80 0.74 0.74 0.77 0.78 0.84 0.87 0.92 0.98 0.96
0.58 0.49 0.38 0.33 0.41 0.50 0.51 0.65 0.84 0.76 0.46 0.18 0.09 0.16 0.21 0.19 0.15 0.13 0.14 0.16 0.18 0.17 0.18 0.22 0.26 0.33 0.38 0.38 0.49 0.59 0.61 0.64 0.62 0.70 0.82 0.82 0.79 0.81 0.76 0.79 0.85 0.85 0.87 0.88
0.57 0.37 0.24 0.25 0.24 0.28 0.38 0.43 0.40 0.52 0.34 0.20 0.14 0.11 0.14 0.13 0.10 0.11 0.12 0.14 0.18 0.20 0.21 0.23 0.25 0.28 0.31 0.37 0.43 0.51 0.62 0.68 0.68 0.68 0.80 0.94 0.98 0.90 0.81 0.75 0.77 0.79 0.77 0.78
0.64 0.45 0.22 0.25 0.36 0.34 0.35 0.40 0.53 0.71 0.55 0.29 0.14 0.14 0.23 0.19 0.15 0.13 0.13 0.13 0.14 0.19 0.25 0.28 0.28 0.30 0.32 0.34 0.40 0.45 0.57 0.67 0.71 0.68 0.74 0.88 1.09 1.10 0.95 0.87 0.76 0.74 0.73 0.73
0.56 0.59 0.35 0.34 0.49 0.47 0.39 0.49 0.65 0.69 0.47 0.35 0.20 0.17 0.23 0.22 0.17 0.13 0.11 0.10 0.12 0.15 0.20 0.24 0.27 0.33 0.36 0.35 0.40 0.44 0.50 0.60 0.67 0.64 0.68 0.77 0.93 1.14 1.14 1.02 0.87 0.77 0.74 0.72
0.55 0.65 0.49 0.31 0.30 0.31 0.36 0.42 0.50 0.64 0.47 0.26 0.21 0.14 0.10 0.12 0.12 0.10 0.09 0.08 0.10 0.14 0.16 0.19 0.23 0.32 0.36 0.37 0.39 0.41 0.47 0.54 0.61 0.62 0.64 0.71 0.77 0.94 1.14 1.08 0.93 0.83 0.79 0.75
0.84 1.01 0.80 0.55 0.46 0.43 0.51 0.45 0.42 0.44 0.43 0.29 0.22 0.11 0.06 0.07 0.08 0.06 0.06 0.08 0.10 0.13 0.16 0.18 0.24 0.29 0.33 0.39 0.42 0.41 0.43 0.50 0.55 0.61 0.64 0.63 0.68 0.76 0.88 1.03 0.97 0.88 0.82 0.76
0.97 1.07 0.77 0.61 0.49 0.45 0.46 0.35 0.35 0.49 0.56 0.30 0.13 0.09 0.06 0.08 0.11 0.09 0.07 0.09 0.11 0.11 0.16 0.21 0.24 0.26 0.31 0.38 0.45 0.44 0.46 0.49 0.48 0.55 0.62 0.58 0.57 0.64 0.68 0.81 0.98 0.98 0.88 0.80
0.86 0.85 0.42 0.24 0.17 0.17 0.21 0.19 0.20 0.32 0.33 0.24 0.12 0.10 0.10 0.10 0.11 0.12 0.13 0.14 0.13 0.12 0.15 0.22 0.25 0.25 0.31 0.40 0.49 0.51 0.47 0.43 0.41 0.45 0.52 0.54 0.55 0.62 0.65 0.66 0.79 0.96 0.90 0.77
0.85 0.77 0.37 0.20 0.13 0.13 0.14 0.12 0.13 0.15 0.14 0.12 0.08 0.09 0.11 0.11 0.10 0.11 0.13 0.15 0.15 0.16 0.17 0.21 0.25 0.25 0.31 0.38 0.47 0.56 0.49 0.44 0.37 0.39 0.44 0.47 0.53 0.65 0.67 0.64 0.69 0.79 0.86 0.81
0.83 0.79 0.62 0.32 0.14 0.25 0.27 0.14 0.14 0.14 0.11 0.14 0.16 0.13 0.11 0.12 0.11 0.13 0.16 0.16 0.17 0.19 0.21 0.22 0.25 0.29 0.34 0.37 0.45 0.53 0.50 0.46 0.38 0.36 0.41 0.43 0.46 0.59 0.66 0.66 0.71 0.73 0.76 0.82
0.59 0.72 0.87 0.54 0.37 0.55 0.22 0.08 0.09 0.11 0.12 0.14 0.14 0.12 0.11 0.12 0.12 0.13 0.17 0.20 0.21 0.22 0.22 0.23 0.26 0.32 0.32 0.34 0.36 0.42 0.44 0.42 0.39 0.37 0.42 0.44 0.44 0.48 0.59 0.68 0.68 0.67 0.68 0.69
0.28 0.61 1.01 0.86 0.60 0.31 0.12 0.10 0.11 0.14 0.16 0.11 0.10 0.09 0.09 0.10 0.09 0.10 0.10 0.14 0.21 0.22 0.22 0.22 0.25 0.29 0.28 0.29 0.29 0.35 0.38 0.35 0.36 0.42 0.46 0.45 0.41 0.42 0.50 0.58 0.62 0.64 0.65 0.59
0.27 0.56 1.08 0.97 0.71 0.28 0.14 0.11 0.09 0.12 0.24 0.12 0.10 0.11 0.10 0.11 0.17 0.13 0.09 0.13 0.20 0.17 0.18 0.20 0.22 0.21 0.24 0.27 0.28 0.32 0.33 0.28 0.31 0.38 0.45 0.41 0.37 0.34 0.34 0.43 0.56 0.61 0.62 0.58
0.54 0.86 1.06 0.80 0.61 0.21 0.13 0.13 0.13 0.24 0.29 0.14 0.11 0.12 0.12 0.14 0.19 0.15 0.14 0.16 0.18 0.13 0.13 0.16 0.18 0.19 0.24 0.26 0.24 0.28 0.31 0.29 0.29 0.36 0.41 0.37 0.33 0.32 0.32 0.37 0.50 0.58 0.64 0.65
0.47 0.65 0.63 0.56 0.63 0.28 0.16 0.20 0.28 0.29 0.16 0.10 0.09 0.09 0.09 0.09 0.09 0.10 0.13 0.18 0.18 0.13 0.11 0.11 0.14 0.17 0.21 0.23 0.23 0.28 0.33 0.31 0.32 0.34 0.31 0.31 0.31 0.32 0.34 0.37 0.46 0.57 0.64 0.68
0.34 0.43 0.42 0.38 0.28 0.17 0.16 0.22 0.23 0.16 0.10 0.07 0.07 0.07 0.07 0.08 0.09 0.11 0.14 0.17 0.19 0.15 0.14 0.12 0.13 0.16 0.20 0.23 0.23 0.28 0.33 0.31 0.32 0.31 0.29 0.27 0.29 0.31 0.32 0.40 0.49 0.58 0.64 0.66
0.23 0.25 0.31 0.26 0.14 0.11 0.12 0.15 0.15 0.10 0.07 0.05 0.05 0.06 0.07 0.08 0.10 0.12 0.14 0.16 0.17 0.17 0.16 0.15 0.15 0.17 0.23 0.24 0.23 0.27 0.31 0.29 0.27 0.26 0.28 0.28 0.31 0.35 0.37 0.41 0.48 0.55 0.63 0.68
0.20 0.23 0.28 0.24 0.12 0.11 0.11 0.10 0.10 0.08 0.06 0.05 0.05 0.05 0.06 0.08 0.10 0.12 0.14 0.15 0.17 0.20 0.19 0.18 0.17 0.18 0.24 0.27 0.28 0.30 0.27 0.25 0.24 0.24 0.29 0.35 0.36 0.40 0.44 0.45 0.46 0.50 0.52 0.64
0.12 0.15 0.21 0.20 0.12 0.13 0.12 0.10 0.09 0.08 0.07 0.07 0.06 0.06 0.05 0.08 0.12 0.12 0.13 0.14 0.16 0.20 0.21 0.19 0.19 0.21 0.26 0.29 0.34 0.33 0.25 0.21 0.24 0.27 0.31 0.37 0.41 0.42 0.44 0.43 0.44 0.50 0.52 0.56

GEFSCGP_prec_meanprecacc_186.txt.gz
Total_Precipitation_Accumulation
0.56 0.69 0.73 0.58 0.52 0.48 0.42 0.40 0.32 0.21 0.19 0.19 0.21 0.19 0.11 0.07 0.08 0.08 0.07 0.08 0.08 0.07 0.08 0.13 0.19 0.27 0.31 0.32 0.38 0.50 0.61 0.75 0.80 0.86 0.85 0.83 0.89 0.88 0.81 0.74 0.77 0.85 0.78 0.67
0.69 0.56 0.38 0.33 0.34 0.43 0.46 0.46 0.35 0.23 0.22 0.26 0.24 0.19 0.11 0.07 0.07 0.08 0.08 0.07 0.07 0.08 0.09 0.14 0.19 0.25 0.29 0.33 0.37 0.48 0.62 0.73 0.77 0.77 0.83 0.82 0.85 0.85 0.86 0.81 0.80 0.85 0.89 0.81
0.58 0.36 0.26 0.37 0.41 0.51 0.51 0.43 0.32 0.27 0.27 0.31 0.34 0.28 0.14 0.08 0.08 0.10 0.11 0.11 0.10 0.10 0.11 0.15 0.19 0.22 0.25 0.30 0.34 0.40 0.56 0.73 0.79 0.77 0.87 0.94 1.01 1.05 1.01 0.93 0.85 0.86 0.89 0.86
0.46 0.27 0.29 0.42 0.45 0.47 0.49 0.28 0.25 0.29 0.40 0.42 0.38 0.44 0.21 0.12 0.10 0.11 0.13 0.14 0.14 0.12 0.13 0.18 0.21 0.25 0.27 0.32 0.36 0.38 0.47 0.63 0.82 0.84 0.87 0.93 0.98 0.99 1.03 0.95 0.86 0.85 0.90 0.92
0.50 0.29 0.30 0.42 0.36 0.34 0.37 0.26 0.28 0.34 0.44 0.47 0.37 0.47 0.28 0.16 0.14 0.11 0.10 0.11 0.12 0.12 0.15 0.20 0.23 0.29 0.32 0.39 0.46 0.45 0.49 0.57 0.76 0.79 0.78 0.86 0.89 0.91 0.99 1.02 0.95 0.92 0.93 0.97
0.41 0.29 0.31 0.29 0.25 0.27 0.33 0.38 0.45 0.50 0.67 0.71 0.30 0.33 0.32 0.26 0.23 0.16 0.13 0.14 0.13 0.14 0.17 0.21 0.27 0.34 0.39 0.44 0.55 0.54 0.58 0.58 0.69 0.82 0.77 0.77 0.81 0.86 0.92 0.98 1.03 1.02 1.01 1.00
0.51 0.39 0.34 0.29 0.35 0.42 0.52 0.76 1.07 1.07 1.00 0.57 0.14 0.20 0.30 0.25 0.23 0.18 0.15 0.18 0.17 0.17 0.19 0.23 0.30 0.38 0.40 0.43 0.57 0.59 0.60 0.62 0.63 0.77 0.83 0.76 0.77 0.80 0.81 0.88 0.92 0.98 1.03 1.01
0.59 0.49 0.38 0.33 0.41 0.50 0.51 0.65 0.84 0.76 0.46 0.18 0.09 0.16 0.21 0.19 0.15 0.13 0.14 0.16 0.18 0.17 0.18 0.22 0.27 0.34 0.39 0.39 0.50 0.60 0.62 0.65 0.63 0.71 0.84 0.84 0.82 0.84 0.79 0.83 0.90 0.89 0.91 0.92
0.57 0.37 0.24 0.25 0.24 0.28 0.38 0.43 0.40 0.52 0.34 0.20 0.14 0.11 0.14 0.13 0.10 0.11 0.12 0.14 0.18 0.20 0.21 0.23 0.26 0.29 0.32 0.38 0.44 0.51 0.63 0.68 0.69 0.69 0.82 0.95 1.00 0.92 0.83 0.80 0.83 0.84 0.81 0.81
0.65 0.46 0.22 0.25 0.36 0.34 0.35 0.40 0.53 0.71 0.55 0.29 0.14 0.14 0.23 0.19 0.16 0.14 0.13 0.14 0.14 0.19 0.25 0.28 0.28 0.31 0.32 0.34 0.41 0.45 0.57 0.68 0.72 0.69 0.76 0.90 1.11 1.12 0.99 0.93 0.83 0.80 0.78 0.77
0.58 0.61 0.36 0.34 0.49 0.47 0.39 0.49 0.65 0.70 0.48 0.35 0.21 0.17 0.23 0.22 0.19 0.15 0.12 0.10 0.12 0.16 0.20 0.24 0.27 0.33 0.37 0.36 0.40 0.45 0.51 0.61 0.68 0.66 0.71 0.81 0.97 1.19 1.20 1.10 0.98 0.84 0.79 0.76
0.58 0.69 0.51 0.32 0.30 0.32 0.36 0.42 0.51 0.64 0.47 0.26 0.22 0.14 0.10 0.13 0.15 0.12 0.11 0.09 0.11 0.14 0.17 0.19 0.24 0.32 0.37 0.38 0.40 0.43 0.48 0.56 0.63 0.64 0.68 0.75 0.82 0.99 1.21 1.15 1.03 0.91 0.84 0.80
0.91 1.08 0.85 0.57 0.47 0.44 0.51 0.45 0.43 0.45 0.45 0.30 0.22 0.11 0.06 0.07 0.10 0.09 0.09 0.09 0.11 0.13 0.17 0.19 0.24 0.29 0.34 0.40 0.43 0.42 0.45 0.52 0.57 0.63 0.67 0.68 0.74 0.83 0.95 1.10 1.05 0.96 0.89 0.83
1.06 1.15 0.82 0.64 0.50 0.46 0.46 0.35 0.35 0.50 0.58 0.31 0.14 0.09 0.06 0.09 0.13 0.12 0.11 0.11 0.12 0.12 0.16 0.21 0.25 0.27 0.31 0.39 0.46 0.45 0.48 0.51 0.50 0.57 0.64 0.62 0.62 0.70 0.75 0.87 1.04 1.05 0.96 0.87
0.93 0.94 0.46 0.26 0.18 0.19 0.22 0.20 0.21 0.33 0.34 0.25 0.12 0.10 0.11 0.12 0.14 0.15 0.17 0.17 0.15 0.13 0.16 0.22 0.26 0.27 0.32 0.41 0.50 0.52 0.49 0.45 0.42 0.46 0.55 0.58 0.62 0.69 0.71 0.71 0.83 1.01 0.98 0.85
0.91 0.84 0.41 0.22 0.14 0.14 0.16 0.13 0.14 0.15 0.14 0.12 0.08 0.09 0.11 0.12 0.11 0.13 0.16 0.18 0.19 0.18 0.19 0.22 0.26 0.27 0.33 0.41 0.50 0.59 0.52 0.46 0.40 0.42 0.49 0.53 0.61 0.72 0.74 0.70 0.74 0.84 0.92 0.88
0.87 0.85 0.67 0.34 0.14 0.27 0.29 0.15 0.14 0.14 0.12 0.14 0.16 0.13 0.11 0.12 0.12 0.15 0.18 0.20 0.21 0.22 0.23 0.24 0.27 0.31 0.37 0.40 0.48 0.56 0.54 0.50 0.42 0.42 0.47 0.51 0.53 0.66 0.73 0.72 0.77 0.79 0.82 0.87
0.62 0.77 0.93 0.58 0.39 0.59 0.23 0.08 0.09 0.11 0.13 0.15 0.14 0.12 0.11 0.12 0.13 0.14 0.19 0.23 0.24 0.24 0.24 0.25 0.28 0.35 0.35 0.38 0.40 0.46 0.49 0.47 0.44 0.44 0.49 0.53 0.50 0.54 0.66 0.75 0.75 0.75 0.74 0.75
0.32 0.66 1.08 0.91 0.64 0.32 0.12 0.10 0.11 0.14 0.16 0.12 0.10 0.10 0.09 0.10 0.09 0.10 0.11 0.16 0.23 0.24 0.23 0.25 0.29 0.33 0.34 0.35 0.34 0.40 0.44 0.41 0.44 0.50 0.52 0.51 0.47 0.47 0.56 0.65 0.69 0.71 0.70 0.64
0.31 0.63 1.17 1.05 0.76 0.31 0.16 0.12 0.09 0.12 0.25 0.13 0.10 0.11 0.10 0.11 0.17 0.14 0.10 0.15 0.22 0.20 0.20 0.23 0.26 0.26 0.30 0.33 0.33 0.37 0.40 0.36 0.39 0.45 0.51 0.47 0.42 0.39 0.40 0.49 0.62 0.67 0.68 0.63
0.59 0.94 1.17 0.89 0.67 0.25 0.16 0.14 0.13 0.25 0.31 0.15 0.11 0.12 0.12 0.14 0.19 0.16 0.14 0.18 0.21 0.16 0.17 0.20 0.23 0.24 0.29 0.32 0.30 0.34 0.38 0.36 0.36 0.41 0.46 0.42 0.39 0.39 0.38 0.43 0.55 0.63 0.69 0.70
0.50 0.71 0.71 0.64 0.71 0.35 0.18 0.21 0.30 0.33 0.18 0.11 0.09 0.09 0.10 0.09 0.09 0.10 0.13 0.18 0.19 0.15 0.14 0.14 0.17 0.20 0.25 0.28 0.27 0.33 0.38 0.37 0.38 0.39 0.37 0.36 0.37 0.38 0.39 0.42 0.50 0.61 0.68 0.72
0.36 0.46 0.46 0.43 0.34 0.21 0.18 0.25 0.26 0.19 0.12 0.08 0.08 0.08 0.08 0.09 0.09 0.12 0.15 0.17 0.19 0.17 0.16 0.15 0.16 0.18 0.23 0.26 0.26 0.32 0.37 0.35 0.36 0.36 0.34 0.32 0.34 0.36 0.37 0.43 0.52 0.61 0.67 0.68
0.24 0.26 0.32 0.28 0.16 0.13 0.14 0.17 0.17 0.13 0.09 0.07 0.07 0.07 0.08 0.09 0.10 0.13 0.15 0.16 0.17 0.18 0.17 0.16 0.16 0.18 0.24 0.26 0.26 0.30 0.33 0.31 0.29 0.29 0.32 0.31 0.34 0.38 0.41 0.44 0.50 0.57 0.65 0.71
0.21 0.24 0.29 0.25 0.13 0.12 0.12 0.12 0.13 0.10 0.08 0.07 0.07 0.07 0.07 0.09 0.11 0.13 0.15 0.16 0.18 0.21 0.20 0.18 0.18 0.19 0.25 0.28 0.30 0.32 0.29 0.27 0.26 0.26 0.32 0.37 0.38 0.42 0.46 0.47 0.49 0.53 0.55 0.67
0.13 0.17 0.24 0.22 0.14 0.15 0.15 0.13 0.12 0.11 0.11 0.10 0.09 0.09 0.08 0.10 0.13 0.13 0.14 0.15 0.17 0.21 0.22 0.20 0.20 0.21 0.26 0.30 0.35 0.34 0.27 0.23 0.25 0.29 0.33 0.39 0.42 0.44 0.45 0.44 0.46 0.52 0.55 0.59

GEFSCGP_prec_meanprecacc_192.txt.gz
Total_Precipitation_Accumulation
0.56 0.69 0.73 0.58 0.52 0.48 0.42 0.40 0.32 0.21 0.19 0.19 0.21 0.19 0.11 0.07 0.08 0.08 0.07 0.08 0.08 0.07 0.08 0.13 0.19 0.27 0.31 0.32 0.38 0.50 0.61 0.75 0.80 0.86 0.85 0.83 0.89 0.88 0.82 0.75 0.78 0.87 0.81 0.71
0.69 0.56 0.38 0.33 0.34 0.43 0.46 0.46 0.35 0.23 0.22 0.26 0.24 0.19 0.11 0.07 0.07 0.08 0.08 0.07 0.07 0.08 0.09 0.14 0.19 0.25 0.29 0.33 0.37 0.48 0.62 0.73 0.77 0.77 0.84 0.82 0.85 0.86 0.87 0.82 0.82 0.88 0.94 0.86
0.58 0.37 0.26 0.37 0.41 0.51 0.51 0.43 0.32 0.27 0.27 0.31 0.34 0.28 0.14 0.08 0.08 0.10 0.11 0.11 0.10 0.10 0.11 0.15 0.19 0.22 0.25 0.30 0.34 0.40 0.56 0.74 0.80 0.78 0.88 0.95 1.02 1.06 1.02 0.95 0.88 0.89 0.92 0.90
0.46 0.28 0.29 0.42 0.45 0.47 0.49 0.28 0.25 0.29 0.40 0.42 0.38 0.44 0.21 0.12 0.10 0.11 0.13 0.14 0.14 0.12 0.13 0.18 0.21 0.25 0.27 0.32 0.36 0.38 0.47 0.64 0.83 0.86 0.88 0.94 0.98 1.00 1.04 0.96 0.88 0.86 0.91 0.93
0.50 0.29 0.31 0.42 0.36 0.34 0.37 0.26 0.28 0.34 0.44 0.47 0.37 0.47 0.28 0.16 0.14 0.11 0.10 0.11 0.12 0.12 0.15 0.20 0.24 0.29 0.32 0.39 0.46 0.45 0.50 0.58 0.78 0.82 0.81 0.87 0.91 0.92 1.00 1.03 0.96 0.92 0.94 0.98
0.41 0.29 0.31 0.29 0.25 0.27 0.33 0.39 0.45 0.50 0.68 0.71 0.30 0.33 0.32 0.26 0.23 0.16 0.13 0.14 0.13 0.14 0.17 0.21 0.27 0.34 0.39 0.44 0.55 0.55 0.58 0.58 0.69 0.84 0.80 0.79 0.83 0.86 0.92 0.98 1.03 1.03 1.01 1.01
0.52 0.39 0.34 0.29 0.35 0.42 0.53 0.77 1.07 1.08 1.01 0.57 0.14 0.20 0.30 0.25 0.23 0.18 0.15 0.18 0.17 0.17 0.19 0.23 0.30 0.38 0.40 0.43 0.57 0.59 0.60 0.62 0.63 0.78 0.84 0.78 0.78 0.81 0.82 0.89 0.93 0.98 1.04 1.03
0.60 0.49 0.38 0.33 0.41 0.50 0.51 0.65 0.85 0.76 0.46 0.18 0.09 0.16 0.21 0.19 0.15 0.13 0.14 0.16 0.18 0.17 0.18 0.22 0.27 0.34 0.39 0.39 0.50 0.60 0.63 0.65 0.64 0.72 0.85 0.85 0.84 0.86 0.80 0.84 0.90 0.91 0.92 0.94
0.60 0.38 0.24 0.25 0.24 0.29 0.38 0.43 0.40 0.53 0.34 0.20 0.14 0.11 0.14 0.13 0.10 0.11 0.12 0.14 0.18 0.20 0.21 0.23 0.26 0.29 0.32 0.38 0.45 0.52 0.64 0.70 0.70 0.70 0.83 0.98 1.03 0.95 0.85 0.81 0.85 0.87 0.83 0.84
0.70 0.49 0.22 0.26 0.36 0.35 0.35 0.40 0.54 0.73 0.56 0.29 0.14 0.14 0.23 0.19 0.16 0.14 0.13 0.14 0.14 0.19 0.25 0.28 0.28 0.31 0.32 0.34 0.41 0.46 0.58 0.69 0.74 0.71 0.78 0.92 1.14 1.16 1.01 0.94 0.85 0.82 0.80 0.79
0.62 0.65 0.38 0.35 0.50 0.48 0.40 0.50 0.67 0.71 0.48 0.35 0.21 0.17 0.23 0.22 0.19 0.15 0.12 0.11 0.12 0.16 0.20 0.24 0.27 0.34 0.37 0.36 0.40 0.45 0.51 0.61 0.69 0.67 0.72 0.82 0.98 1.21 1.22 1.12 0.99 0.85 0.80 0.77
0.62 0.74 0.54 0.33 0.31 0.32 0.37 0.43 0.52 0.67 0.49 0.27 0.22 0.14 0.10 0.13 0.15 0.12 0.11 0.09 0.11 0.14 0.17 0.20 0.24 0.32 0.37 0.38 0.40 0.43 0.48 0.56 0.63 0.64 0.68 0.76 0.84 1.02 1.24 1.18 1.04 0.92 0.85 0.81
0.97 1.15 0.90 0.61 0.51 0.47 0.53 0.47 0.45 0.48 0.47 0.31 0.23 0.12 0.06 0.07 0.10 0.09 0.09 0.09 0.11 0.13 0.17 0.19 0.25 0.30 0.34 0.40 0.43 0.42 0.45 0.52 0.57 0.63 0.68 0.70 0.78 0.86 0.98 1.12 1.07 0.97 0.91 0.86
1.11 1.22 0.88 0.69 0.53 0.50 0.49 0.37 0.37 0.53 0.61 0.32 0.14 0.09 0.06 0.09 0.13 0.13 0.12 0.12 0.12 0.13 0.17 0.22 0.25 0.27 0.32 0.39 0.46 0.45 0.48 0.51 0.50 0.57 0.64 0.63 0.65 0.73 0.78 0.89 1.06 1.07 0.98 0.89
0.97 0.98 0.49 0.29 0.20 0.21 0.24 0.21 0.22 0.35 0.35 0.27 0.12 0.10 0.11 0.12 0.14 0.16 0.17 0.18 0.16 0.14 0.16 0.23 0.27 0.27 0.33 0.41 0.50 0.52 0.49 0.45 0.42 0.47 0.55 0.60 0.64 0.72 0.75 0.75 0.86 1.03 1.00 0.87
0.94 0.87 0.43 0.24 0.16 0.17 0.18 0.14 0.15 0.17 0.15 0.13 0.09 0.09 0.11 0.12 0.11 0.14 0.16 0.18 0.20 0.19 0.19 0.23 0.28 0.28 0.34 0.41 0.50 0.59 0.52 0.47 0.40 0.42 0.49 0.55 0.64 0.77 0.79 0.74 0.78 0.87 0.95 0.91
0.89 0.88 0.70 0.37 0.16 0.31 0.33 0.18 0.17 0.16 0.13 0.15 0.17 0.14 0.11 0.13 0.13 0.16 0.19 0.20 0.22 0.23 0.24 0.25 0.29 0.32 0.38 0.41 0.48 0.57 0.54 0.50 0.42 0.42 0.48 0.53 0.56 0.71 0.77 0.77 0.82 0.83 0.86 0.92
0.65 0.80 0.97 0.61 0.43 0.64 0.27 0.12 0.12 0.13 0.15 0.17 0.16 0.12 0.11 0.13 0.13 0.15 0.20 0.24 0.25 0.25 0.25 0.26 0.30 0.37 0.37 0.39 0.41 0.48 0.50 0.48 0.45 0.45 0.51 0.56 0.53 0.58 0.71 0.80 0.80 0.79 0.79 0.80
0.35 0.71 1.14 0.96 0.67 0.36 0.15 0.12 0.14 0.17 0.19 0.14 0.12 0.10 0.09 0.10 0.10 0.11 0.12 0.17 0.24 0.25 0.25 0.27 0.31 0.35 0.36 0.36 0.35 0.42 0.47 0.46 0.47 0.52 0.55 0.55 0.51 0.51 0.61 0.69 0.76 0.77 0.76 0.70
0.34 0.67 1.23 1.10 0.81 0.35 0.20 0.14 0.11 0.15 0.29 0.15 0.12 0.13 0.11 0.12 0.17 0.14 0.11 0.16 0.23 0.21 0.22 0.25 0.29 0.29 0.32 0.35 0.34 0.40 0.44 0.40 0.44 0.48 0.54 0.51 0.46 0.43 0.44 0.54 0.68 0.74 0.74 0.69
0.63 1.00 1.21 0.92 0.71 0.28 0.19 0.15 0.15 0.29 0.35 0.16 0.13 0.13 0.13 0.15 0.20 0.16 0.14 0.18 0.21 0.17 0.18 0.21 0.24 0.26 0.32 0.35 0.32 0.36 0.42 0.41 0.43 0.46 0.51 0.46 0.43 0.44 0.43 0.49 0.61 0.70 0.77 0.77
0.53 0.74 0.74 0.67 0.75 0.37 0.20 0.22 0.33 0.36 0.20 0.13 0.11 0.11 0.11 0.10 0.09 0.11 0.14 0.18 0.20 0.16 0.15 0.16 0.19 0.22 0.27 0.29 0.29 0.36 0.41 0.42 0.45 0.46 0.43 0.42 0.44 0.46 0.47 0.50 0.57 0.68 0.76 0.80
0.40 0.50 0.50 0.46 0.37 0.24 0.20 0.27 0.28 0.22 0.15 0.10 0.09 0.09 0.09 0.09 0.09 0.12 0.15 0.17 0.20 0.18 0.17 0.17 0.18 0.20 0.24 0.27 0.28 0.34 0.40 0.39 0.42 0.42 0.40 0.39 0.42 0.44 0.46 0.52 0.59 0.68 0.74 0.75
0.26 0.28 0.35 0.30 0.17 0.14 0.15 0.18 0.19 0.15 0.12 0.10 0.10 0.09 0.09 0.10 0.11 0.13 0.16 0.17 0.18 0.18 0.18 0.17 0.19 0.21 0.26 0.28 0.28 0.32 0.37 0.35 0.34 0.35 0.38 0.37 0.40 0.45 0.48 0.53 0.57 0.63 0.71 0.76
0.23 0.26 0.31 0.27 0.14 0.13 0.13 0.14 0.15 0.13 0.11 0.10 0.11 0.10 0.09 0.10 0.12 0.13 0.16 0.17 0.18 0.21 0.20 0.19 0.20 0.21 0.27 0.30 0.32 0.34 0.32 0.31 0.31 0.31 0.37 0.42 0.44 0.48 0.52 0.54 0.55 0.59 0.60 0.72
0.15 0.19 0.26 0.24 0.16 0.18 0.17 0.15 0.14 0.13 0.13 0.13 0.12 0.12 0.10 0.12 0.15 0.14 0.15 0.16 0.18 0.22 0.23 0.21 0.21 0.23 0.28 0.31 0.37 0.37 0.30 0.27 0.29 0.34 0.38 0.45 0.49 0.49 0.50 0.49 0.51 0.57 0.59 0.63

GEFSCGP_prec_meanprecacc_198.txt.gz
Total_Precipitation_Accumulation
0.58 0.71 0.74 0.58 0.52 0.48 0.42 0.40 0.32 0.21 0.19 0.19 0.21 0.19 0.11 0.07 0.08 0.08 0.07 0.08 0.08 0.07 0.08 0.13 0.19 0.27 0.31 0.32 0.38 0.50 0.61 0.75 0.80 0.86 0.85 0.83 0.89 0.89 0.83 0.76 0.79 0.88 0.82 0.72
0.71 0.58 0.39 0.33 0.34 0.43 0.46 0.46 0.35 0.23 0.22 0.26 0.24 0.19 0.11 0.07 0.07 0.08 0.08 0.07 0.07 0.08 0.09 0.14 0.19 0.25 0.29 0.33 0.37 0.48 0.62 0.73 0.77 0.78 0.84 0.82 0.85 0.86 0.87 0.83 0.83 0.90 0.95 0.87
0.59 0.37 0.27 0.38 0.42 0.51 0.51 0.43 0.32 0.27 0.27 0.31 0.34 0.28 0.14 0.08 0.08 0.10 0.11 0.11 0.10 0.10 0.11 0.15 0.19 0.22 0.25 0.30 0.34 0.40 0.56 0.74 0.80 0.78 0.88 0.95 1.02 1.06 1.04 0.97 0.89 0.90 0.93 0.91
0.47 0.28 0.30 0.43 0.46 0.48 0.49 0.28 0.25 0.29 0.40 0.43 0.38 0.44 0.21 0.12 0.10 0.11 0.13 0.14 0.14 0.12 0.13 0.18 0.21 0.25 0.27 0.32 0.36 0.38 0.47 0.64 0.83 0.86 0.88 0.94 0.99 1.01 1.05 0.98 0.90 0.88 0.92 0.95
0.51 0.29 0.31 0.43 0.36 0.34 0.37 0.26 0.28 0.35 0.45 0.48 0.37 0.47 0.28 0.16 0.14 0.11 0.10 0.11 0.12 0.12 0.15 0.20 0.24 0.29 0.32 0.39 0.46 0.45 0.50 0.58 0.78 0.83 0.83 0.88 0.92 0.94 1.02 1.04 0.97 0.94 0.96 1.00
0.42 0.30 0.31 0.30 0.25 0.27 0.33 0.39 0.45 0.50 0.68 0.72 0.30 0.33 0.32 0.26 0.23 0.16 0.13 0.14 0.13 0.14 0.17 0.21 0.27 0.34 0.39 0.44 0.55 0.55 0.58 0.58 0.69 0.86 0.84 0.81 0.85 0.88 0.94 0.99 1.05 1.04 1.02 1.02
0.53 0.39 0.35 0.30 0.36 0.43 0.54 0.79 1.09 1.09 1.02 0.58 0.14 0.20 0.30 0.25 0.23 0.18 0.15 0.18 0.17 0.17 0.19 0.23 0.30 0.39 0.40 0.43 0.57 0.59 0.60 0.62 0.63 0.78 0.85 0.79 0.79 0.81 0.82 0.90 0.93 0.99 1.05 1.04
0.61 0.50 0.38 0.35 0.43 0.53 0.52 0.67 0.86 0.78 0.47 0.19 0.10 0.16 0.21 0.19 0.15 0.13 0.14 0.16 0.18 0.17 0.18 0.22 0.27 0.34 0.39 0.39 0.50 0.60 0.63 0.65 0.64 0.72 0.85 0.87 0.85 0.86 0.81 0.85 0.91 0.92 0.94 0.95
0.62 0.39 0.24 0.26 0.25 0.30 0.40 0.45 0.41 0.55 0.36 0.20 0.14 0.11 0.14 0.13 0.10 0.11 0.12 0.14 0.18 0.20 0.21 0.23 0.26 0.29 0.32 0.38 0.45 0.52 0.64 0.70 0.70 0.70 0.83 0.99 1.04 0.96 0.86 0.82 0.87 0.88 0.85 0.86
0.72 0.50 0.23 0.26 0.37 0.37 0.37 0.42 0.55 0.76 0.59 0.30 0.15 0.14 0.23 0.19 0.16 0.14 0.13 0.14 0.14 0.19 0.25 0.28 0.28 0.31 0.32 0.34 0.41 0.46 0.58 0.69 0.74 0.71 0.78 0.93 1.15 1.17 1.02 0.96 0.86 0.83 0.82 0.82
0.64 0.68 0.40 0.37 0.52 0.51 0.43 0.53 0.70 0.75 0.51 0.37 0.22 0.18 0.24 0.22 0.19 0.15 0.12 0.11 0.12 0.16 0.20 0.24 0.27 0.34 0.37 0.36 0.40 0.45 0.51 0.61 0.69 0.67 0.72 0.82 0.99 1.21 1.23 1.12 1.00 0.86 0.82 0.79
0.65 0.78 0.58 0.35 0.33 0.35 0.41 0.47 0.57 0.73 0.53 0.29 0.24 0.16 0.11 0.13 0.15 0.13 0.11 0.09 0.11 0.15 0.17 0.20 0.24 0.32 0.37 0.38 0.40 0.43 0.48 0.56 0.63 0.64 0.68 0.77 0.85 1.02 1.24 1.18 1.05 0.93 0.86 0.82
1.01 1.21 0.94 0.65 0.56 0.50 0.57 0.50 0.48 0.51 0.50 0.33 0.26 0.13 0.07 0.08 0.11 0.09 0.09 0.09 0.11 0.13 0.17 0.19 0.25 0.30 0.34 0.40 0.43 0.42 0.45 0.52 0.57 0.64 0.68 0.70 0.78 0.87 0.98 1.13 1.08 0.99 0.92 0.87
1.16 1.27 0.92 0.73 0.59 0.54 0.52 0.38 0.38 0.55 0.64 0.33 0.15 0.10 0.07 0.09 0.13 0.13 0.12 0.12 0.12 0.13 0.17 0.22 0.25 0.27 0.32 0.39 0.46 0.45 0.48 0.51 0.50 0.57 0.65 0.64 0.65 0.73 0.78 0.90 1.08 1.09 1.00 0.91
1.02 1.02 0.51 0.30 0.22 0.24 0.26 0.22 0.23 0.36 0.37 0.28 0.13 0.11 0.12 0.12 0.14 0.16 0.17 0.18 0.16 0.14 0.16 0.23 0.27 0.27 0.33 0.41 0.50 0.53 0.49 0.45 0.42 0.47 0.55 0.61 0.65 0.72 0.75 0.76 0.87 1.05 1.02 0.88
0.97 0.91 0.45 0.25 0.17 0.18 0.19 0.15 0.16 0.18 0.17 0.15 0.10 0.10 0.13 0.13 0.11 0.14 0.17 0.18 0.20 0.19 0.19 0.23 0.28 0.28 0.34 0.41 0.51 0.60 0.53 0.47 0.40 0.43 0.50 0.56 0.65 0.78 0.80 0.75 0.79 0.89 0.97 0.92
0.93 0.91 0.73 0.38 0.18 0.33 0.35 0.21 0.19 0.18 0.15 0.18 0.20 0.16 0.12 0.13 0.13 0.16 0.19 0.21 0.22 0.23 0.25 0.26 0.29 0.32 0.38 0.41 0.49 0.57 0.55 0.51 0.43 0.44 0.49 0.54 0.58 0.72 0.79 0.78 0.83 0.84 0.87 0.94
0.68 0.83 1.02 0.64 0.46 0.69 0.31 0.15 0.15 0.16 0.17 0.19 0.18 0.14 0.12 0.13 0.13 0.15 0.20 0.24 0.26 0.26 0.26 0.27 0.31 0.37 0.37 0.40 0.42 0.48 0.51 0.49 0.46 0.47 0.53 0.57 0.55 0.60 0.72 0.81 0.82 0.81 0.81 0.83
0.37 0.74 1.18 1.00 0.72 0.40 0.17 0.15 0.17 0.21 0.23 0.17 0.13 0.11 0.10 0.10 0.10 0.11 0.12 0.18 0.25 0.26 0.25 0.27 0.31 0.36 0.37 0.36 0.36 0.42 0.48 0.46 0.48 0.53 0.56 0.57 0.52 0.53 0.62 0.71 0.78 0.79 0.79 0.74
0.37 0.71 1.28 1.14 0.85 0.39 0.23 0.16 0.13 0.17 0.33 0.17 0.13 0.14 0.12 0.13 0.19 0.15 0.11 0.16 0.24 0.22 0.22 0.26 0.29 0.30 0.33 0.36 0.35 0.40 0.45 0.41 0.45 0.49 0.55 0.52 0.47 0.44 0.45 0.55 0.70 0.77 0.77 0.73
0.67 1.05 1.27 0.97 0.75 0.31 0.21 0.17 0.16 0.31 0.38 0.18 0.15 0.15 0.14 0.16 0.22 0.17 0.15 0.19 0.22 0.17 0.19 0.22 0.25 0.27 0.33 0.36 0.33 0.37 0.42 0.41 0.43 0.47 0.52 0.47 0.44 0.44 0.44 0.50 0.63 0.71 0.79 0.81
0.56 0.78 0.78 0.70 0.79 0.41 0.21 0.23 0.35 0.39 0.22 0.15 0.13 0.12 0.12 0.11 0.10 0.11 0.14 0.19 0.20 0.16 0.16 0.16 0.19 0.23 0.28 0.31 0.31 0.37 0.43 0.43 0.46 0.47 0.44 0.43 0.45 0.47 0.48 0.51 0.59 0.69 0.78 0.85
0.44 0.55 0.53 0.49 0.41 0.27 0.22 0.30 0.31 0.24 0.17 0.12 0.11 0.11 0.10 0.10 0.10 0.12 0.15 0.17 0.20 0.18 0.17 0.17 0.19 0.21 0.26 0.29 0.30 0.37 0.43 0.40 0.43 0.43 0.41 0.40 0.44 0.46 0.48 0.53 0.61 0.69 0.77 0.80
0.29 0.31 0.38 0.33 0.20 0.16 0.17 0.20 0.21 0.16 0.13 0.11 0.11 0.11 0.10 0.10 0.11 0.13 0.16 0.17 0.18 0.19 0.18 0.18 0.20 0.22 0.27 0.29 0.29 0.35 0.40 0.37 0.36 0.36 0.40 0.38 0.42 0.47 0.51 0.56 0.61 0.66 0.75 0.81
0.25 0.28 0.34 0.31 0.17 0.14 0.14 0.15 0.16 0.14 0.12 0.11 0.12 0.11 0.11 0.11 0.13 0.14 0.17 0.18 0.19 0.22 0.21 0.20 0.21 0.22 0.28 0.31 0.33 0.36 0.35 0.33 0.33 0.33 0.39 0.44 0.46 0.51 0.56 0.59 0.61 0.64 0.66 0.79
0.17 0.22 0.29 0.28 0.19 0.19 0.18 0.16 0.15 0.14 0.14 0.14 0.14 0.13 0.12 0.13 0.17 0.16 0.16 0.18 0.20 0.23 0.24 0.22 0.23 0.24 0.29 0.33 0.39 0.38 0.32 0.30 0.32 0.36 0.40 0.47 0.52 0.53 0.54 0.54 0.57 0.64 0.66 0.70

GEFSCGP_prec_meanprecacc_204.txt.gz
Total_Precipitation_Accumulation
0.63 0.75 0.78 0.61 0.55 0.50 0.42 0.41 0.32 0.21 0.19 0.20 0.21 0.19 0.11 0.07 0.08 0.08 0.07 0.08 0.08 0.07 0.08 0.13 0.19 0.27 0.31 0.32 0.38 0.50 0.62 0.75 0.80 0.86 0.86 0.84 0.90 0.90 0.84 0.76 0.79 0.88 0.83 0.73
0.75 0.60 0.40 0.35 0.36 0.45 0.48 0.47 0.35 0.23 0.22 0.26 0.24 0.19 0.11 0.07 0.07 0.08 0.08 0.07 0.07 0.08 0.09 0.14 0.19 0.25 0.29 0.33 0.37 0.48 0.62 0.73 0.77 0.78 0.84 0.82 0.86 0.87 0.89 0.84 0.84 0.90 0.96 0.88
0.62 0.38 0.28 0.39 0.43 0.53 0.53 0.44 0.32 0.27 0.27 0.31 0.34 0.28 0.14 0.08 0.08 0.10 0.11 0.11 0.10 0.10 0.11 0.15 0.19 0.22 0.25 0.30 0.34 0.40 0.56 0.74 0.80 0.78 0.88 0.95 1.02 1.07 1.05 0.98 0.91 0.91 0.94 0.92
0.50 0.29 0.31 0.45 0.47 0.49 0.50 0.29 0.26 0.30 0.40 0.43 0.38 0.44 0.21 0.12 0.10 0.11 0.13 0.14 0.14 0.12 0.13 0.18 0.21 0.25 0.27 0.32 0.36 0.38 0.47 0.64 0.84 0.86 0.88 0.94 0.99 1.01 1.06 0.99 0.92 0.90 0.94 0.97
0.54 0.30 0.32 0.45 0.38 0.35 0.37 0.27 0.29 0.36 0.46 0.49 0.38 0.47 0.28 0.16 0.14 0.11 0.10 0.11 0.12 0.12 0.15 0.20 0.24 0.29 0.32 0.39 0.46 0.45 0.50 0.58 0.78 0.83 0.83 0.88 0.92 0.94 1.02 1.05 0.98 0.95 0.98 1.02
0.43 0.31 0.32 0.31 0.27 0.28 0.34 0.40 0.46 0.52 0.70 0.74 0.30 0.34 0.33 0.26 0.23 0.16 0.13 0.14 0.13 0.14 0.17 0.21 0.27 0.34 0.39 0.44 0.55 0.55 0.58 0.58 0.69 0.86 0.84 0.81 0.85 0.88 0.94 0.99 1.05 1.05 1.03 1.04
0.55 0.41 0.36 0.31 0.38 0.45 0.56 0.81 1.14 1.13 1.06 0.60 0.14 0.20 0.30 0.25 0.23 0.18 0.15 0.18 0.17 0.17 0.19 0.23 0.30 0.39 0.40 0.43 0.57 0.59 0.60 0.62 0.63 0.78 0.85 0.79 0.79 0.81 0.82 0.90 0.94 1.00 1.06 1.05
0.64 0.52 0.39 0.35 0.44 0.55 0.55 0.70 0.91 0.81 0.49 0.19 0.10 0.17 0.22 0.20 0.16 0.14 0.14 0.16 0.18 0.17 0.18 0.23 0.27 0.34 0.39 0.39 0.50 0.60 0.63 0.65 0.64 0.72 0.85 0.87 0.85 0.86 0.81 0.86 0.92 0.92 0.94 0.96
0.65 0.40 0.25 0.26 0.25 0.32 0.44 0.49 0.44 0.58 0.38 0.21 0.15 0.12 0.15 0.14 0.11 0.13 0.14 0.14 0.18 0.20 0.21 0.23 0.26 0.29 0.32 0.38 0.45 0.52 0.64 0.70 0.70 0.70 0.83 0.99 1.04 0.96 0.86 0.83 0.87 0.89 0.87 0.89
0.75 0.52 0.23 0.27 0.38 0.38 0.40 0.46 0.59 0.81 0.62 0.31 0.16 0.17 0.27 0.22 0.18 0.16 0.14 0.14 0.14 0.19 0.25 0.28 0.28 0.31 0.32 0.34 0.41 0.46 0.58 0.69 0.74 0.71 0.78 0.93 1.15 1.17 1.02 0.96 0.86 0.84 0.83 0.84
0.67 0.71 0.41 0.37 0.53 0.52 0.45 0.57 0.74 0.78 0.54 0.39 0.24 0.23 0.28 0.26 0.21 0.16 0.12 0.11 0.12 0.16 0.20 0.24 0.27 0.34 0.37 0.36 0.40 0.45 0.51 0.61 0.69 0.67 0.72 0.82 0.99 1.21 1.23 1.13 1.00 0.86 0.82 0.79
0.67 0.82 0.61 0.36 0.33 0.36 0.42 0.49 0.61 0.77 0.55 0.31 0.27 0.21 0.15 0.15 0.15 0.13 0.11 0.09 0.11 0.15 0.17 0.20 0.24 0.32 0.37 0.38 0.40 0.43 0.48 0.56 0.63 0.64 0.68 0.77 0.85 1.02 1.24 1.19 1.05 0.93 0.86 0.83
1.04 1.24 0.98 0.69 0.58 0.51 0.58 0.52 0.50 0.55 0.53 0.35 0.29 0.18 0.09 0.08 0.11 0.09 0.09 0.10 0.11 0.14 0.17 0.19 0.25 0.30 0.34 0.40 0.43 0.42 0.45 0.52 0.57 0.64 0.68 0.70 0.78 0.87 0.98 1.13 1.08 0.99 0.92 0.88
1.21 1.31 0.94 0.76 0.62 0.58 0.55 0.40 0.39 0.58 0.67 0.36 0.17 0.12 0.08 0.10 0.14 0.13 0.12 0.12 0.12 0.13 0.17 0.22 0.25 0.27 0.32 0.39 0.46 0.45 0.48 0.51 0.50 0.57 0.65 0.64 0.65 0.73 0.78 0.90 1.08 1.09 1.00 0.92
1.05 1.06 0.53 0.31 0.23 0.26 0.28 0.24 0.24 0.38 0.39 0.30 0.15 0.13 0.14 0.13 0.15 0.17 0.18 0.18 0.16 0.14 0.17 0.23 0.27 0.27 0.33 0.41 0.50 0.53 0.49 0.45 0.42 0.47 0.55 0.61 0.65 0.72 0.75 0.76 0.87 1.05 1.02 0.89
0.99 0.92 0.46 0.25 0.18 0.20 0.21 0.18 0.19 0.21 0.20 0.18 0.13 0.14 0.15 0.14 0.12 0.14 0.17 0.19 0.20 0.20 0.20 0.23 0.28 0.28 0.34 0.41 0.51 0.60 0.53 0.47 0.40 0.43 0.50 0.56 0.65 0.78 0.80 0.75 0.79 0.89 0.97 0.94
0.94 0.92 0.74 0.39 0.18 0.34 0.37 0.24 0.22 0.21 0.18 0.21 0.23 0.19 0.14 0.15 0.15 0.17 0.20 0.21 0.23 0.23 0.25 0.26 0.30 0.33 0.38 0.41 0.49 0.57 0.55 0.51 0.44 0.44 0.49 0.54 0.58 0.72 0.79 0.79 0.83 0.85 0.89 0.97
0.69 0.85 1.04 0.65 0.47 0.71 0.33 0.16 0.17 0.19 0.21 0.22 0.20 0.16 0.14 0.15 0.15 0.16 0.21 0.24 0.26 0.26 0.26 0.27 0.32 0.38 0.38 0.40 0.42 0.48 0.51 0.49 0.47 0.47 0.53 0.57 0.55 0.60 0.73 0.83 0.84 0.83 0.84 0.87
0.38 0.76 1.21 1.03 0.74 0.42 0.18 0.16 0.20 0.25 0.26 0.20 0.15 0.13 0.11 0.11 0.11 0.12 0.13 0.18 0.25 0.26 0.26 0.28 0.32 0.37 0.37 0.37 0.36 0.43 0.48 0.47 0.48 0.54 0.57 0.58 0.53 0.54 0.64 0.73 0.80 0.82 0.82 0.78
0.38 0.72 1.32 1.18 0.88 0.41 0.25 0.17 0.14 0.19 0.35 0.19 0.15 0.16 0.13 0.14 0.20 0.16 0.12 0.17 0.24 0.22 0.23 0.26 0.30 0.31 0.34 0.37 0.36 0.41 0.45 0.41 0.46 0.49 0.56 0.53 0.47 0.44 0.45 0.55 0.71 0.78 0.79 0.75
0.70 1.09 1.32 1.01 0.79 0.34 0.23 0.18 0.17 0.33 0.41 0.20 0.16 0.17 0.15 0.18 0.24 0.19 0.16 0.20 0.23 0.18 0.19 0.22 0.26 0.28 0.35 0.38 0.34 0.38 0.43 0.42 0.44 0.48 0.53 0.48 0.44 0.45 0.44 0.50 0.63 0.72 0.80 0.82
0.61 0.83 0.82 0.74 0.82 0.44 0.23 0.25 0.36 0.42 0.24 0.16 0.14 0.14 0.13 0.12 0.11 0.12 0.14 0.19 0.21 0.17 0.16 0.16 0.20 0.24 0.30 0.33 0.32 0.38 0.44 0.44 0.46 0.48 0.44 0.44 0.46 0.47 0.48 0.51 0.59 0.70 0.79 0.85
0.48 0.60 0.58 0.53 0.46 0.31 0.25 0.32 0.33 0.26 0.18 0.13 0.13 0.12 0.11 0.11 0.10 0.12 0.16 0.18 0.20 0.18 0.18 0.17 0.19 0.21 0.27 0.30 0.32 0.39 0.44 0.42 0.44 0.44 0.42 0.40 0.44 0.46 0.48 0.54 0.61 0.70 0.77 0.81
0.32 0.34 0.42 0.38 0.25 0.20 0.21 0.23 0.23 0.18 0.15 0.13 0.13 0.12 0.12 0.11 0.12 0.14 0.16 0.17 0.18 0.19 0.18 0.18 0.20 0.22 0.28 0.31 0.31 0.37 0.42 0.38 0.36 0.37 0.40 0.39 0.43 0.49 0.52 0.57 0.61 0.66 0.76 0.83
0.27 0.30 0.37 0.35 0.21 0.17 0.17 0.18 0.18 0.16 0.14 0.13 0.14 0.13 0.12 0.12 0.13 0.15 0.17 0.18 0.19 0.22 0.21 0.20 0.22 0.23 0.29 0.32 0.35 0.38 0.37 0.35 0.34 0.34 0.40 0.45 0.48 0.52 0.57 0.60 0.62 0.65 0.68 0.82
0.19 0.24 0.32 0.31 0.22 0.22 0.21 0.18 0.17 0.16 0.16 0.16 0.16 0.15 0.13 0.14 0.18 0.16 0.17 0.19 0.21 0.24 0.25 0.23 0.23 0.25 0.30 0.34 0.40 0.40 0.35 0.32 0.34 0.38 0.41 0.48 0.52 0.54 0.55 0.55 0.58 0.66 0.68 0.73

GEFSCGP_prec_meanprecacc_210.txt.gz
Total_Precipitation_Accumulation
0.70 0.80 0.81 0.63 0.57 0.53 0.47 0.45 0.35 0.22 0.20 0.20 0.21 0.19 0.11 0.07 0.08 0.08 0.07 0.08 0.08 0.07 0.08 0.13 0.19 0.27 0.31 0.32 0.38 0.50 0.62 0.75 0.81 0.87 0.86 0.84 0.91 0.91 0.85 0.78 0.81 0.90 0.85 0.76
0.80 0.64 0.42 0.35 0.37 0.47 0.51 0.50 0.38 0.24 0.23 0.28 0.25 0.19 0.11 0.07 0.07 0.08 0.08 0.07 0.07 0.08 0.09 0.14 0.19 0.25 0.29 0.33 0.37 0.49 0.63 0.74 0.78 0.78 0.84 0.83 0.86 0.88 0.90 0.86 0.85 0.92 0.97 0.90
0.65 0.40 0.29 0.40 0.44 0.54 0.54 0.45 0.33 0.28 0.28 0.32 0.34 0.28 0.15 0.09 0.08 0.10 0.11 0.11 0.10 0.10 0.11 0.15 0.19 0.22 0.25 0.30 0.34 0.40 0.56 0.74 0.81 0.79 0.89 0.96 1.03 1.08 1.07 1.00 0.92 0.92 0.95 0.93
0.53 0.30 0.32 0.46 0.48 0.51 0.52 0.30 0.27 0.31 0.41 0.44 0.39 0.45 0.22 0.13 0.11 0.11 0.13 0.15 0.14 0.12 0.13 0.18 0.21 0.25 0.27 0.32 0.36 0.38 0.48 0.64 0.84 0.87 0.89 0.95 0.99 1.02 1.06 0.99 0.92 0.91 0.95 0.98
0.58 0.32 0.34 0.46 0.39 0.37 0.39 0.27 0.30 0.37 0.47 0.50 0.38 0.48 0.29 0.16 0.15 0.12 0.11 0.12 0.12 0.12 0.15 0.20 0.24 0.29 0.32 0.39 0.46 0.45 0.50 0.58 0.78 0.84 0.84 0.89 0.92 0.94 1.02 1.05 0.99 0.96 0.99 1.03
0.45 0.33 0.34 0.32 0.27 0.29 0.36 0.41 0.48 0.54 0.73 0.77 0.31 0.34 0.34 0.28 0.26 0.18 0.14 0.14 0.14 0.14 0.18 0.22 0.27 0.34 0.39 0.44 0.55 0.55 0.58 0.58 0.70 0.86 0.84 0.81 0.86 0.88 0.94 1.00 1.05 1.06 1.04 1.05
0.58 0.44 0.39 0.32 0.39 0.47 0.59 0.86 1.21 1.21 1.13 0.62 0.15 0.21 0.32 0.27 0.26 0.20 0.16 0.18 0.17 0.17 0.20 0.25 0.31 0.39 0.40 0.43 0.57 0.59 0.60 0.62 0.63 0.78 0.85 0.80 0.80 0.82 0.83 0.90 0.94 1.00 1.06 1.05
0.69 0.56 0.43 0.38 0.46 0.58 0.59 0.75 0.96 0.86 0.53 0.21 0.11 0.18 0.24 0.22 0.17 0.15 0.15 0.16 0.19 0.17 0.18 0.23 0.27 0.34 0.39 0.39 0.50 0.60 0.63 0.65 0.64 0.72 0.85 0.87 0.85 0.87 0.82 0.86 0.92 0.92 0.95 0.96
0.69 0.42 0.27 0.28 0.26 0.33 0.47 0.53 0.47 0.61 0.40 0.23 0.17 0.15 0.17 0.14 0.12 0.13 0.14 0.14 0.18 0.20 0.21 0.23 0.26 0.30 0.32 0.38 0.45 0.52 0.64 0.70 0.70 0.70 0.83 0.99 1.04 0.96 0.87 0.83 0.87 0.89 0.88 0.89
0.78 0.54 0.25 0.28 0.39 0.40 0.43 0.49 0.63 0.85 0.65 0.33 0.17 0.19 0.29 0.23 0.19 0.16 0.14 0.14 0.14 0.19 0.25 0.28 0.28 0.31 0.32 0.34 0.41 0.46 0.58 0.69 0.74 0.71 0.78 0.93 1.15 1.17 1.03 0.96 0.86 0.84 0.83 0.84
0.70 0.73 0.43 0.39 0.57 0.55 0.46 0.59 0.78 0.82 0.57 0.41 0.25 0.25 0.31 0.27 0.21 0.16 0.13 0.11 0.12 0.16 0.20 0.25 0.27 0.34 0.37 0.36 0.40 0.45 0.51 0.61 0.69 0.67 0.72 0.82 0.99 1.22 1.23 1.13 1.01 0.87 0.82 0.80
0.70 0.85 0.62 0.37 0.35 0.37 0.44 0.51 0.64 0.81 0.59 0.34 0.29 0.23 0.17 0.15 0.16 0.13 0.12 0.10 0.11 0.15 0.17 0.20 0.24 0.32 0.37 0.38 0.40 0.43 0.48 0.56 0.63 0.64 0.68 0.77 0.85 1.03 1.25 1.19 1.06 0.93 0.86 0.83
1.08 1.29 1.01 0.71 0.59 0.52 0.59 0.53 0.52 0.58 0.57 0.38 0.30 0.19 0.10 0.09 0.11 0.10 0.10 0.10 0.12 0.14 0.17 0.19 0.25 0.30 0.34 0.40 0.43 0.42 0.45 0.52 0.57 0.64 0.68 0.70 0.79 0.87 0.98 1.13 1.08 0.99 0.93 0.88
1.25 1.35 0.98 0.79 0.64 0.59 0.57 0.41 0.40 0.59 0.70 0.38 0.18 0.13 0.09 0.11 0.14 0.14 0.12 0.12 0.13 0.13 0.17 0.22 0.26 0.27 0.32 0.39 0.46 0.45 0.48 0.51 0.50 0.57 0.65 0.64 0.65 0.73 0.78 0.90 1.08 1.09 1.00 0.92
1.07 1.08 0.55 0.33 0.24 0.26 0.29 0.26 0.25 0.39 0.41 0.31 0.16 0.14 0.15 0.14 0.15 0.17 0.18 0.18 0.17 0.14 0.17 0.24 0.27 0.28 0.33 0.41 0.50 0.53 0.49 0.45 0.42 0.47 0.55 0.61 0.65 0.72 0.75 0.76 0.87 1.05 1.02 0.89
1.01 0.95 0.48 0.27 0.19 0.21 0.22 0.19 0.20 0.22 0.22 0.19 0.13 0.14 0.16 0.15 0.13 0.14 0.17 0.19 0.21 0.20 0.20 0.24 0.29 0.28 0.34 0.41 0.51 0.60 0.53 0.47 0.40 0.43 0.50 0.56 0.65 0.78 0.80 0.75 0.79 0.89 0.98 0.94
0.96 0.95 0.76 0.40 0.19 0.34 0.39 0.26 0.24 0.23 0.20 0.23 0.25 0.20 0.16 0.16 0.16 0.18 0.21 0.21 0.23 0.23 0.25 0.27 0.30 0.34 0.39 0.42 0.49 0.58 0.55 0.51 0.44 0.44 0.50 0.55 0.58 0.72 0.79 0.79 0.83 0.86 0.90 0.97
0.71 0.87 1.06 0.67 0.47 0.72 0.35 0.18 0.19 0.22 0.24 0.26 0.24 0.18 0.16 0.18 0.18 0.18 0.22 0.25 0.27 0.26 0.26 0.28 0.32 0.38 0.38 0.41 0.43 0.49 0.51 0.49 0.47 0.47 0.53 0.57 0.55 0.60 0.73 0.83 0.84 0.85 0.85 0.87
0.39 0.77 1.24 1.04 0.75 0.43 0.20 0.17 0.22 0.27 0.30 0.23 0.18 0.16 0.14 0.13 0.12 0.13 0.13 0.19 0.26 0.27 0.26 0.28 0.32 0.37 0.38 0.37 0.37 0.43 0.49 0.47 0.49 0.54 0.57 0.58 0.53 0.54 0.64 0.73 0.80 0.83 0.84 0.79
0.40 0.74 1.35 1.20 0.90 0.43 0.27 0.18 0.15 0.21 0.38 0.22 0.17 0.18 0.16 0.15 0.21 0.17 0.13 0.18 0.25 0.23 0.23 0.27 0.30 0.31 0.34 0.37 0.36 0.42 0.46 0.42 0.46 0.50 0.56 0.53 0.48 0.45 0.45 0.56 0.71 0.78 0.80 0.76
0.74 1.13 1.36 1.04 0.81 0.36 0.25 0.19 0.17 0.34 0.43 0.21 0.18 0.18 0.17 0.20 0.25 0.20 0.17 0.21 0.23 0.18 0.19 0.23 0.26 0.29 0.36 0.38 0.35 0.39 0.44 0.43 0.46 0.49 0.54 0.49 0.45 0.45 0.44 0.50 0.64 0.73 0.80 0.82
0.64 0.86 0.86 0.77 0.86 0.47 0.26 0.26 0.39 0.44 0.25 0.17 0.15 0.15 0.15 0.14 0.12 0.13 0.15 0.20 0.21 0.17 0.16 0.16 0.20 0.25 0.31 0.34 0.34 0.39 0.45 0.46 0.48 0.50 0.47 0.46 0.47 0.48 0.49 0.51 0.59 0.70 0.80 0.86
0.50 0.62 0.61 0.56 0.50 0.35 0.29 0.36 0.36 0.28 0.19 0.14 0.14 0.13 0.12 0.12 0.11 0.13 0.16 0.18 0.20 0.19 0.18 0.17 0.19 0.22 0.28 0.31 0.33 0.40 0.46 0.43 0.46 0.46 0.44 0.43 0.46 0.47 0.49 0.54 0.61 0.70 0.78 0.82
0.33 0.35 0.44 0.40 0.28 0.23 0.24 0.26 0.25 0.20 0.16 0.14 0.14 0.13 0.13 0.12 0.12 0.14 0.17 0.18 0.19 0.19 0.18 0.18 0.20 0.23 0.29 0.32 0.33 0.38 0.43 0.39 0.38 0.39 0.42 0.40 0.44 0.49 0.53 0.57 0.62 0.67 0.76 0.84
0.28 0.31 0.38 0.36 0.22 0.19 0.19 0.20 0.20 0.17 0.15 0.14 0.15 0.15 0.13 0.13 0.14 0.15 0.17 0.18 0.19 0.22 0.21 0.20 0.22 0.23 0.30 0.34 0.36 0.40 0.38 0.36 0.35 0.35 0.42 0.47 0.49 0.54 0.58 0.61 0.63 0.66 0.68 0.83
0.20 0.26 0.34 0.33 0.23 0.24 0.23 0.20 0.19 0.18 0.17 0.18 0.18 0.17 0.14 0.15 0.18 0.17 0.17 0.19 0.21 0.24 0.25 0.23 0.24 0.26 0.31 0.35 0.42 0.42 0.36 0.34 0.36 0.39 0.42 0.49 0.54 0.55 0.56 0.56 0.59 0.67 0.69 0.73

GEFSCGP_prec_meanprecacc_216.txt.gz
Total_Precipitation_Accumulation
0.77 0.88 0.87 0.66 0.60 0.56 0.49 0.47 0.37 0.24 0.21 0.22 0.22 0.20 0.12 0.07 0.08 0.08 0.07 0.08 0.08 0.07 0.08 0.13 0.19 0.27 0.32 0.32 0.38 0.51 0.63 0.76 0.81 0.88 0.87 0.85 0.92 0.93 0.87 0.80 0.83 0.94 0.91 0.83
0.86 0.70 0.45 0.36 0.39 0.49 0.52 0.51 0.39 0.25 0.23 0.29 0.26 0.20 0.12 0.08 0.08 0.08 0.08 0.07 0.07 0.08 0.09 0.14 0.19 0.25 0.29 0.33 0.38 0.49 0.63 0.74 0.78 0.78 0.84 0.83 0.87 0.89 0.92 0.88 0.88 0.95 1.02 0.96
0.70 0.43 0.31 0.41 0.46 0.57 0.56 0.46 0.34 0.29 0.28 0.33 0.35 0.30 0.15 0.09 0.08 0.10 0.11 0.11 0.10 0.10 0.11 0.15 0.19 0.23 0.25 0.30 0.34 0.40 0.56 0.75 0.81 0.79 0.89 0.97 1.04 1.09 1.08 1.01 0.94 0.96 0.99 0.97
0.56 0.32 0.34 0.49 0.50 0.53 0.54 0.31 0.27 0.31 0.42 0.44 0.40 0.47 0.22 0.13 0.11 0.11 0.13 0.15 0.14 0.12 0.13 0.18 0.21 0.25 0.27 0.32 0.36 0.38 0.48 0.64 0.84 0.87 0.89 0.95 1.00 1.02 1.06 1.00 0.93 0.93 0.99 1.02
0.63 0.34 0.37 0.50 0.40 0.38 0.40 0.28 0.31 0.38 0.49 0.51 0.39 0.50 0.30 0.16 0.15 0.12 0.11 0.12 0.13 0.13 0.16 0.20 0.24 0.29 0.33 0.39 0.46 0.46 0.50 0.58 0.78 0.84 0.84 0.89 0.93 0.95 1.02 1.06 1.00 0.97 1.01 1.07
0.49 0.35 0.37 0.35 0.29 0.31 0.37 0.43 0.51 0.56 0.77 0.80 0.32 0.36 0.35 0.28 0.26 0.19 0.14 0.14 0.14 0.15 0.18 0.22 0.27 0.35 0.39 0.44 0.55 0.55 0.58 0.58 0.70 0.86 0.85 0.82 0.86 0.89 0.94 1.00 1.06 1.07 1.05 1.06
0.64 0.48 0.42 0.35 0.42 0.50 0.61 0.89 1.28 1.30 1.20 0.65 0.15 0.22 0.33 0.29 0.26 0.21 0.16 0.18 0.17 0.17 0.20 0.25 0.31 0.39 0.40 0.43 0.57 0.59 0.60 0.63 0.64 0.79 0.85 0.80 0.80 0.83 0.84 0.91 0.94 1.01 1.07 1.06
0.74 0.62 0.47 0.42 0.51 0.63 0.62 0.77 1.00 0.91 0.56 0.23 0.12 0.19 0.25 0.23 0.18 0.15 0.15 0.17 0.19 0.17 0.18 0.23 0.28 0.35 0.39 0.40 0.50 0.60 0.63 0.65 0.64 0.72 0.86 0.88 0.85 0.87 0.82 0.87 0.93 0.93 0.95 0.97
0.73 0.45 0.29 0.30 0.28 0.36 0.51 0.55 0.49 0.65 0.42 0.25 0.19 0.17 0.18 0.16 0.12 0.13 0.15 0.15 0.18 0.20 0.21 0.24 0.26 0.30 0.32 0.38 0.45 0.52 0.64 0.70 0.70 0.70 0.83 0.99 1.04 0.96 0.87 0.83 0.88 0.90 0.88 0.90
0.81 0.57 0.27 0.31 0.41 0.43 0.46 0.52 0.65 0.89 0.69 0.36 0.20 0.21 0.30 0.25 0.20 0.17 0.15 0.14 0.14 0.19 0.25 0.28 0.28 0.31 0.32 0.34 0.41 0.46 0.58 0.69 0.74 0.71 0.78 0.93 1.15 1.17 1.03 0.97 0.87 0.85 0.85 0.85
0.72 0.76 0.45 0.43 0.61 0.58 0.49 0.63 0.81 0.85 0.60 0.44 0.27 0.26 0.32 0.28 0.23 0.17 0.13 0.11 0.13 0.16 0.20 0.25 0.27 0.34 0.37 0.36 0.40 0.45 0.51 0.61 0.69 0.67 0.72 0.82 0.99 1.22 1.23 1.13 1.01 0.88 0.83 0.81
0.72 0.89 0.65 0.40 0.38 0.40 0.46 0.54 0.67 0.84 0.62 0.35 0.30 0.25 0.18 0.16 0.17 0.14 0.12 0.10 0.11 0.15 0.17 0.20 0.24 0.32 0.37 0.38 0.40 0.43 0.48 0.56 0.63 0.65 0.68 0.77 0.85 1.03 1.25 1.19 1.06 0.94 0.87 0.84
1.11 1.32 1.05 0.74 0.62 0.54 0.62 0.55 0.53 0.59 0.59 0.39 0.32 0.21 0.11 0.09 0.12 0.10 0.10 0.10 0.12 0.14 0.17 0.20 0.25 0.30 0.34 0.40 0.43 0.42 0.45 0.52 0.57 0.64 0.68 0.70 0.79 0.87 0.98 1.13 1.09 0.99 0.93 0.88
1.28 1.37 1.00 0.82 0.67 0.62 0.59 0.42 0.41 0.60 0.72 0.39 0.19 0.15 0.10 0.11 0.15 0.14 0.13 0.13 0.13 0.13 0.18 0.23 0.26 0.28 0.32 0.39 0.46 0.45 0.48 0.51 0.50 0.57 0.65 0.64 0.65 0.73 0.78 0.90 1.08 1.09 1.01 0.92
1.09 1.10 0.56 0.34 0.25 0.27 0.31 0.27 0.26 0.40 0.42 0.33 0.17 0.15 0.16 0.15 0.16 0.18 0.19 0.19 0.17 0.15 0.17 0.24 0.27 0.28 0.33 0.42 0.50 0.53 0.49 0.45 0.42 0.47 0.55 0.61 0.65 0.72 0.75 0.76 0.87 1.05 1.03 0.90
1.02 0.96 0.48 0.28 0.20 0.21 0.23 0.20 0.21 0.24 0.23 0.21 0.14 0.15 0.17 0.15 0.13 0.15 0.18 0.19 0.21 0.20 0.21 0.24 0.29 0.28 0.34 0.42 0.51 0.60 0.53 0.47 0.40 0.43 0.50 0.56 0.65 0.78 0.80 0.75 0.79 0.89 0.98 0.94
0.97 0.96 0.77 0.41 0.21 0.36 0.40 0.27 0.25 0.24 0.22 0.25 0.26 0.22 0.17 0.17 0.17 0.19 0.21 0.22 0.24 0.24 0.26 0.27 0.30 0.34 0.39 0.42 0.49 0.58 0.56 0.51 0.44 0.44 0.50 0.55 0.58 0.72 0.79 0.79 0.83 0.86 0.90 0.97
0.72 0.88 1.08 0.68 0.49 0.74 0.37 0.19 0.20 0.23 0.26 0.27 0.25 0.20 0.19 0.20 0.20 0.20 0.23 0.26 0.28 0.27 0.27 0.28 0.32 0.38 0.39 0.41 0.43 0.49 0.52 0.50 0.48 0.48 0.53 0.58 0.55 0.60 0.73 0.83 0.84 0.85 0.86 0.88
0.40 0.79 1.26 1.07 0.77 0.44 0.21 0.18 0.22 0.28 0.31 0.24 0.20 0.17 0.16 0.15 0.14 0.14 0.15 0.19 0.26 0.27 0.27 0.29 0.32 0.37 0.38 0.38 0.37 0.44 0.50 0.48 0.50 0.55 0.58 0.58 0.53 0.54 0.64 0.73 0.81 0.83 0.84 0.80
0.42 0.77 1.38 1.22 0.92 0.44 0.28 0.18 0.15 0.21 0.39 0.23 0.18 0.19 0.17 0.17 0.22 0.18 0.14 0.18 0.25 0.23 0.23 0.27 0.30 0.31 0.34 0.37 0.37 0.42 0.47 0.43 0.47 0.51 0.57 0.54 0.48 0.45 0.46 0.56 0.71 0.78 0.80 0.77
0.77 1.17 1.40 1.07 0.84 0.38 0.26 0.20 0.18 0.36 0.45 0.23 0.19 0.20 0.18 0.21 0.26 0.21 0.18 0.21 0.24 0.19 0.20 0.23 0.26 0.29 0.36 0.39 0.35 0.39 0.45 0.45 0.46 0.50 0.55 0.50 0.46 0.46 0.45 0.51 0.64 0.73 0.81 0.83
0.66 0.89 0.88 0.80 0.88 0.49 0.26 0.27 0.40 0.46 0.26 0.18 0.16 0.16 0.16 0.15 0.14 0.14 0.16 0.21 0.22 0.18 0.17 0.16 0.20 0.25 0.31 0.34 0.34 0.40 0.46 0.47 0.49 0.50 0.47 0.47 0.48 0.48 0.49 0.52 0.60 0.71 0.80 0.86
0.51 0.64 0.63 0.58 0.52 0.37 0.31 0.38 0.38 0.29 0.20 0.15 0.15 0.14 0.13 0.13 0.13 0.15 0.17 0.19 0.21 0.19 0.18 0.17 0.19 0.22 0.28 0.31 0.34 0.41 0.47 0.44 0.47 0.47 0.45 0.43 0.46 0.48 0.49 0.55 0.62 0.71 0.78 0.82
0.33 0.36 0.45 0.42 0.29 0.24 0.25 0.27 0.26 0.21 0.17 0.14 0.15 0.14 0.13 0.13 0.13 0.15 0.17 0.18 0.20 0.20 0.19 0.18 0.20 0.23 0.29 0.32 0.33 0.39 0.43 0.40 0.38 0.39 0.42 0.40 0.44 0.49 0.53 0.58 0.62 0.67 0.77 0.84
0.29 0.32 0.39 0.38 0.24 0.20 0.20 0.21 0.21 0.18 0.16 0.15 0.15 0.15 0.14 0.14 0.15 0.16 0.18 0.19 0.20 0.23 0.22 0.21 0.22 0.24 0.30 0.34 0.37 0.40 0.39 0.37 0.36 0.36 0.42 0.48 0.50 0.54 0.58 0.61 0.63 0.67 0.69 0.83
0.21 0.27 0.35 0.35 0.24 0.25 0.24 0.21 0.20 0.19 0.18 0.19 0.19 0.18 0.15 0.16 0.19 0.18 0.18 0.19 0.21 0.24 0.26 0.24 0.24 0.26 0.31 0.36 0.42 0.43 0.37 0.34 0.36 0.40 0.43 0.50 0.54 0.56 0.57 0.56 0.59 0.68 0.70 0.74

GEFSCGP_prec_meanprecacc_222.txt.gz
Total_Precipitation_Accumulation
0.83 0.96 0.95 0.72 0.64 0.58 0.51 0.50 0.40 0.26 0.22 0.23 0.23 0.20 0.13 0.08 0.08 0.08 0.07 0.08 0.08 0.07 0.08 0.13 0.19 0.27 0.32 0.32 0.39 0.52 0.64 0.77 0.83 0.89 0.88 0.87 0.94 0.94 0.88 0.82 0.86 0.99 0.98 0.92
0.93 0.76 0.49 0.40 0.41 0.52 0.55 0.54 0.42 0.29 0.25 0.30 0.27 0.21 0.13 0.08 0.08 0.09 0.08 0.07 0.07 0.08 0.09 0.14 0.19 0.25 0.29 0.34 0.38 0.49 0.64 0.75 0.79 0.79 0.85 0.84 0.88 0.90 0.93 0.89 0.90 0.97 1.05 1.02
0.77 0.47 0.34 0.44 0.49 0.59 0.58 0.49 0.37 0.33 0.30 0.34 0.36 0.31 0.17 0.10 0.09 0.10 0.12 0.11 0.10 0.10 0.11 0.15 0.19 0.23 0.26 0.31 0.35 0.41 0.57 0.76 0.82 0.80 0.90 0.98 1.05 1.10 1.08 1.02 0.95 0.97 1.00 0.99
0.61 0.34 0.37 0.52 0.53 0.54 0.56 0.32 0.30 0.35 0.45 0.46 0.41 0.50 0.24 0.14 0.12 0.12 0.13 0.15 0.15 0.12 0.13 0.18 0.22 0.26 0.27 0.33 0.37 0.39 0.49 0.65 0.85 0.88 0.90 0.96 1.01 1.03 1.07 1.00 0.95 0.94 1.00 1.03
0.67 0.37 0.40 0.54 0.43 0.40 0.41 0.29 0.32 0.41 0.52 0.53 0.41 0.53 0.32 0.18 0.16 0.13 0.11 0.12 0.13 0.13 0.16 0.20 0.24 0.29 0.33 0.40 0.47 0.47 0.51 0.59 0.79 0.85 0.85 0.90 0.93 0.95 1.03 1.07 1.01 0.98 1.02 1.08
0.52 0.38 0.40 0.38 0.31 0.33 0.38 0.45 0.53 0.59 0.81 0.84 0.33 0.38 0.38 0.30 0.27 0.19 0.14 0.15 0.14 0.15 0.18 0.22 0.28 0.35 0.39 0.45 0.57 0.56 0.58 0.59 0.70 0.87 0.85 0.82 0.87 0.89 0.95 1.00 1.07 1.08 1.06 1.07
0.68 0.51 0.44 0.37 0.47 0.55 0.63 0.92 1.35 1.39 1.27 0.70 0.17 0.23 0.35 0.30 0.27 0.21 0.17 0.18 0.17 0.18 0.21 0.25 0.32 0.39 0.41 0.45 0.58 0.60 0.60 0.63 0.64 0.79 0.86 0.80 0.80 0.83 0.84 0.91 0.95 1.02 1.08 1.07
0.80 0.67 0.50 0.45 0.56 0.70 0.65 0.79 1.05 0.97 0.60 0.25 0.13 0.21 0.27 0.25 0.19 0.15 0.16 0.17 0.19 0.17 0.19 0.23 0.28 0.35 0.40 0.41 0.52 0.61 0.63 0.66 0.64 0.72 0.86 0.88 0.85 0.87 0.82 0.87 0.93 0.94 0.96 0.97
0.78 0.50 0.31 0.33 0.32 0.40 0.54 0.57 0.51 0.69 0.45 0.27 0.21 0.19 0.20 0.17 0.13 0.14 0.15 0.15 0.18 0.20 0.22 0.25 0.28 0.31 0.33 0.40 0.46 0.54 0.65 0.71 0.71 0.71 0.84 0.99 1.05 0.97 0.87 0.84 0.88 0.91 0.89 0.90
0.87 0.61 0.29 0.33 0.45 0.46 0.49 0.54 0.67 0.93 0.74 0.40 0.22 0.22 0.33 0.26 0.22 0.18 0.16 0.15 0.15 0.20 0.26 0.29 0.29 0.32 0.34 0.36 0.42 0.47 0.59 0.70 0.75 0.71 0.78 0.93 1.15 1.17 1.03 0.97 0.87 0.86 0.85 0.85
0.75 0.80 0.49 0.46 0.67 0.62 0.53 0.67 0.84 0.88 0.64 0.49 0.30 0.29 0.34 0.30 0.25 0.19 0.15 0.12 0.13 0.16 0.21 0.25 0.28 0.35 0.38 0.37 0.42 0.47 0.53 0.62 0.70 0.68 0.73 0.83 1.00 1.22 1.23 1.13 1.01 0.88 0.83 0.81
0.74 0.91 0.68 0.42 0.41 0.41 0.49 0.58 0.70 0.87 0.64 0.37 0.32 0.27 0.20 0.18 0.18 0.16 0.13 0.12 0.12 0.16 0.18 0.21 0.25 0.33 0.38 0.39 0.41 0.44 0.50 0.57 0.64 0.65 0.68 0.77 0.85 1.03 1.25 1.19 1.06 0.94 0.88 0.84
1.14 1.36 1.09 0.78 0.65 0.57 0.64 0.57 0.56 0.61 0.61 0.41 0.33 0.23 0.13 0.10 0.13 0.12 0.11 0.12 0.13 0.15 0.18 0.21 0.27 0.31 0.35 0.41 0.44 0.43 0.46 0.53 0.58 0.64 0.68 0.70 0.79 0.87 0.99 1.14 1.09 1.00 0.93 0.89
1.31 1.42 1.04 0.85 0.70 0.64 0.61 0.44 0.43 0.62 0.75 0.41 0.21 0.16 0.11 0.12 0.15 0.16 0.14 0.14 0.15 0.15 0.19 0.24 0.28 0.30 0.33 0.39 0.47 0.45 0.48 0.52 0.50 0.57 0.65 0.64 0.65 0.73 0.78 0.90 1.08 1.10 1.02 0.93
1.11 1.13 0.57 0.36 0.27 0.29 0.32 0.29 0.28 0.42 0.44 0.34 0.18 0.16 0.18 0.16 0.17 0.19 0.20 0.20 0.18 0.16 0.18 0.25 0.29 0.30 0.34 0.42 0.51 0.53 0.49 0.45 0.43 0.47 0.55 0.61 0.65 0.72 0.75 0.76 0.88 1.06 1.03 0.90
1.03 0.98 0.49 0.29 0.21 0.23 0.24 0.21 0.23 0.25 0.26 0.23 0.15 0.16 0.18 0.16 0.14 0.16 0.19 0.20 0.22 0.21 0.21 0.24 0.29 0.30 0.36 0.42 0.52 0.61 0.53 0.48 0.41 0.43 0.50 0.56 0.65 0.78 0.80 0.75 0.79 0.90 0.98 0.95
0.98 0.97 0.78 0.43 0.22 0.38 0.42 0.29 0.27 0.26 0.25 0.27 0.28 0.23 0.17 0.17 0.17 0.20 0.22 0.23 0.25 0.25 0.26 0.27 0.30 0.34 0.40 0.43 0.50 0.59 0.56 0.52 0.44 0.44 0.50 0.55 0.58 0.73 0.79 0.79 0.84 0.86 0.90 0.98
0.73 0.89 1.09 0.70 0.51 0.77 0.39 0.20 0.22 0.25 0.27 0.29 0.27 0.21 0.20 0.22 0.21 0.21 0.24 0.28 0.29 0.28 0.27 0.28 0.32 0.38 0.39 0.42 0.44 0.50 0.52 0.51 0.48 0.48 0.54 0.58 0.55 0.61 0.73 0.83 0.85 0.85 0.86 0.88
0.41 0.81 1.28 1.09 0.79 0.46 0.21 0.18 0.23 0.29 0.33 0.25 0.21 0.19 0.17 0.16 0.15 0.16 0.16 0.21 0.27 0.28 0.27 0.29 0.33 0.37 0.38 0.38 0.38 0.45 0.50 0.48 0.50 0.56 0.58 0.58 0.54 0.55 0.65 0.73 0.81 0.83 0.84 0.80
0.44 0.80 1.41 1.25 0.94 0.46 0.28 0.19 0.16 0.23 0.41 0.24 0.19 0.20 0.18 0.18 0.23 0.19 0.15 0.19 0.26 0.24 0.24 0.27 0.31 0.32 0.35 0.37 0.37 0.43 0.48 0.44 0.48 0.51 0.58 0.55 0.49 0.46 0.47 0.57 0.72 0.79 0.80 0.77
0.79 1.21 1.44 1.09 0.86 0.39 0.27 0.20 0.18 0.38 0.47 0.24 0.20 0.20 0.19 0.21 0.27 0.22 0.19 0.22 0.25 0.19 0.20 0.23 0.27 0.29 0.36 0.39 0.36 0.40 0.47 0.46 0.48 0.51 0.56 0.51 0.48 0.48 0.47 0.53 0.65 0.74 0.82 0.83
0.67 0.90 0.90 0.81 0.91 0.51 0.27 0.27 0.41 0.47 0.26 0.19 0.16 0.16 0.16 0.15 0.14 0.14 0.17 0.21 0.23 0.19 0.17 0.17 0.21 0.25 0.31 0.35 0.34 0.40 0.47 0.49 0.51 0.52 0.49 0.49 0.51 0.50 0.51 0.54 0.62 0.73 0.82 0.88
0.52 0.65 0.64 0.60 0.54 0.39 0.32 0.39 0.39 0.30 0.21 0.15 0.15 0.14 0.13 0.13 0.13 0.15 0.18 0.20 0.22 0.20 0.19 0.18 0.20 0.23 0.28 0.32 0.34 0.42 0.47 0.45 0.48 0.49 0.47 0.46 0.49 0.50 0.51 0.57 0.64 0.72 0.80 0.84
0.34 0.36 0.45 0.43 0.30 0.25 0.26 0.28 0.27 0.21 0.18 0.15 0.15 0.14 0.13 0.13 0.14 0.16 0.18 0.19 0.20 0.21 0.20 0.19 0.21 0.24 0.30 0.33 0.34 0.39 0.44 0.40 0.39 0.41 0.45 0.43 0.47 0.52 0.55 0.60 0.64 0.69 0.78 0.86
0.29 0.32 0.40 0.38 0.24 0.21 0.20 0.21 0.22 0.18 0.16 0.15 0.16 0.15 0.14 0.14 0.15 0.16 0.18 0.19 0.21 0.24 0.23 0.22 0.23 0.25 0.31 0.35 0.37 0.41 0.39 0.37 0.37 0.36 0.43 0.49 0.51 0.56 0.60 0.63 0.65 0.68 0.70 0.84
0.21 0.28 0.36 0.35 0.25 0.26 0.24 0.21 0.20 0.19 0.18 0.19 0.19 0.18 0.15 0.16 0.19 0.18 0.18 0.20 0.22 0.25 0.26 0.24 0.25 0.27 0.32 0.37 0.43 0.44 0.38 0.35 0.37 0.40 0.43 0.50 0.55 0.56 0.57 0.57 0.60 0.69 0.71 0.75

GEFSCGP_prec_meanprecacc_228.txt.gz
Total_Precipitation_Accumulation
0.87 1.03 1.02 0.80 0.71 0.63 0.54 0.52 0.42 0.30 0.28 0.28 0.25 0.22 0.13 0.08 0.09 0.09 0.08 0.09 0.08 0.07 0.09 0.15 0.21 0.30 0.35 0.36 0.44 0.56 0.68 0.81 0.86 0.93 0.93 0.92 0.98 0.98 0.93 0.88 0.94 1.08 1.08 1.02
0.98 0.82 0.53 0.44 0.46 0.56 0.58 0.57 0.45 0.32 0.30 0.35 0.29 0.23 0.14 0.09 0.09 0.09 0.09 0.08 0.08 0.09 0.10 0.16 0.21 0.28 0.32 0.36 0.42 0.54 0.68 0.79 0.82 0.82 0.89 0.89 0.93 0.95 0.96 0.92 0.94 1.02 1.12 1.10
0.80 0.50 0.36 0.48 0.53 0.63 0.61 0.52 0.41 0.37 0.35 0.38 0.38 0.33 0.18 0.10 0.09 0.11 0.12 0.12 0.11 0.10 0.12 0.16 0.20 0.24 0.27 0.33 0.38 0.45 0.61 0.80 0.86 0.84 0.95 1.02 1.09 1.15 1.13 1.05 0.98 1.00 1.05 1.05
0.62 0.36 0.40 0.56 0.57 0.58 0.58 0.34 0.32 0.40 0.50 0.51 0.43 0.52 0.26 0.15 0.12 0.12 0.14 0.16 0.15 0.13 0.14 0.18 0.22 0.26 0.28 0.34 0.39 0.42 0.53 0.70 0.91 0.93 0.94 1.00 1.04 1.05 1.09 1.02 0.97 0.97 1.03 1.07
0.68 0.38 0.42 0.57 0.46 0.43 0.44 0.31 0.34 0.43 0.56 0.58 0.43 0.55 0.34 0.18 0.17 0.13 0.12 0.12 0.13 0.13 0.16 0.21 0.24 0.30 0.34 0.40 0.48 0.48 0.54 0.63 0.84 0.90 0.89 0.94 0.98 0.98 1.06 1.10 1.03 1.01 1.05 1.11
0.53 0.39 0.42 0.40 0.33 0.35 0.40 0.47 0.55 0.61 0.84 0.89 0.36 0.40 0.39 0.32 0.28 0.20 0.14 0.15 0.15 0.15 0.19 0.22 0.28 0.36 0.40 0.46 0.57 0.57 0.60 0.62 0.75 0.91 0.90 0.86 0.91 0.93 0.98 1.03 1.10 1.10 1.09 1.10
0.70 0.52 0.47 0.40 0.49 0.57 0.67 0.95 1.41 1.47 1.35 0.74 0.18 0.24 0.38 0.31 0.28 0.22 0.17 0.19 0.18 0.18 0.21 0.25 0.32 0.40 0.42 0.46 0.59 0.61 0.61 0.65 0.67 0.83 0.90 0.84 0.84 0.86 0.87 0.93 0.97 1.04 1.10 1.08
0.82 0.70 0.53 0.47 0.59 0.74 0.70 0.83 1.10 1.03 0.64 0.27 0.14 0.22 0.30 0.25 0.19 0.16 0.16 0.18 0.19 0.17 0.19 0.24 0.28 0.35 0.41 0.42 0.53 0.62 0.64 0.67 0.66 0.75 0.90 0.92 0.89 0.90 0.85 0.89 0.95 0.95 0.98 1.00
0.81 0.53 0.34 0.34 0.33 0.43 0.59 0.61 0.53 0.72 0.47 0.29 0.22 0.20 0.21 0.17 0.14 0.14 0.15 0.15 0.19 0.21 0.23 0.25 0.28 0.31 0.34 0.40 0.47 0.55 0.66 0.71 0.72 0.73 0.87 1.03 1.08 0.99 0.89 0.85 0.90 0.92 0.90 0.92
0.90 0.64 0.31 0.34 0.47 0.50 0.54 0.58 0.70 0.97 0.78 0.43 0.23 0.23 0.34 0.27 0.22 0.18 0.16 0.15 0.15 0.20 0.26 0.29 0.30 0.33 0.35 0.37 0.43 0.49 0.61 0.71 0.76 0.73 0.81 0.97 1.18 1.19 1.04 0.98 0.89 0.87 0.86 0.86
0.77 0.83 0.52 0.48 0.71 0.67 0.57 0.72 0.89 0.92 0.66 0.51 0.33 0.30 0.36 0.32 0.26 0.20 0.15 0.13 0.14 0.17 0.22 0.26 0.29 0.35 0.39 0.38 0.43 0.48 0.54 0.63 0.71 0.69 0.75 0.86 1.03 1.24 1.25 1.15 1.02 0.89 0.85 0.83
0.76 0.94 0.71 0.45 0.45 0.45 0.53 0.62 0.75 0.92 0.67 0.40 0.35 0.30 0.21 0.20 0.20 0.18 0.14 0.12 0.13 0.16 0.19 0.22 0.26 0.34 0.38 0.40 0.43 0.46 0.51 0.58 0.65 0.66 0.70 0.79 0.89 1.06 1.27 1.21 1.07 0.95 0.88 0.86
1.16 1.39 1.13 0.80 0.68 0.60 0.68 0.60 0.59 0.66 0.66 0.45 0.37 0.27 0.14 0.11 0.14 0.14 0.12 0.12 0.14 0.15 0.19 0.22 0.28 0.32 0.35 0.41 0.44 0.44 0.48 0.54 0.59 0.65 0.70 0.72 0.81 0.90 1.01 1.15 1.10 1.01 0.94 0.89
1.33 1.44 1.07 0.88 0.72 0.67 0.65 0.47 0.46 0.65 0.80 0.46 0.24 0.20 0.14 0.13 0.16 0.16 0.15 0.15 0.15 0.15 0.19 0.25 0.29 0.30 0.34 0.40 0.48 0.46 0.50 0.53 0.51 0.58 0.66 0.66 0.67 0.74 0.80 0.92 1.09 1.10 1.02 0.93
1.12 1.14 0.58 0.37 0.29 0.31 0.34 0.31 0.31 0.45 0.47 0.37 0.20 0.18 0.20 0.18 0.19 0.21 0.21 0.20 0.19 0.16 0.19 0.25 0.30 0.31 0.35 0.43 0.52 0.54 0.50 0.46 0.44 0.48 0.56 0.62 0.66 0.73 0.76 0.77 0.88 1.06 1.04 0.91
1.04 0.99 0.50 0.30 0.23 0.24 0.25 0.22 0.25 0.28 0.28 0.24 0.16 0.18 0.19 0.17 0.15 0.17 0.20 0.21 0.23 0.22 0.22 0.25 0.30 0.31 0.38 0.44 0.53 0.62 0.55 0.49 0.41 0.44 0.51 0.57 0.66 0.78 0.80 0.76 0.79 0.90 0.99 0.95
0.99 0.98 0.80 0.44 0.23 0.39 0.43 0.31 0.29 0.29 0.27 0.28 0.29 0.24 0.19 0.19 0.19 0.21 0.23 0.24 0.26 0.26 0.27 0.28 0.31 0.35 0.42 0.45 0.51 0.60 0.57 0.53 0.45 0.45 0.51 0.56 0.59 0.73 0.80 0.79 0.84 0.86 0.91 0.98
0.75 0.91 1.11 0.71 0.52 0.78 0.41 0.22 0.23 0.26 0.29 0.31 0.28 0.23 0.21 0.23 0.23 0.22 0.25 0.29 0.31 0.30 0.29 0.29 0.33 0.39 0.40 0.44 0.46 0.51 0.54 0.52 0.49 0.49 0.55 0.59 0.56 0.61 0.74 0.84 0.85 0.86 0.87 0.89
0.43 0.83 1.31 1.10 0.80 0.47 0.23 0.20 0.25 0.31 0.34 0.28 0.22 0.20 0.19 0.18 0.16 0.17 0.17 0.22 0.29 0.29 0.28 0.30 0.34 0.38 0.39 0.39 0.40 0.47 0.51 0.50 0.52 0.57 0.59 0.59 0.54 0.55 0.66 0.74 0.81 0.84 0.85 0.82
0.45 0.82 1.45 1.27 0.96 0.47 0.30 0.20 0.17 0.24 0.43 0.26 0.20 0.21 0.19 0.19 0.26 0.21 0.16 0.20 0.27 0.24 0.25 0.28 0.32 0.32 0.35 0.38 0.38 0.45 0.51 0.46 0.50 0.54 0.59 0.56 0.50 0.46 0.47 0.58 0.73 0.80 0.82 0.78
0.81 1.24 1.47 1.11 0.88 0.40 0.28 0.20 0.19 0.40 0.49 0.24 0.20 0.21 0.20 0.23 0.29 0.23 0.19 0.22 0.25 0.20 0.21 0.24 0.27 0.30 0.36 0.39 0.36 0.41 0.49 0.49 0.49 0.53 0.58 0.53 0.49 0.48 0.48 0.53 0.66 0.75 0.83 0.84
0.69 0.92 0.92 0.83 0.92 0.52 0.28 0.28 0.42 0.48 0.27 0.19 0.17 0.16 0.17 0.16 0.15 0.15 0.17 0.21 0.23 0.19 0.18 0.18 0.21 0.26 0.32 0.35 0.35 0.41 0.48 0.50 0.53 0.55 0.52 0.52 0.53 0.52 0.52 0.55 0.63 0.74 0.83 0.89
0.54 0.68 0.66 0.62 0.56 0.40 0.32 0.39 0.40 0.30 0.21 0.15 0.15 0.14 0.14 0.14 0.14 0.16 0.18 0.20 0.22 0.20 0.19 0.19 0.20 0.23 0.29 0.32 0.35 0.42 0.48 0.46 0.50 0.50 0.49 0.49 0.52 0.52 0.52 0.58 0.65 0.74 0.82 0.86
0.35 0.38 0.47 0.46 0.32 0.26 0.27 0.28 0.27 0.22 0.18 0.15 0.15 0.15 0.14 0.14 0.14 0.16 0.18 0.19 0.20 0.21 0.20 0.20 0.22 0.24 0.30 0.33 0.34 0.40 0.45 0.41 0.40 0.42 0.46 0.45 0.50 0.54 0.57 0.61 0.66 0.71 0.80 0.88
0.30 0.33 0.42 0.41 0.26 0.22 0.21 0.22 0.22 0.18 0.16 0.15 0.16 0.16 0.15 0.15 0.15 0.16 0.19 0.19 0.21 0.24 0.23 0.22 0.24 0.25 0.31 0.36 0.38 0.41 0.40 0.38 0.37 0.37 0.45 0.51 0.53 0.58 0.62 0.64 0.67 0.70 0.73 0.87
0.22 0.29 0.38 0.37 0.26 0.27 0.25 0.22 0.20 0.19 0.19 0.19 0.19 0.18 0.15 0.17 0.20 0.18 0.19 0.20 0.22 0.25 0.27 0.25 0.25 0.28 0.33 0.37 0.44 0.44 0.39 0.36 0.38 0.41 0.45 0.52 0.57 0.58 0.59 0.59 0.62 0.70 0.73 0.78

GEFSCGP_prec_meanprecacc_234.txt.gz
Total_Precipitation_Accumulation
0.93 1.09 1.11 0.89 0.77 0.68 0.57 0.54 0.43 0.31 0.29 0.31 0.28 0.25 0.16 0.10 0.10 0.10 0.10 0.11 0.11 0.08 0.10 0.16 0.22 0.32 0.37 0.39 0.47 0.60 0.73 0.86 0.92 0.99 1.01 0.99 1.05 1.05 1.01 0.96 1.06 1.21 1.24 1.18
1.03 0.87 0.57 0.48 0.49 0.60 0.61 0.60 0.47 0.33 0.31 0.38 0.33 0.28 0.18 0.10 0.10 0.10 0.10 0.10 0.10 0.10 0.11 0.17 0.22 0.29 0.34 0.39 0.45 0.57 0.73 0.85 0.87 0.87 0.96 0.98 1.03 1.04 1.05 0.99 1.00 1.11 1.26 1.34
0.83 0.52 0.38 0.50 0.56 0.68 0.65 0.55 0.43 0.39 0.36 0.42 0.44 0.39 0.22 0.12 0.10 0.12 0.13 0.13 0.12 0.12 0.12 0.16 0.21 0.25 0.29 0.34 0.40 0.47 0.64 0.84 0.91 0.91 1.02 1.11 1.21 1.27 1.24 1.14 1.04 1.06 1.11 1.15
0.64 0.37 0.41 0.58 0.60 0.63 0.63 0.36 0.35 0.43 0.55 0.57 0.50 0.58 0.29 0.16 0.13 0.13 0.14 0.16 0.15 0.13 0.14 0.19 0.23 0.27 0.29 0.35 0.41 0.44 0.55 0.73 0.95 0.98 0.99 1.06 1.13 1.18 1.20 1.11 1.03 1.02 1.09 1.13
0.71 0.40 0.44 0.59 0.48 0.45 0.47 0.33 0.37 0.48 0.63 0.64 0.48 0.59 0.36 0.19 0.18 0.14 0.12 0.13 0.13 0.13 0.16 0.21 0.25 0.30 0.34 0.42 0.50 0.50 0.57 0.67 0.87 0.93 0.93 0.99 1.03 1.07 1.18 1.20 1.10 1.07 1.11 1.17
0.55 0.41 0.44 0.41 0.34 0.37 0.44 0.50 0.59 0.66 0.90 0.96 0.40 0.42 0.41 0.32 0.29 0.20 0.15 0.16 0.15 0.15 0.19 0.23 0.29 0.37 0.41 0.47 0.60 0.60 0.64 0.66 0.78 0.95 0.93 0.89 0.95 0.98 1.06 1.17 1.22 1.18 1.15 1.15
0.72 0.54 0.48 0.41 0.51 0.60 0.71 1.01 1.48 1.56 1.44 0.80 0.21 0.25 0.39 0.32 0.29 0.23 0.19 0.20 0.18 0.18 0.21 0.26 0.32 0.41 0.43 0.47 0.60 0.63 0.64 0.67 0.69 0.86 0.92 0.87 0.87 0.90 0.92 1.00 1.10 1.16 1.16 1.12
0.85 0.73 0.54 0.48 0.61 0.78 0.74 0.87 1.15 1.10 0.70 0.30 0.15 0.24 0.30 0.26 0.20 0.18 0.17 0.19 0.20 0.18 0.19 0.24 0.29 0.36 0.41 0.43 0.54 0.63 0.66 0.69 0.68 0.77 0.92 0.95 0.92 0.94 0.88 0.93 1.00 1.06 1.07 1.05
0.83 0.55 0.36 0.36 0.35 0.47 0.64 0.64 0.57 0.76 0.51 0.31 0.23 0.21 0.22 0.17 0.14 0.15 0.16 0.16 0.20 0.21 0.23 0.25 0.29 0.32 0.35 0.41 0.48 0.56 0.67 0.73 0.73 0.74 0.89 1.06 1.12 1.03 0.92 0.89 0.95 0.98 0.97 1.00
0.92 0.66 0.33 0.36 0.49 0.53 0.57 0.62 0.75 1.02 0.82 0.46 0.25 0.24 0.35 0.28 0.23 0.19 0.17 0.16 0.16 0.21 0.27 0.29 0.30 0.33 0.35 0.37 0.44 0.50 0.62 0.72 0.77 0.74 0.82 0.99 1.21 1.23 1.08 1.02 0.93 0.93 0.92 0.92
0.79 0.85 0.54 0.50 0.72 0.69 0.60 0.76 0.94 0.97 0.70 0.55 0.35 0.31 0.38 0.34 0.27 0.21 0.16 0.14 0.15 0.18 0.22 0.26 0.30 0.36 0.39 0.39 0.44 0.50 0.56 0.64 0.71 0.70 0.76 0.88 1.05 1.27 1.29 1.18 1.06 0.93 0.90 0.88
0.77 0.95 0.72 0.46 0.45 0.46 0.54 0.64 0.79 0.97 0.71 0.43 0.37 0.31 0.22 0.21 0.22 0.19 0.14 0.12 0.14 0.17 0.20 0.23 0.27 0.35 0.39 0.41 0.43 0.47 0.52 0.59 0.66 0.67 0.71 0.80 0.91 1.09 1.30 1.24 1.10 0.97 0.91 0.90
1.18 1.41 1.14 0.82 0.69 0.61 0.69 0.62 0.62 0.70 0.70 0.48 0.39 0.29 0.16 0.11 0.14 0.15 0.14 0.13 0.14 0.16 0.20 0.23 0.28 0.33 0.36 0.42 0.45 0.45 0.49 0.55 0.60 0.66 0.71 0.74 0.83 0.93 1.04 1.18 1.13 1.03 0.96 0.91
1.35 1.46 1.08 0.89 0.73 0.68 0.66 0.49 0.48 0.69 0.84 0.48 0.26 0.21 0.15 0.14 0.17 0.17 0.17 0.16 0.16 0.16 0.20 0.25 0.30 0.31 0.34 0.41 0.48 0.47 0.51 0.54 0.53 0.60 0.67 0.67 0.69 0.78 0.83 0.95 1.12 1.13 1.05 0.95
1.14 1.17 0.60 0.38 0.29 0.31 0.35 0.32 0.33 0.48 0.50 0.39 0.21 0.19 0.21 0.19 0.19 0.22 0.23 0.22 0.20 0.17 0.19 0.26 0.30 0.32 0.36 0.44 0.52 0.55 0.51 0.47 0.45 0.49 0.57 0.63 0.69 0.77 0.80 0.80 0.91 1.09 1.06 0.93
1.05 1.02 0.52 0.31 0.24 0.25 0.26 0.23 0.27 0.30 0.30 0.26 0.18 0.19 0.21 0.18 0.15 0.17 0.21 0.22 0.24 0.23 0.23 0.26 0.31 0.32 0.39 0.45 0.53 0.62 0.55 0.49 0.42 0.45 0.52 0.58 0.67 0.81 0.84 0.79 0.82 0.93 1.01 0.97
1.01 1.01 0.82 0.45 0.24 0.40 0.44 0.32 0.31 0.31 0.29 0.29 0.30 0.26 0.21 0.20 0.20 0.23 0.25 0.26 0.27 0.28 0.29 0.29 0.31 0.35 0.43 0.46 0.52 0.61 0.58 0.53 0.46 0.46 0.51 0.56 0.60 0.75 0.83 0.83 0.87 0.90 0.94 1.01
0.77 0.94 1.15 0.74 0.55 0.80 0.42 0.23 0.25 0.28 0.31 0.32 0.29 0.24 0.24 0.25 0.25 0.24 0.27 0.30 0.32 0.31 0.30 0.30 0.34 0.40 0.41 0.46 0.48 0.52 0.55 0.53 0.50 0.50 0.55 0.59 0.57 0.62 0.76 0.87 0.87 0.87 0.89 0.91
0.44 0.86 1.35 1.14 0.82 0.49 0.23 0.20 0.26 0.32 0.36 0.29 0.24 0.22 0.20 0.20 0.18 0.18 0.18 0.23 0.30 0.30 0.29 0.31 0.35 0.39 0.39 0.40 0.42 0.48 0.53 0.51 0.53 0.58 0.60 0.60 0.55 0.56 0.67 0.77 0.85 0.86 0.86 0.83
0.46 0.85 1.48 1.30 0.98 0.48 0.31 0.20 0.17 0.25 0.45 0.27 0.21 0.23 0.21 0.20 0.27 0.22 0.16 0.20 0.27 0.25 0.25 0.29 0.32 0.32 0.35 0.38 0.39 0.46 0.52 0.46 0.50 0.54 0.60 0.57 0.51 0.47 0.48 0.59 0.75 0.83 0.83 0.79
0.83 1.27 1.50 1.14 0.91 0.41 0.28 0.21 0.19 0.41 0.51 0.25 0.21 0.23 0.21 0.24 0.30 0.24 0.20 0.23 0.26 0.20 0.21 0.24 0.27 0.30 0.37 0.40 0.37 0.42 0.50 0.50 0.50 0.54 0.59 0.54 0.50 0.49 0.48 0.54 0.68 0.77 0.84 0.85
0.71 0.95 0.94 0.85 0.95 0.53 0.28 0.28 0.42 0.49 0.28 0.19 0.17 0.17 0.18 0.17 0.16 0.16 0.18 0.22 0.23 0.19 0.18 0.18 0.21 0.26 0.32 0.35 0.35 0.42 0.49 0.52 0.55 0.56 0.53 0.53 0.54 0.53 0.53 0.56 0.65 0.76 0.84 0.90
0.55 0.69 0.68 0.63 0.57 0.40 0.33 0.40 0.40 0.31 0.21 0.16 0.16 0.15 0.14 0.14 0.14 0.16 0.19 0.21 0.23 0.20 0.20 0.19 0.20 0.23 0.29 0.33 0.35 0.43 0.48 0.47 0.51 0.52 0.50 0.50 0.53 0.54 0.54 0.59 0.66 0.75 0.83 0.87
0.36 0.39 0.49 0.47 0.33 0.26 0.28 0.29 0.27 0.22 0.19 0.15 0.16 0.15 0.14 0.14 0.14 0.16 0.19 0.20 0.21 0.21 0.20 0.20 0.22 0.24 0.31 0.34 0.35 0.41 0.45 0.42 0.41 0.43 0.47 0.47 0.52 0.56 0.59 0.64 0.68 0.72 0.82 0.89
0.30 0.34 0.43 0.42 0.27 0.23 0.22 0.23 0.23 0.19 0.17 0.16 0.16 0.16 0.15 0.15 0.15 0.17 0.19 0.20 0.21 0.25 0.24 0.23 0.24 0.25 0.32 0.36 0.39 0.42 0.41 0.38 0.38 0.38 0.46 0.53 0.56 0.60 0.64 0.67 0.69 0.73 0.75 0.89
0.22 0.29 0.39 0.38 0.26 0.28 0.26 0.23 0.21 0.20 0.19 0.20 0.19 0.18 0.16 0.17 0.20 0.19 0.19 0.21 0.22 0.26 0.27 0.25 0.26 0.28 0.33 0.38 0.45 0.45 0.39 0.37 0.39 0.42 0.46 0.54 0.59 0.60 0.62 0.61 0.64 0.73 0.76 0.81

GEFSCGP_prec_meanprecacc_240.txt.gz
Total_Precipitation_Accumulation
0.98 1.14 1.15 0.92 0.82 0.72 0.62 0.59 0.46 0.33 0.31 0.33 0.30 0.27 0.18 0.13 0.13 0.12 0.11 0.14 0.16 0.12 0.13 0.20 0.26 0.37 0.46 0.48 0.54 0.68 0.83 0.95 1.00 1.04 1.04 1.02 1.10 1.14 1.08 1.04 1.20 1.38 1.41 1.35
1.07 0.90 0.60 0.50 0.52 0.63 0.65 0.65 0.49 0.34 0.32 0.41 0.36 0.30 0.20 0.13 0.12 0.12 0.12 0.13 0.16 0.15 0.15 0.21 0.26 0.34 0.40 0.46 0.50 0.63 0.80 0.92 0.93 0.92 0.99 1.02 1.07 1.12 1.15 1.09 1.10 1.25 1.42 1.51
0.88 0.55 0.40 0.52 0.58 0.70 0.68 0.58 0.46 0.42 0.39 0.48 0.49 0.43 0.25 0.14 0.11 0.13 0.16 0.17 0.18 0.18 0.17 0.20 0.24 0.29 0.33 0.40 0.45 0.51 0.69 0.90 0.97 0.97 1.07 1.16 1.27 1.32 1.31 1.21 1.12 1.15 1.22 1.28
0.69 0.40 0.44 0.60 0.61 0.64 0.64 0.38 0.38 0.46 0.58 0.61 0.54 0.64 0.32 0.18 0.14 0.15 0.16 0.19 0.20 0.19 0.18 0.21 0.25 0.31 0.33 0.40 0.45 0.48 0.61 0.79 1.01 1.04 1.04 1.10 1.18 1.23 1.25 1.17 1.11 1.11 1.19 1.24
0.76 0.43 0.47 0.61 0.49 0.46 0.48 0.34 0.39 0.51 0.66 0.67 0.52 0.64 0.39 0.20 0.19 0.15 0.14 0.15 0.17 0.18 0.21 0.25 0.28 0.33 0.38 0.46 0.54 0.54 0.62 0.73 0.92 0.98 0.98 1.03 1.09 1.14 1.25 1.28 1.18 1.16 1.22 1.29
0.59 0.43 0.46 0.44 0.36 0.38 0.44 0.52 0.62 0.71 0.95 1.02 0.43 0.45 0.43 0.33 0.31 0.22 0.16 0.17 0.17 0.19 0.23 0.28 0.33 0.40 0.44 0.51 0.64 0.64 0.68 0.71 0.83 0.99 0.97 0.93 1.00 1.04 1.13 1.26 1.33 1.29 1.27 1.28
0.77 0.57 0.51 0.43 0.53 0.62 0.73 1.04 1.54 1.64 1.51 0.85 0.23 0.28 0.41 0.33 0.31 0.25 0.20 0.22 0.21 0.21 0.25 0.30 0.36 0.44 0.46 0.50 0.64 0.66 0.67 0.71 0.73 0.90 0.96 0.91 0.92 0.95 0.98 1.10 1.21 1.27 1.28 1.24
0.90 0.78 0.57 0.50 0.63 0.80 0.76 0.90 1.19 1.14 0.73 0.32 0.16 0.26 0.33 0.28 0.22 0.19 0.19 0.21 0.22 0.20 0.21 0.26 0.32 0.39 0.44 0.47 0.58 0.66 0.68 0.71 0.70 0.80 0.95 0.99 0.97 0.98 0.93 1.00 1.11 1.17 1.18 1.15
0.86 0.58 0.38 0.37 0.36 0.48 0.66 0.67 0.59 0.79 0.53 0.33 0.25 0.23 0.24 0.18 0.15 0.16 0.18 0.19 0.22 0.23 0.24 0.27 0.31 0.35 0.37 0.43 0.50 0.58 0.69 0.74 0.75 0.75 0.91 1.09 1.16 1.07 0.96 0.93 1.02 1.07 1.08 1.10
0.93 0.68 0.34 0.37 0.51 0.55 0.59 0.65 0.77 1.04 0.85 0.48 0.26 0.25 0.36 0.29 0.25 0.21 0.18 0.18 0.18 0.22 0.28 0.31 0.32 0.36 0.38 0.39 0.45 0.51 0.64 0.73 0.78 0.75 0.83 1.00 1.23 1.25 1.11 1.06 0.98 1.00 1.01 1.03
0.80 0.87 0.55 0.51 0.74 0.71 0.62 0.79 0.97 1.00 0.73 0.58 0.37 0.33 0.39 0.35 0.29 0.22 0.17 0.15 0.16 0.20 0.24 0.28 0.31 0.38 0.41 0.40 0.45 0.51 0.58 0.66 0.73 0.71 0.76 0.88 1.06 1.28 1.30 1.20 1.08 0.96 0.95 0.95
0.78 0.96 0.73 0.47 0.46 0.47 0.55 0.67 0.82 1.01 0.74 0.45 0.40 0.33 0.23 0.22 0.23 0.20 0.16 0.14 0.15 0.18 0.21 0.24 0.28 0.36 0.40 0.41 0.44 0.47 0.54 0.60 0.67 0.68 0.72 0.81 0.91 1.09 1.31 1.26 1.12 0.99 0.94 0.94
1.20 1.43 1.16 0.82 0.69 0.61 0.70 0.63 0.63 0.73 0.74 0.51 0.42 0.31 0.17 0.12 0.16 0.16 0.15 0.14 0.15 0.17 0.21 0.24 0.29 0.33 0.37 0.42 0.46 0.46 0.49 0.57 0.62 0.67 0.72 0.75 0.84 0.93 1.05 1.19 1.15 1.05 0.98 0.94
1.37 1.49 1.10 0.90 0.74 0.69 0.67 0.50 0.49 0.70 0.87 0.51 0.28 0.23 0.16 0.15 0.18 0.18 0.18 0.17 0.18 0.17 0.20 0.26 0.30 0.31 0.35 0.41 0.49 0.48 0.52 0.56 0.54 0.61 0.68 0.69 0.70 0.79 0.84 0.96 1.14 1.16 1.07 0.97
1.16 1.19 0.62 0.39 0.31 0.33 0.36 0.33 0.34 0.49 0.51 0.40 0.23 0.21 0.22 0.20 0.21 0.23 0.23 0.23 0.21 0.18 0.20 0.26 0.31 0.32 0.37 0.44 0.53 0.56 0.53 0.49 0.46 0.50 0.58 0.64 0.70 0.78 0.81 0.81 0.94 1.13 1.09 0.95
1.08 1.03 0.53 0.32 0.25 0.27 0.27 0.24 0.27 0.31 0.31 0.27 0.19 0.20 0.22 0.20 0.16 0.18 0.21 0.23 0.25 0.25 0.24 0.27 0.31 0.32 0.39 0.45 0.54 0.63 0.57 0.51 0.44 0.46 0.52 0.59 0.69 0.82 0.85 0.81 0.85 0.97 1.05 1.00
1.03 1.03 0.84 0.46 0.25 0.40 0.45 0.33 0.32 0.32 0.30 0.30 0.32 0.27 0.22 0.21 0.21 0.24 0.26 0.26 0.28 0.29 0.31 0.30 0.32 0.36 0.43 0.47 0.53 0.62 0.60 0.56 0.48 0.47 0.52 0.58 0.62 0.77 0.84 0.84 0.89 0.93 0.98 1.05
0.80 0.96 1.18 0.75 0.56 0.81 0.42 0.24 0.26 0.28 0.32 0.33 0.31 0.26 0.24 0.26 0.25 0.25 0.28 0.31 0.32 0.32 0.32 0.32 0.35 0.40 0.42 0.46 0.48 0.53 0.56 0.55 0.52 0.52 0.57 0.61 0.59 0.65 0.78 0.89 0.89 0.90 0.92 0.95
0.45 0.89 1.38 1.16 0.84 0.49 0.24 0.21 0.27 0.33 0.37 0.30 0.25 0.23 0.21 0.20 0.19 0.19 0.19 0.24 0.31 0.31 0.31 0.33 0.36 0.39 0.40 0.40 0.42 0.49 0.54 0.52 0.55 0.60 0.62 0.62 0.57 0.59 0.69 0.79 0.87 0.89 0.89 0.86
0.48 0.88 1.52 1.32 1.00 0.49 0.31 0.20 0.18 0.26 0.46 0.27 0.22 0.24 0.22 0.21 0.28 0.23 0.17 0.21 0.28 0.26 0.27 0.30 0.33 0.33 0.35 0.38 0.39 0.47 0.53 0.47 0.52 0.57 0.63 0.58 0.52 0.50 0.52 0.62 0.78 0.85 0.86 0.83
0.85 1.31 1.54 1.16 0.92 0.42 0.29 0.21 0.20 0.42 0.51 0.26 0.22 0.23 0.22 0.25 0.32 0.25 0.21 0.24 0.27 0.21 0.22 0.25 0.29 0.31 0.37 0.40 0.37 0.43 0.50 0.51 0.51 0.55 0.61 0.56 0.51 0.51 0.51 0.58 0.71 0.80 0.88 0.89
0.73 0.98 0.97 0.87 0.97 0.54 0.28 0.29 0.44 0.50 0.28 0.20 0.18 0.18 0.19 0.18 0.17 0.17 0.19 0.23 0.24 0.20 0.18 0.18 0.22 0.27 0.32 0.36 0.36 0.42 0.50 0.52 0.56 0.57 0.55 0.55 0.56 0.54 0.55 0.59 0.68 0.79 0.88 0.94
0.56 0.70 0.69 0.64 0.58 0.41 0.34 0.41 0.41 0.32 0.22 0.16 0.17 0.15 0.15 0.15 0.15 0.17 0.20 0.22 0.23 0.21 0.20 0.19 0.21 0.24 0.29 0.33 0.36 0.44 0.49 0.48 0.53 0.53 0.51 0.52 0.55 0.55 0.56 0.62 0.69 0.78 0.87 0.91
0.36 0.39 0.49 0.48 0.33 0.27 0.29 0.30 0.28 0.23 0.19 0.16 0.17 0.16 0.15 0.15 0.15 0.17 0.20 0.20 0.22 0.22 0.21 0.20 0.22 0.24 0.31 0.34 0.35 0.41 0.46 0.43 0.43 0.45 0.48 0.48 0.54 0.58 0.60 0.66 0.70 0.75 0.85 0.93
0.31 0.35 0.44 0.43 0.27 0.23 0.23 0.23 0.23 0.20 0.17 0.16 0.17 0.17 0.16 0.16 0.16 0.18 0.20 0.21 0.22 0.25 0.24 0.23 0.24 0.25 0.32 0.36 0.39 0.43 0.42 0.40 0.39 0.39 0.47 0.54 0.58 0.62 0.65 0.68 0.72 0.76 0.78 0.93
0.23 0.30 0.40 0.39 0.27 0.29 0.27 0.23 0.22 0.20 0.20 0.20 0.19 0.19 0.16 0.17 0.20 0.19 0.20 0.21 0.23 0.27 0.28 0.26 0.27 0.28 0.34 0.38 0.46 0.46 0.41 0.38 0.40 0.43 0.47 0.55 0.61 0.62 0.63 0.62 0.66 0.76 0.79 0.84

GEFSCGP_prec_meanprecacc_246.txt.gz
Total_Precipitation_Accumulation
1.01 1.18 1.19 0.95 0.85 0.75 0.64 0.62 0.48 0.34 0.33 0.36 0.34 0.32 0.24 0.19 0.20 0.18 0.16 0.19 0.26 0.24 0.21 0.27 0.36 0.48 0.55 0.56 0.63 0.77 0.94 1.08 1.13 1.18 1.15 1.10 1.17 1.22 1.18 1.14 1.30 1.46 1.51 1.49
1.10 0.93 0.62 0.52 0.54 0.65 0.68 0.68 0.51 0.36 0.35 0.43 0.40 0.36 0.27 0.18 0.19 0.19 0.17 0.19 0.25 0.26 0.25 0.30 0.36 0.45 0.50 0.56 0.60 0.71 0.89 1.02 1.04 1.05 1.11 1.09 1.12 1.16 1.21 1.17 1.19 1.34 1.50 1.63
0.91 0.58 0.42 0.54 0.60 0.72 0.70 0.61 0.49 0.44 0.43 0.51 0.54 0.48 0.29 0.18 0.17 0.19 0.21 0.22 0.25 0.25 0.26 0.28 0.32 0.39 0.45 0.53 0.56 0.59 0.78 1.01 1.07 1.08 1.19 1.23 1.32 1.36 1.35 1.28 1.19 1.22 1.30 1.37
0.72 0.42 0.45 0.62 0.62 0.66 0.66 0.39 0.40 0.48 0.62 0.65 0.58 0.70 0.36 0.21 0.18 0.19 0.21 0.25 0.27 0.26 0.26 0.30 0.31 0.39 0.43 0.50 0.56 0.57 0.68 0.89 1.13 1.14 1.15 1.18 1.23 1.27 1.28 1.22 1.16 1.16 1.25 1.30
0.78 0.45 0.48 0.63 0.51 0.48 0.50 0.35 0.41 0.54 0.70 0.72 0.57 0.70 0.43 0.22 0.21 0.18 0.17 0.19 0.22 0.24 0.28 0.32 0.35 0.42 0.48 0.56 0.63 0.61 0.69 0.81 1.03 1.11 1.08 1.11 1.14 1.17 1.28 1.31 1.21 1.20 1.26 1.33
0.61 0.44 0.47 0.45 0.37 0.39 0.46 0.54 0.66 0.74 0.99 1.06 0.47 0.49 0.47 0.35 0.32 0.23 0.18 0.20 0.21 0.24 0.30 0.34 0.38 0.47 0.55 0.64 0.74 0.70 0.73 0.75 0.89 1.10 1.09 1.02 1.05 1.07 1.16 1.29 1.36 1.33 1.32 1.33
0.80 0.59 0.52 0.44 0.54 0.63 0.75 1.07 1.61 1.70 1.56 0.89 0.26 0.31 0.45 0.35 0.32 0.27 0.22 0.24 0.23 0.25 0.29 0.33 0.40 0.51 0.54 0.62 0.72 0.72 0.72 0.75 0.78 0.96 1.06 1.01 0.99 1.00 1.02 1.13 1.24 1.31 1.33 1.29
0.93 0.81 0.58 0.51 0.64 0.82 0.78 0.93 1.25 1.20 0.76 0.34 0.18 0.28 0.35 0.29 0.22 0.20 0.20 0.23 0.24 0.23 0.24 0.29 0.35 0.44 0.51 0.54 0.64 0.71 0.72 0.75 0.75 0.85 1.01 1.06 1.05 1.04 0.97 1.03 1.14 1.21 1.21 1.19
0.88 0.61 0.39 0.38 0.37 0.50 0.68 0.69 0.61 0.83 0.56 0.36 0.27 0.25 0.25 0.19 0.16 0.17 0.18 0.20 0.23 0.24 0.26 0.30 0.34 0.38 0.42 0.49 0.55 0.62 0.73 0.78 0.79 0.79 0.94 1.12 1.20 1.11 1.00 0.97 1.05 1.10 1.12 1.14
0.95 0.71 0.36 0.38 0.52 0.56 0.60 0.66 0.79 1.07 0.89 0.52 0.28 0.27 0.38 0.30 0.25 0.21 0.19 0.19 0.19 0.24 0.29 0.33 0.35 0.39 0.41 0.43 0.49 0.54 0.67 0.76 0.81 0.78 0.86 1.02 1.24 1.28 1.15 1.09 1.01 1.03 1.04 1.06
0.81 0.90 0.58 0.52 0.75 0.73 0.63 0.80 0.98 1.01 0.76 0.62 0.40 0.35 0.40 0.36 0.29 0.23 0.18 0.16 0.17 0.21 0.25 0.28 0.33 0.39 0.43 0.43 0.49 0.54 0.61 0.69 0.75 0.73 0.78 0.89 1.07 1.29 1.32 1.22 1.10 0.98 0.98 0.98
0.79 0.98 0.75 0.49 0.47 0.48 0.58 0.70 0.84 1.03 0.76 0.48 0.43 0.36 0.26 0.24 0.24 0.21 0.17 0.15 0.16 0.19 0.22 0.24 0.29 0.37 0.41 0.43 0.46 0.51 0.57 0.63 0.70 0.70 0.73 0.82 0.92 1.10 1.32 1.27 1.13 1.01 0.96 0.96
1.23 1.46 1.18 0.85 0.71 0.62 0.71 0.64 0.64 0.74 0.76 0.54 0.45 0.34 0.19 0.14 0.17 0.17 0.16 0.15 0.16 0.18 0.21 0.24 0.30 0.34 0.37 0.43 0.47 0.48 0.53 0.60 0.64 0.69 0.74 0.76 0.85 0.94 1.05 1.20 1.16 1.06 0.99 0.96
1.41 1.52 1.12 0.92 0.75 0.70 0.69 0.51 0.49 0.71 0.89 0.53 0.29 0.24 0.18 0.17 0.20 0.19 0.18 0.18 0.18 0.18 0.21 0.26 0.31 0.32 0.35 0.42 0.50 0.50 0.54 0.59 0.57 0.63 0.70 0.70 0.72 0.79 0.85 0.97 1.15 1.17 1.08 0.98
1.19 1.22 0.62 0.39 0.32 0.34 0.38 0.34 0.34 0.50 0.52 0.42 0.24 0.21 0.24 0.21 0.22 0.25 0.25 0.24 0.22 0.19 0.21 0.27 0.31 0.33 0.37 0.45 0.53 0.57 0.55 0.52 0.49 0.52 0.60 0.66 0.72 0.79 0.82 0.82 0.95 1.14 1.11 0.97
1.10 1.06 0.54 0.33 0.25 0.28 0.28 0.25 0.28 0.31 0.31 0.28 0.20 0.21 0.23 0.21 0.17 0.20 0.23 0.24 0.26 0.25 0.25 0.27 0.31 0.32 0.39 0.45 0.54 0.64 0.58 0.54 0.47 0.47 0.54 0.61 0.71 0.84 0.86 0.82 0.86 0.98 1.07 1.02
1.05 1.06 0.87 0.48 0.25 0.41 0.46 0.33 0.32 0.32 0.31 0.31 0.33 0.29 0.23 0.22 0.22 0.25 0.27 0.27 0.29 0.30 0.31 0.31 0.32 0.36 0.44 0.47 0.54 0.62 0.61 0.57 0.50 0.49 0.53 0.59 0.64 0.78 0.85 0.86 0.90 0.95 1.01 1.08
0.81 0.99 1.21 0.78 0.58 0.83 0.43 0.24 0.26 0.29 0.33 0.34 0.32 0.27 0.26 0.27 0.27 0.27 0.29 0.32 0.33 0.33 0.33 0.33 0.36 0.41 0.42 0.46 0.49 0.54 0.56 0.55 0.54 0.53 0.58 0.62 0.61 0.66 0.79 0.90 0.91 0.92 0.95 0.99
0.47 0.91 1.42 1.19 0.86 0.50 0.24 0.21 0.27 0.34 0.38 0.31 0.26 0.24 0.22 0.21 0.19 0.20 0.20 0.25 0.32 0.32 0.32 0.34 0.37 0.40 0.40 0.41 0.43 0.49 0.54 0.53 0.56 0.61 0.64 0.64 0.59 0.60 0.71 0.80 0.88 0.91 0.92 0.90
0.49 0.91 1.57 1.36 1.03 0.50 0.31 0.20 0.18 0.27 0.48 0.28 0.23 0.25 0.22 0.22 0.29 0.24 0.17 0.22 0.29 0.27 0.28 0.32 0.35 0.33 0.35 0.38 0.39 0.47 0.53 0.48 0.53 0.58 0.65 0.60 0.54 0.52 0.53 0.63 0.79 0.87 0.89 0.86
0.87 1.33 1.57 1.19 0.96 0.44 0.29 0.21 0.20 0.43 0.53 0.27 0.23 0.24 0.23 0.27 0.33 0.26 0.22 0.25 0.28 0.23 0.24 0.27 0.30 0.31 0.37 0.40 0.38 0.43 0.51 0.51 0.53 0.57 0.64 0.58 0.53 0.53 0.54 0.60 0.73 0.82 0.91 0.93
0.74 1.00 0.99 0.89 1.00 0.55 0.29 0.29 0.45 0.51 0.29 0.21 0.18 0.19 0.20 0.19 0.18 0.18 0.20 0.25 0.26 0.21 0.20 0.20 0.24 0.27 0.33 0.36 0.37 0.43 0.51 0.53 0.57 0.59 0.57 0.57 0.58 0.57 0.59 0.62 0.71 0.82 0.92 0.98
0.57 0.72 0.71 0.66 0.59 0.42 0.34 0.41 0.41 0.32 0.23 0.17 0.17 0.16 0.15 0.16 0.16 0.18 0.21 0.23 0.25 0.22 0.21 0.21 0.23 0.25 0.30 0.34 0.37 0.46 0.51 0.50 0.55 0.55 0.54 0.55 0.59 0.58 0.61 0.66 0.73 0.82 0.91 0.95
0.37 0.40 0.51 0.49 0.34 0.28 0.29 0.30 0.28 0.23 0.20 0.16 0.17 0.16 0.15 0.15 0.16 0.18 0.21 0.22 0.23 0.23 0.22 0.21 0.23 0.25 0.32 0.35 0.37 0.44 0.48 0.45 0.45 0.47 0.51 0.51 0.57 0.62 0.65 0.70 0.73 0.79 0.89 0.97
0.31 0.36 0.45 0.44 0.28 0.24 0.23 0.23 0.24 0.20 0.18 0.16 0.17 0.17 0.16 0.16 0.17 0.18 0.21 0.22 0.23 0.26 0.25 0.24 0.25 0.27 0.33 0.38 0.41 0.45 0.44 0.42 0.41 0.42 0.50 0.56 0.60 0.66 0.69 0.71 0.75 0.80 0.83 0.98
0.23 0.31 0.42 0.40 0.27 0.30 0.27 0.23 0.22 0.21 0.20 0.20 0.20 0.19 0.16 0.17 0.21 0.19 0.21 0.22 0.24 0.27 0.29 0.27 0.27 0.29 0.35 0.40 0.48 0.48 0.42 0.40 0.42 0.45 0.49 0.57 0.63 0.65 0.66 0.65 0.69 0.80 0.84 0.89

GEFSCGP_prec_meanprecacc_252.txt.gz
Total_Precipitation_Accumulation
1.03 1.20 1.21 0.98 0.88 0.76 0.65 0.63 0.50 0.37 0.36 0.41 0.40 0.36 0.29 0.23 0.23 0.22 0.20 0.24 0.32 0.32 0.32 0.36 0.42 0.55 0.64 0.69 0.78 0.93 1.08 1.20 1.22 1.26 1.24 1.20 1.28 1.32 1.25 1.22 1.40 1.60 1.68 1.66
1.12 0.95 0.63 0.53 0.55 0.66 0.68 0.69 0.53 0.38 0.38 0.47 0.45 0.41 0.32 0.24 0.23 0.21 0.20 0.22 0.30 0.32 0.35 0.38 0.42 0.53 0.60 0.70 0.76 0.87 1.03 1.14 1.14 1.12 1.17 1.17 1.22 1.26 1.28 1.23 1.28 1.45 1.65 1.77
0.92 0.60 0.43 0.55 0.62 0.73 0.71 0.62 0.50 0.47 0.48 0.55 0.58 0.54 0.34 0.25 0.22 0.22 0.23 0.25 0.31 0.32 0.35 0.38 0.40 0.47 0.54 0.67 0.72 0.72 0.89 1.13 1.17 1.15 1.26 1.31 1.41 1.46 1.43 1.34 1.26 1.32 1.45 1.52
0.73 0.45 0.48 0.64 0.63 0.67 0.67 0.40 0.41 0.50 0.65 0.69 0.62 0.77 0.41 0.27 0.24 0.22 0.24 0.28 0.32 0.33 0.34 0.39 0.40 0.48 0.53 0.65 0.77 0.73 0.78 1.01 1.24 1.23 1.23 1.25 1.31 1.37 1.36 1.28 1.23 1.25 1.37 1.45
0.80 0.48 0.51 0.65 0.52 0.49 0.51 0.36 0.42 0.57 0.75 0.75 0.60 0.75 0.48 0.27 0.27 0.23 0.20 0.22 0.26 0.30 0.34 0.40 0.42 0.50 0.57 0.68 0.81 0.81 0.86 0.93 1.15 1.21 1.16 1.18 1.21 1.26 1.37 1.37 1.29 1.27 1.36 1.47
0.62 0.47 0.50 0.47 0.38 0.40 0.47 0.55 0.68 0.80 1.04 1.10 0.49 0.52 0.51 0.39 0.39 0.29 0.23 0.23 0.25 0.29 0.35 0.40 0.44 0.54 0.63 0.73 0.86 0.88 0.91 0.90 1.01 1.22 1.18 1.10 1.12 1.15 1.25 1.36 1.43 1.40 1.38 1.44
0.83 0.63 0.55 0.46 0.57 0.65 0.76 1.10 1.66 1.77 1.61 0.93 0.28 0.33 0.48 0.39 0.37 0.32 0.27 0.28 0.27 0.29 0.32 0.37 0.44 0.57 0.62 0.71 0.83 0.89 0.88 0.88 0.89 1.06 1.15 1.10 1.06 1.06 1.09 1.21 1.31 1.37 1.39 1.36
0.97 0.85 0.62 0.53 0.66 0.84 0.80 0.96 1.28 1.24 0.79 0.36 0.20 0.31 0.38 0.31 0.25 0.25 0.25 0.27 0.28 0.26 0.27 0.32 0.38 0.49 0.59 0.65 0.75 0.84 0.87 0.86 0.85 0.95 1.08 1.13 1.11 1.11 1.03 1.10 1.21 1.27 1.28 1.26
0.90 0.63 0.41 0.39 0.38 0.51 0.69 0.70 0.63 0.86 0.58 0.37 0.28 0.27 0.27 0.20 0.18 0.21 0.24 0.26 0.27 0.27 0.29 0.32 0.36 0.41 0.48 0.59 0.68 0.73 0.85 0.90 0.89 0.88 1.01 1.17 1.24 1.19 1.08 1.03 1.12 1.17 1.18 1.20
0.97 0.72 0.36 0.38 0.53 0.56 0.61 0.67 0.80 1.11 0.92 0.54 0.29 0.27 0.39 0.31 0.27 0.24 0.24 0.24 0.23 0.27 0.32 0.35 0.37 0.41 0.45 0.50 0.58 0.65 0.76 0.86 0.90 0.85 0.91 1.05 1.27 1.32 1.21 1.17 1.08 1.09 1.09 1.12
0.82 0.91 0.59 0.53 0.76 0.74 0.64 0.81 0.99 1.03 0.79 0.66 0.41 0.36 0.41 0.37 0.31 0.25 0.21 0.20 0.21 0.23 0.27 0.30 0.34 0.41 0.45 0.47 0.54 0.61 0.68 0.76 0.82 0.78 0.82 0.92 1.09 1.32 1.36 1.27 1.16 1.04 1.03 1.02
0.80 1.00 0.76 0.49 0.47 0.49 0.60 0.71 0.85 1.04 0.78 0.51 0.45 0.37 0.26 0.25 0.25 0.22 0.19 0.18 0.18 0.21 0.23 0.25 0.29 0.38 0.43 0.45 0.50 0.56 0.63 0.69 0.75 0.75 0.77 0.84 0.94 1.11 1.34 1.30 1.17 1.04 1.00 1.01
1.25 1.48 1.19 0.85 0.71 0.63 0.72 0.64 0.65 0.75 0.77 0.56 0.47 0.35 0.20 0.15 0.17 0.17 0.17 0.16 0.17 0.19 0.22 0.25 0.31 0.35 0.39 0.45 0.49 0.52 0.57 0.65 0.69 0.74 0.77 0.78 0.86 0.95 1.07 1.22 1.18 1.08 1.01 0.99
1.42 1.53 1.13 0.93 0.76 0.72 0.70 0.51 0.49 0.72 0.91 0.54 0.30 0.25 0.18 0.18 0.20 0.20 0.19 0.18 0.19 0.19 0.22 0.27 0.31 0.34 0.37 0.43 0.51 0.52 0.58 0.63 0.62 0.66 0.73 0.72 0.73 0.81 0.86 0.98 1.17 1.18 1.09 1.01
1.20 1.23 0.63 0.40 0.32 0.36 0.39 0.34 0.34 0.50 0.53 0.43 0.25 0.22 0.25 0.23 0.23 0.26 0.26 0.25 0.22 0.19 0.21 0.27 0.32 0.34 0.39 0.46 0.54 0.58 0.59 0.56 0.53 0.55 0.62 0.68 0.73 0.80 0.84 0.84 0.97 1.15 1.12 0.99
1.11 1.07 0.54 0.33 0.26 0.29 0.29 0.25 0.28 0.31 0.31 0.29 0.21 0.22 0.24 0.22 0.18 0.20 0.23 0.25 0.27 0.26 0.25 0.28 0.33 0.35 0.41 0.47 0.56 0.65 0.62 0.59 0.51 0.51 0.57 0.63 0.73 0.85 0.88 0.84 0.88 1.00 1.09 1.04
1.06 1.07 0.88 0.48 0.26 0.43 0.47 0.34 0.33 0.33 0.32 0.32 0.35 0.30 0.24 0.23 0.23 0.27 0.29 0.28 0.30 0.30 0.32 0.31 0.34 0.38 0.45 0.49 0.55 0.64 0.64 0.62 0.56 0.52 0.57 0.62 0.66 0.80 0.87 0.87 0.92 0.96 1.03 1.10
0.82 0.99 1.23 0.79 0.59 0.84 0.44 0.24 0.26 0.29 0.34 0.36 0.34 0.29 0.27 0.29 0.28 0.28 0.31 0.34 0.34 0.33 0.34 0.34 0.37 0.42 0.44 0.48 0.51 0.56 0.59 0.59 0.59 0.58 0.61 0.66 0.63 0.67 0.81 0.91 0.92 0.93 0.97 1.00
0.47 0.92 1.43 1.20 0.88 0.51 0.25 0.21 0.28 0.34 0.39 0.32 0.28 0.25 0.23 0.22 0.20 0.21 0.21 0.26 0.33 0.33 0.33 0.35 0.38 0.41 0.42 0.43 0.45 0.53 0.57 0.55 0.59 0.65 0.67 0.66 0.61 0.61 0.71 0.81 0.89 0.92 0.93 0.91
0.50 0.91 1.59 1.38 1.05 0.51 0.32 0.21 0.19 0.28 0.48 0.30 0.24 0.26 0.23 0.23 0.30 0.24 0.18 0.22 0.30 0.28 0.29 0.33 0.35 0.34 0.36 0.41 0.43 0.52 0.57 0.51 0.55 0.61 0.67 0.62 0.56 0.52 0.54 0.64 0.79 0.88 0.90 0.87
0.88 1.34 1.58 1.20 0.97 0.44 0.30 0.22 0.21 0.44 0.54 0.27 0.23 0.25 0.24 0.28 0.35 0.27 0.23 0.26 0.29 0.24 0.24 0.28 0.30 0.32 0.38 0.42 0.41 0.47 0.54 0.55 0.55 0.60 0.66 0.60 0.55 0.54 0.55 0.60 0.73 0.83 0.91 0.93
0.75 1.01 1.00 0.91 1.02 0.56 0.29 0.30 0.46 0.53 0.30 0.21 0.19 0.19 0.21 0.20 0.19 0.19 0.21 0.25 0.26 0.22 0.20 0.21 0.24 0.28 0.33 0.38 0.39 0.46 0.53 0.57 0.60 0.62 0.60 0.60 0.60 0.58 0.60 0.63 0.71 0.83 0.93 0.99
0.57 0.72 0.72 0.67 0.60 0.42 0.34 0.42 0.42 0.33 0.23 0.17 0.18 0.17 0.16 0.16 0.17 0.19 0.22 0.24 0.26 0.23 0.22 0.22 0.23 0.26 0.31 0.35 0.39 0.48 0.54 0.53 0.58 0.58 0.57 0.57 0.61 0.60 0.62 0.67 0.74 0.83 0.92 0.96
0.37 0.40 0.51 0.50 0.34 0.28 0.29 0.31 0.29 0.24 0.20 0.17 0.17 0.17 0.16 0.16 0.16 0.19 0.22 0.22 0.24 0.23 0.23 0.22 0.24 0.26 0.33 0.36 0.38 0.45 0.51 0.48 0.47 0.49 0.54 0.54 0.59 0.64 0.67 0.72 0.75 0.81 0.90 0.98
0.32 0.36 0.45 0.44 0.28 0.24 0.24 0.24 0.24 0.20 0.18 0.16 0.17 0.17 0.17 0.17 0.17 0.19 0.21 0.22 0.23 0.27 0.26 0.25 0.26 0.28 0.34 0.39 0.43 0.47 0.46 0.44 0.44 0.44 0.52 0.59 0.62 0.68 0.72 0.74 0.77 0.82 0.84 0.98
0.24 0.32 0.43 0.41 0.28 0.30 0.28 0.24 0.23 0.22 0.21 0.21 0.20 0.19 0.16 0.18 0.21 0.20 0.21 0.23 0.25 0.29 0.30 0.28 0.29 0.30 0.36 0.41 0.49 0.50 0.44 0.42 0.44 0.47 0.52 0.59 0.65 0.68 0.69 0.67 0.70 0.81 0.84 0.90

GEFSCGP_prec_meanprecacc_258.txt.gz
Total_Precipitation_Accumulation
1.05 1.22 1.23 1.00 0.90 0.78 0.67 0.65 0.51 0.38 0.37 0.42 0.41 0.39 0.34 0.29 0.31 0.29 0.25 0.29 0.36 0.35 0.35 0.44 0.54 0.68 0.77 0.79 0.86 1.02 1.19 1.31 1.34 1.37 1.36 1.30 1.43 1.48 1.36 1.28 1.43 1.62 1.70 1.71
1.15 0.96 0.64 0.54 0.57 0.67 0.70 0.71 0.54 0.39 0.39 0.49 0.47 0.44 0.34 0.27 0.29 0.27 0.24 0.26 0.34 0.35 0.38 0.45 0.52 0.66 0.74 0.83 0.86 0.96 1.14 1.26 1.24 1.23 1.30 1.31 1.34 1.42 1.43 1.32 1.33 1.48 1.68 1.82
0.94 0.61 0.44 0.56 0.63 0.75 0.73 0.63 0.51 0.49 0.49 0.57 0.61 0.57 0.35 0.28 0.27 0.27 0.27 0.29 0.34 0.35 0.38 0.44 0.49 0.59 0.70 0.83 0.87 0.83 0.98 1.24 1.28 1.25 1.38 1.46 1.56 1.60 1.60 1.47 1.32 1.36 1.47 1.57
0.75 0.46 0.49 0.65 0.65 0.68 0.68 0.41 0.42 0.52 0.67 0.71 0.65 0.79 0.43 0.29 0.27 0.26 0.28 0.33 0.35 0.35 0.37 0.44 0.49 0.58 0.65 0.80 0.94 0.89 0.91 1.11 1.34 1.32 1.33 1.36 1.45 1.49 1.50 1.43 1.31 1.30 1.41 1.49
0.81 0.49 0.52 0.66 0.53 0.50 0.52 0.36 0.43 0.58 0.76 0.77 0.62 0.77 0.49 0.28 0.30 0.26 0.24 0.26 0.29 0.33 0.38 0.45 0.49 0.57 0.66 0.80 0.97 1.02 1.00 1.02 1.24 1.30 1.25 1.27 1.29 1.36 1.47 1.49 1.42 1.34 1.41 1.52
0.64 0.49 0.52 0.49 0.39 0.43 0.48 0.56 0.70 0.82 1.07 1.14 0.51 0.54 0.52 0.41 0.41 0.32 0.25 0.26 0.27 0.32 0.39 0.45 0.50 0.60 0.71 0.84 1.01 1.08 1.09 1.04 1.11 1.32 1.29 1.20 1.20 1.22 1.33 1.45 1.54 1.50 1.45 1.49
0.85 0.65 0.58 0.48 0.58 0.67 0.77 1.12 1.70 1.82 1.66 0.96 0.29 0.34 0.49 0.40 0.39 0.35 0.30 0.30 0.29 0.31 0.35 0.41 0.50 0.63 0.70 0.80 0.96 1.07 1.07 1.06 1.06 1.21 1.30 1.21 1.15 1.14 1.16 1.27 1.39 1.47 1.47 1.43
1.00 0.89 0.65 0.55 0.68 0.86 0.81 0.97 1.31 1.27 0.81 0.38 0.22 0.32 0.40 0.34 0.28 0.28 0.28 0.30 0.29 0.28 0.29 0.36 0.44 0.55 0.65 0.72 0.85 0.98 1.04 1.00 1.00 1.13 1.29 1.30 1.23 1.21 1.12 1.17 1.28 1.34 1.36 1.33
0.93 0.67 0.44 0.41 0.39 0.52 0.71 0.72 0.64 0.88 0.59 0.39 0.30 0.28 0.28 0.22 0.19 0.23 0.26 0.28 0.29 0.30 0.31 0.34 0.42 0.47 0.54 0.65 0.76 0.85 1.01 1.06 1.02 1.04 1.21 1.39 1.41 1.32 1.20 1.12 1.19 1.24 1.26 1.28
0.98 0.75 0.39 0.40 0.54 0.58 0.62 0.68 0.82 1.13 0.94 0.55 0.30 0.28 0.39 0.31 0.28 0.26 0.26 0.27 0.26 0.30 0.36 0.39 0.41 0.44 0.49 0.56 0.65 0.74 0.91 1.04 1.06 1.02 1.09 1.25 1.47 1.46 1.34 1.28 1.16 1.17 1.18 1.21
0.83 0.93 0.61 0.54 0.77 0.74 0.65 0.83 1.01 1.05 0.81 0.67 0.42 0.36 0.42 0.38 0.31 0.27 0.25 0.23 0.23 0.27 0.33 0.36 0.37 0.44 0.48 0.52 0.62 0.70 0.80 0.93 0.99 0.94 0.98 1.07 1.26 1.46 1.47 1.37 1.23 1.11 1.11 1.11
0.81 1.01 0.77 0.50 0.48 0.49 0.60 0.73 0.87 1.07 0.79 0.52 0.46 0.38 0.27 0.25 0.26 0.24 0.22 0.21 0.21 0.25 0.27 0.28 0.32 0.42 0.47 0.51 0.58 0.64 0.73 0.86 0.93 0.91 0.93 0.98 1.06 1.22 1.42 1.38 1.24 1.11 1.07 1.09
1.26 1.50 1.20 0.86 0.72 0.63 0.72 0.65 0.67 0.77 0.80 0.57 0.48 0.35 0.20 0.15 0.18 0.18 0.19 0.19 0.21 0.23 0.25 0.27 0.32 0.37 0.43 0.50 0.55 0.58 0.65 0.76 0.86 0.93 0.94 0.91 0.96 1.03 1.14 1.29 1.26 1.16 1.09 1.06
1.43 1.55 1.14 0.94 0.77 0.73 0.70 0.51 0.50 0.73 0.93 0.56 0.31 0.26 0.19 0.18 0.21 0.21 0.19 0.20 0.22 0.24 0.26 0.29 0.33 0.35 0.40 0.47 0.55 0.56 0.63 0.70 0.73 0.81 0.85 0.83 0.83 0.88 0.92 1.05 1.24 1.25 1.17 1.08
1.21 1.23 0.63 0.40 0.32 0.36 0.40 0.35 0.35 0.51 0.54 0.44 0.26 0.23 0.25 0.24 0.24 0.27 0.26 0.25 0.24 0.23 0.25 0.29 0.33 0.36 0.40 0.48 0.58 0.62 0.63 0.61 0.60 0.66 0.72 0.77 0.81 0.87 0.89 0.89 1.03 1.22 1.18 1.05
1.11 1.07 0.54 0.33 0.26 0.29 0.30 0.26 0.28 0.32 0.32 0.29 0.21 0.23 0.25 0.23 0.19 0.21 0.24 0.26 0.28 0.28 0.28 0.29 0.34 0.36 0.42 0.48 0.58 0.68 0.67 0.64 0.57 0.58 0.64 0.70 0.78 0.90 0.92 0.88 0.94 1.06 1.15 1.09
1.07 1.07 0.88 0.49 0.26 0.43 0.48 0.35 0.34 0.34 0.33 0.34 0.37 0.32 0.25 0.24 0.24 0.27 0.30 0.30 0.31 0.32 0.33 0.32 0.35 0.40 0.47 0.50 0.57 0.67 0.68 0.67 0.62 0.59 0.62 0.66 0.69 0.83 0.89 0.90 0.97 1.02 1.09 1.16
0.83 1.00 1.24 0.80 0.59 0.85 0.45 0.25 0.27 0.32 0.35 0.37 0.36 0.30 0.28 0.30 0.28 0.29 0.32 0.36 0.36 0.34 0.34 0.35 0.38 0.44 0.45 0.49 0.52 0.58 0.63 0.63 0.65 0.65 0.67 0.70 0.67 0.71 0.83 0.93 0.96 0.99 1.02 1.06
0.48 0.93 1.45 1.22 0.89 0.52 0.25 0.21 0.28 0.36 0.41 0.33 0.29 0.26 0.24 0.22 0.20 0.21 0.21 0.27 0.34 0.34 0.33 0.36 0.39 0.42 0.43 0.44 0.47 0.54 0.60 0.59 0.64 0.71 0.72 0.71 0.65 0.65 0.74 0.84 0.93 0.97 0.98 0.95
0.51 0.93 1.61 1.39 1.06 0.52 0.32 0.21 0.19 0.29 0.50 0.30 0.25 0.27 0.24 0.24 0.31 0.25 0.18 0.23 0.31 0.28 0.29 0.33 0.36 0.35 0.38 0.42 0.45 0.54 0.60 0.54 0.59 0.66 0.72 0.66 0.60 0.56 0.57 0.66 0.84 0.93 0.94 0.91
0.89 1.37 1.60 1.21 0.98 0.45 0.30 0.22 0.21 0.45 0.55 0.28 0.24 0.26 0.25 0.29 0.36 0.28 0.23 0.27 0.30 0.24 0.25 0.28 0.32 0.33 0.40 0.43 0.43 0.50 0.58 0.59 0.59 0.64 0.70 0.64 0.58 0.57 0.57 0.62 0.76 0.88 0.95 0.96
0.75 1.02 1.01 0.92 1.03 0.57 0.29 0.30 0.47 0.54 0.30 0.22 0.19 0.20 0.21 0.21 0.19 0.19 0.22 0.26 0.27 0.22 0.21 0.21 0.26 0.30 0.35 0.40 0.42 0.49 0.57 0.61 0.64 0.66 0.64 0.63 0.63 0.61 0.62 0.65 0.74 0.87 0.96 1.02
0.58 0.73 0.73 0.68 0.60 0.42 0.35 0.42 0.43 0.33 0.24 0.18 0.18 0.17 0.17 0.17 0.17 0.20 0.23 0.25 0.26 0.24 0.22 0.22 0.25 0.27 0.33 0.39 0.43 0.52 0.57 0.56 0.61 0.62 0.61 0.61 0.64 0.63 0.64 0.69 0.76 0.87 0.96 0.99
0.38 0.40 0.52 0.50 0.34 0.28 0.29 0.31 0.29 0.24 0.21 0.17 0.17 0.17 0.16 0.16 0.17 0.19 0.22 0.23 0.24 0.24 0.23 0.23 0.25 0.28 0.35 0.39 0.42 0.49 0.54 0.51 0.50 0.53 0.58 0.57 0.63 0.67 0.70 0.74 0.77 0.84 0.94 1.00
0.32 0.37 0.46 0.45 0.28 0.24 0.24 0.24 0.25 0.21 0.18 0.17 0.17 0.18 0.17 0.18 0.18 0.19 0.22 0.23 0.24 0.27 0.27 0.26 0.27 0.29 0.36 0.41 0.46 0.51 0.50 0.47 0.46 0.47 0.55 0.61 0.65 0.72 0.75 0.76 0.79 0.85 0.87 1.01
0.24 0.32 0.44 0.42 0.28 0.31 0.28 0.24 0.23 0.22 0.21 0.21 0.21 0.20 0.17 0.19 0.22 0.21 0.22 0.24 0.26 0.30 0.31 0.29 0.29 0.31 0.37 0.42 0.51 0.53 0.47 0.45 0.47 0.50 0.55 0.62 0.68 0.71 0.71 0.69 0.73 0.85 0.88 0.93

GEFSCGP_prec_meanprecacc_264.txt.gz
Total_Precipitation_Accumulation
1.06 1.23 1.24 1.00 0.90 0.78 0.68 0.67 0.53 0.40 0.38 0.43 0.43 0.42 0.36 0.32 0.34 0.31 0.27 0.32 0.39 0.40 0.42 0.50 0.58 0.71 0.81 0.85 0.92 1.08 1.25 1.37 1.41 1.45 1.43 1.37 1.50 1.56 1.43 1.34 1.49 1.67 1.74 1.76
1.16 0.97 0.64 0.54 0.57 0.68 0.71 0.72 0.55 0.40 0.41 0.50 0.49 0.46 0.37 0.31 0.33 0.29 0.26 0.30 0.39 0.42 0.45 0.50 0.56 0.69 0.78 0.87 0.90 1.01 1.20 1.31 1.30 1.30 1.36 1.36 1.39 1.47 1.50 1.38 1.40 1.54 1.73 1.86
0.95 0.61 0.44 0.57 0.64 0.76 0.74 0.64 0.53 0.51 0.51 0.59 0.63 0.59 0.38 0.31 0.30 0.30 0.31 0.33 0.40 0.42 0.45 0.49 0.53 0.63 0.74 0.88 0.90 0.88 1.04 1.29 1.33 1.32 1.46 1.51 1.60 1.64 1.65 1.53 1.40 1.44 1.53 1.62
0.75 0.46 0.49 0.66 0.66 0.69 0.69 0.41 0.43 0.53 0.69 0.73 0.67 0.83 0.46 0.32 0.31 0.29 0.32 0.38 0.41 0.43 0.44 0.50 0.52 0.62 0.69 0.85 0.99 0.94 0.96 1.16 1.39 1.38 1.40 1.42 1.48 1.52 1.52 1.47 1.37 1.38 1.49 1.55
0.82 0.50 0.53 0.67 0.54 0.51 0.52 0.36 0.44 0.60 0.78 0.79 0.63 0.80 0.53 0.32 0.34 0.29 0.27 0.31 0.35 0.39 0.45 0.51 0.54 0.63 0.73 0.86 1.02 1.08 1.07 1.10 1.31 1.37 1.31 1.31 1.32 1.39 1.49 1.51 1.46 1.41 1.49 1.59
0.65 0.50 0.53 0.49 0.40 0.43 0.49 0.57 0.71 0.84 1.10 1.16 0.52 0.55 0.55 0.45 0.46 0.35 0.29 0.32 0.33 0.38 0.46 0.51 0.55 0.67 0.79 0.91 1.06 1.14 1.19 1.13 1.20 1.42 1.37 1.26 1.23 1.24 1.36 1.48 1.58 1.57 1.53 1.57
0.87 0.67 0.59 0.49 0.60 0.68 0.78 1.14 1.73 1.86 1.70 0.98 0.30 0.35 0.50 0.42 0.42 0.39 0.35 0.38 0.35 0.37 0.44 0.48 0.56 0.70 0.77 0.87 1.01 1.12 1.16 1.18 1.18 1.33 1.41 1.29 1.20 1.17 1.19 1.30 1.43 1.53 1.55 1.51
1.03 0.91 0.67 0.56 0.70 0.88 0.82 0.99 1.34 1.30 0.83 0.39 0.22 0.33 0.41 0.35 0.31 0.31 0.32 0.35 0.35 0.33 0.37 0.43 0.50 0.63 0.73 0.78 0.90 1.03 1.11 1.11 1.14 1.27 1.44 1.41 1.31 1.26 1.16 1.20 1.32 1.40 1.43 1.40
0.95 0.69 0.45 0.41 0.40 0.54 0.73 0.75 0.68 0.92 0.60 0.40 0.31 0.29 0.30 0.23 0.21 0.24 0.27 0.31 0.34 0.35 0.37 0.40 0.46 0.54 0.61 0.71 0.81 0.91 1.08 1.16 1.14 1.17 1.37 1.55 1.53 1.40 1.26 1.17 1.23 1.29 1.32 1.36
0.99 0.76 0.40 0.41 0.54 0.58 0.63 0.70 0.84 1.16 0.96 0.56 0.31 0.29 0.41 0.33 0.29 0.27 0.27 0.30 0.30 0.35 0.42 0.44 0.46 0.49 0.55 0.62 0.71 0.82 0.99 1.12 1.15 1.13 1.22 1.41 1.63 1.58 1.45 1.39 1.26 1.24 1.25 1.31
0.84 0.93 0.62 0.55 0.78 0.75 0.66 0.84 1.02 1.06 0.82 0.69 0.43 0.37 0.43 0.39 0.33 0.29 0.27 0.26 0.28 0.32 0.39 0.43 0.44 0.50 0.55 0.60 0.70 0.80 0.91 1.02 1.07 1.03 1.08 1.20 1.41 1.60 1.58 1.49 1.36 1.22 1.21 1.21
0.81 1.02 0.78 0.50 0.48 0.49 0.61 0.73 0.88 1.08 0.80 0.52 0.47 0.39 0.28 0.26 0.27 0.25 0.24 0.24 0.26 0.31 0.32 0.37 0.40 0.49 0.53 0.58 0.68 0.73 0.81 0.94 1.03 1.03 1.05 1.10 1.19 1.35 1.54 1.48 1.35 1.21 1.17 1.18
1.26 1.51 1.21 0.87 0.72 0.63 0.72 0.66 0.68 0.78 0.81 0.58 0.49 0.36 0.21 0.16 0.18 0.19 0.20 0.21 0.24 0.28 0.29 0.33 0.39 0.43 0.49 0.58 0.64 0.66 0.73 0.85 0.95 1.03 1.06 1.04 1.10 1.17 1.26 1.38 1.35 1.25 1.17 1.14
1.44 1.56 1.14 0.94 0.77 0.73 0.71 0.52 0.51 0.75 0.95 0.58 0.33 0.28 0.20 0.19 0.21 0.21 0.20 0.21 0.24 0.26 0.29 0.33 0.37 0.40 0.45 0.53 0.62 0.63 0.72 0.81 0.84 0.93 0.96 0.95 0.94 1.00 1.04 1.14 1.32 1.33 1.25 1.16
1.22 1.24 0.63 0.40 0.32 0.36 0.40 0.36 0.35 0.52 0.56 0.46 0.28 0.25 0.27 0.25 0.25 0.28 0.27 0.26 0.26 0.25 0.27 0.32 0.36 0.40 0.45 0.53 0.63 0.67 0.70 0.70 0.71 0.78 0.83 0.88 0.91 0.97 0.99 0.97 1.10 1.29 1.26 1.13
1.13 1.09 0.55 0.34 0.26 0.29 0.31 0.26 0.29 0.32 0.33 0.30 0.22 0.24 0.25 0.23 0.19 0.21 0.24 0.27 0.29 0.30 0.30 0.32 0.37 0.39 0.45 0.52 0.62 0.74 0.73 0.71 0.65 0.69 0.75 0.80 0.88 1.00 1.01 0.96 1.01 1.13 1.23 1.18
1.08 1.09 0.90 0.50 0.26 0.44 0.49 0.36 0.34 0.35 0.33 0.34 0.38 0.32 0.25 0.25 0.24 0.28 0.30 0.30 0.32 0.33 0.35 0.35 0.38 0.43 0.49 0.53 0.61 0.73 0.75 0.74 0.69 0.67 0.71 0.75 0.78 0.92 0.99 0.98 1.04 1.09 1.16 1.23
0.85 1.02 1.26 0.82 0.60 0.86 0.45 0.25 0.28 0.32 0.36 0.37 0.36 0.30 0.29 0.30 0.29 0.29 0.33 0.37 0.37 0.35 0.36 0.37 0.41 0.46 0.48 0.52 0.56 0.64 0.69 0.69 0.72 0.72 0.74 0.76 0.74 0.77 0.92 1.02 1.04 1.06 1.10 1.13
0.50 0.96 1.49 1.25 0.91 0.52 0.25 0.21 0.28 0.36 0.41 0.34 0.30 0.27 0.24 0.23 0.21 0.21 0.21 0.27 0.35 0.35 0.35 0.38 0.41 0.45 0.46 0.47 0.51 0.60 0.66 0.64 0.71 0.78 0.79 0.76 0.71 0.71 0.80 0.91 1.01 1.05 1.06 1.02
0.53 0.96 1.65 1.43 1.09 0.53 0.33 0.21 0.19 0.29 0.50 0.31 0.25 0.27 0.25 0.24 0.32 0.25 0.18 0.23 0.31 0.29 0.31 0.35 0.39 0.38 0.41 0.45 0.48 0.58 0.65 0.60 0.66 0.72 0.78 0.72 0.65 0.61 0.62 0.72 0.90 1.00 1.01 0.97
0.91 1.39 1.64 1.24 1.01 0.46 0.31 0.22 0.22 0.46 0.56 0.28 0.25 0.27 0.26 0.31 0.37 0.29 0.24 0.27 0.30 0.25 0.26 0.30 0.33 0.35 0.42 0.46 0.46 0.54 0.63 0.65 0.66 0.70 0.76 0.69 0.63 0.62 0.62 0.67 0.82 0.94 1.02 1.02
0.76 1.03 1.02 0.94 1.06 0.58 0.30 0.30 0.48 0.56 0.31 0.22 0.20 0.21 0.22 0.22 0.20 0.20 0.22 0.27 0.28 0.23 0.22 0.23 0.27 0.32 0.38 0.43 0.46 0.53 0.61 0.66 0.70 0.71 0.69 0.69 0.68 0.65 0.67 0.69 0.79 0.92 1.01 1.06
0.58 0.74 0.75 0.70 0.61 0.43 0.35 0.43 0.44 0.35 0.25 0.19 0.19 0.18 0.18 0.18 0.18 0.20 0.23 0.25 0.27 0.24 0.23 0.23 0.26 0.29 0.36 0.42 0.46 0.55 0.61 0.60 0.65 0.67 0.67 0.67 0.69 0.67 0.69 0.73 0.81 0.92 1.00 1.03
0.38 0.41 0.53 0.51 0.34 0.28 0.30 0.31 0.30 0.25 0.22 0.18 0.18 0.18 0.17 0.17 0.17 0.20 0.23 0.23 0.24 0.24 0.24 0.24 0.27 0.30 0.37 0.42 0.45 0.52 0.57 0.54 0.53 0.56 0.61 0.61 0.66 0.70 0.73 0.77 0.81 0.89 0.98 1.04
0.33 0.38 0.47 0.45 0.28 0.24 0.24 0.24 0.25 0.22 0.19 0.17 0.18 0.19 0.18 0.19 0.19 0.20 0.23 0.23 0.24 0.28 0.27 0.27 0.29 0.31 0.38 0.44 0.48 0.53 0.52 0.50 0.49 0.50 0.59 0.64 0.68 0.74 0.77 0.79 0.84 0.90 0.93 1.05
0.25 0.33 0.45 0.42 0.28 0.31 0.28 0.24 0.23 0.22 0.21 0.22 0.21 0.21 0.18 0.20 0.24 0.22 0.23 0.24 0.26 0.30 0.32 0.30 0.31 0.34 0.40 0.45 0.54 0.55 0.50 0.48 0.50 0.53 0.57 0.65 0.71 0.73 0.74 0.72 0.77 0.90 0.94 0.98